Wetterdaten: Sonntag, 26.11.2017
Datum Zeit Temp. A. Pool Temp. Feuchte A. Luftdruck Regen Wind Richtung Richtung Sonnenschein ET UV Solar Taupunkt Windchill Windben Empfang
26.11.2017 00:00 4,8 C 5,0 C 91 % 1015,7 hPa 0,0 l/m 12,8 km/h (3 Bft) SW 226 0 min 0,000 mm 0,0 UV-I 0 W/m 3,5 C 0,0 C 17,7 km/h (3 Bft) 100,00 %
26.11.2017 00:02 4,8 C 5,0 C 91 % 1015,7 hPa 0,0 l/m 12,3 km/h (3 Bft) SW 227 0 min 0,000 mm 0,0 UV-I 0 W/m 3,5 C 0,3 C 14,5 km/h (3 Bft) 96,88 %
26.11.2017 00:04 4,8 C 5,0 C 91 % 1015,7 hPa 0,0 l/m 11,9 km/h (2 Bft) SW 236 0 min 0,000 mm 0,0 UV-I 0 W/m 3,5 C 0,6 C 17,7 km/h (3 Bft) 100,00 %
26.11.2017 00:06 4,8 C 5,0 C 91 % 1015,8 hPa 0,0 l/m 10,0 km/h (2 Bft) SW 226 0 min 0,000 mm 0,0 UV-I 0 W/m 3,5 C 1,9 C 17,7 km/h (3 Bft) 100,00 %
26.11.2017 00:08 4,8 C 5,0 C 91 % 1015,8 hPa 0,0 l/m 10,3 km/h (2 Bft) SW 218 0 min 0,000 mm 0,0 UV-I 0 W/m 3,5 C 1,6 C 17,7 km/h (3 Bft) 100,00 %
26.11.2017 00:10 4,8 C 5,0 C 91 % 1015,8 hPa 0,0 l/m 8,4 km/h (2 Bft) W-SW 242 0 min 0,000 mm 0,0 UV-I 0 W/m 3,5 C 3,1 C 12,9 km/h (3 Bft) 100,00 %
26.11.2017 00:12 4,8 C 5,0 C 91 % 1015,8 hPa 0,0 l/m 10,2 km/h (2 Bft) W-SW 239 0 min 0,000 mm 0,0 UV-I 0 W/m 3,5 C 1,7 C 16,1 km/h (3 Bft) 98,21 %
26.11.2017 00:14 4,7 C 5,0 C 91 % 1015,8 hPa 0,0 l/m 9,1 km/h (2 Bft) SW 232 0 min 0,000 mm 0,0 UV-I 0 W/m 3,4 C 2,4 C 14,5 km/h (3 Bft) 97,56 %
26.11.2017 00:16 4,7 C 5,0 C 91 % 1015,8 hPa 0,0 l/m 9,2 km/h (2 Bft) W-SW 242 0 min 0,000 mm 0,0 UV-I 0 W/m 3,4 C 2,3 C 14,5 km/h (3 Bft) 98,00 %
26.11.2017 00:18 4,7 C 5,0 C 92 % 1015,9 hPa 0,0 l/m 7,9 km/h (2 Bft) SW 236 0 min 0,000 mm 0,0 UV-I 0 W/m 3,5 C 3,4 C 12,9 km/h (3 Bft) 100,00 %
26.11.2017 00:20 4,7 C 5,0 C 91 % 1015,9 hPa 0,0 l/m 8,2 km/h (2 Bft) SW 219 0 min 0,000 mm 0,0 UV-I 0 W/m 3,4 C 3,1 C 12,9 km/h (3 Bft) 100,00 %
26.11.2017 00:22 4,7 C 5,0 C 92 % 1015,8 hPa 0,0 l/m 7,2 km/h (2 Bft) W-SW 242 0 min 0,000 mm 0,0 UV-I 0 W/m 3,5 C 4,0 C 9,7 km/h (2 Bft) 100,00 %
26.11.2017 00:24 4,7 C 5,0 C 91 % 1015,8 hPa 0,0 l/m 6,3 km/h (2 Bft) SW 233 0 min 0,000 mm 0,0 UV-I 0 W/m 3,4 C 4,7 C 8,0 km/h (2 Bft) 100,00 %
26.11.2017 00:26 4,7 C 5,0 C 92 % 1015,8 hPa 0,0 l/m 6,9 km/h (2 Bft) W-SW 238 0 min 0,000 mm 0,0 UV-I 0 W/m 3,5 C 4,3 C 9,7 km/h (2 Bft) 97,44 %
26.11.2017 00:28 4,7 C 5,0 C 92 % 1015,9 hPa 0,0 l/m 6,1 km/h (2 Bft) SW 226 0 min 0,000 mm 0,0 UV-I 0 W/m 3,5 C 4,7 C 8,0 km/h (2 Bft) 100,00 %
26.11.2017 00:30 4,7 C 5,0 C 92 % 1015,9 hPa 0,0 l/m 10,0 km/h (2 Bft) S-SW 212 0 min 0,000 mm 0,0 UV-I 0 W/m 3,5 C 1,7 C 14,5 km/h (3 Bft) 98,00 %
26.11.2017 00:32 4,7 C 5,0 C 92 % 1015,9 hPa 0,0 l/m 8,3 km/h (2 Bft) SW 219 0 min 0,000 mm 0,0 UV-I 0 W/m 3,5 C 3,0 C 12,9 km/h (3 Bft) 100,00 %
26.11.2017 00:34 4,7 C 5,0 C 92 % 1015,9 hPa 0,0 l/m 6,2 km/h (2 Bft) SW 219 0 min 0,000 mm 0,0 UV-I 0 W/m 3,5 C 4,7 C 12,9 km/h (3 Bft) 100,00 %
26.11.2017 00:36 4,7 C 5,0 C 91 % 1015,9 hPa 0,0 l/m 5,3 km/h (1 Bft) SW 227 0 min 0,000 mm 0,0 UV-I 0 W/m 3,4 C 4,7 C 8,0 km/h (2 Bft) 100,00 %
26.11.2017 00:38 4,7 C 5,0 C 91 % 1015,8 hPa 0,0 l/m 7,4 km/h (2 Bft) W-SW 240 0 min 0,000 mm 0,0 UV-I 0 W/m 3,4 C 3,8 C 12,9 km/h (3 Bft) 98,11 %
26.11.2017 00:40 4,8 C 5,0 C 91 % 1015,8 hPa 0,0 l/m 6,6 km/h (2 Bft) W-SW 240 0 min 0,000 mm 0,0 UV-I 0 W/m 3,5 C 4,6 C 9,7 km/h (2 Bft) 100,00 %
26.11.2017 00:42 4,7 C 5,0 C 91 % 1015,9 hPa 0,0 l/m 8,0 km/h (2 Bft) S-SW 208 0 min 0,000 mm 0,0 UV-I 0 W/m 3,4 C 3,3 C 12,9 km/h (3 Bft) 100,00 %
26.11.2017 00:44 4,7 C 5,0 C 91 % 1015,8 hPa 0,0 l/m 8,6 km/h (2 Bft) SW 236 0 min 0,000 mm 0,0 UV-I 0 W/m 3,4 C 2,8 C 12,9 km/h (3 Bft) 100,00 %
26.11.2017 00:46 4,7 C 5,0 C 91 % 1015,9 hPa 0,0 l/m 9,9 km/h (2 Bft) SW 235 0 min 0,000 mm 0,0 UV-I 0 W/m 3,4 C 1,8 C 14,5 km/h (3 Bft) 95,74 %
26.11.2017 00:48 4,8 C 5,0 C 91 % 1015,9 hPa 0,0 l/m 11,3 km/h (2 Bft) W-SW 246 0 min 0,000 mm 0,0 UV-I 0 W/m 3,5 C 1,0 C 16,1 km/h (3 Bft) 100,00 %
26.11.2017 00:50 4,8 C 5,0 C 91 % 1016,0 hPa 0,0 l/m 9,8 km/h (2 Bft) SW 229 0 min 0,000 mm 0,0 UV-I 0 W/m 3,5 C 2,0 C 14,5 km/h (3 Bft) 100,00 %
26.11.2017 00:52 4,8 C 5,0 C 91 % 1015,9 hPa 0,0 l/m 11,4 km/h (2 Bft) S-SW 205 0 min 0,000 mm 0,0 UV-I 0 W/m 3,5 C 0,9 C 14,5 km/h (3 Bft) 98,00 %
26.11.2017 00:54 4,8 C 5,0 C 91 % 1015,9 hPa 0,0 l/m 12,3 km/h (3 Bft) W-SW 242 0 min 0,000 mm 0,0 UV-I 0 W/m 3,5 C 0,3 C 17,7 km/h (3 Bft) 100,00 %
26.11.2017 00:56 4,8 C 5,0 C 91 % 1016,0 hPa 0,0 l/m 10,2 km/h (2 Bft) SW 234 0 min 0,000 mm 0,0 UV-I 0 W/m 3,5 C 1,7 C 12,9 km/h (3 Bft) 100,00 %
26.11.2017 00:58 4,8 C 5,0 C 91 % 1016,0 hPa 0,0 l/m 9,9 km/h (2 Bft) W-SW 242 0 min 0,000 mm 0,0 UV-I 0 W/m 3,5 C 1,9 C 14,5 km/h (3 Bft) 100,00 %
26.11.2017 01:00 4,8 C 5,0 C 91 % 1016,0 hPa 0,0 l/m 8,7 km/h (2 Bft) W-SW 246 0 min 0,000 mm 0,0 UV-I 0 W/m 3,5 C 2,8 C 14,5 km/h (3 Bft) 100,00 %
26.11.2017 01:01 4,8 C 5,0 C 91 % 1016,0 hPa 0,0 l/m 7,7 km/h (2 Bft) W-SW 247 0 min 0,000 mm 0,0 UV-I 0 W/m 3,5 C 3,6 C 12,9 km/h (3 Bft) 98,78 %
26.11.2017 01:04 4,8 C 5,0 C 91 % 1016,1 hPa 0,0 l/m 9,5 km/h (2 Bft) SW 223 0 min 0,000 mm 0,0 UV-I 0 W/m 3,5 C 2,2 C 14,5 km/h (3 Bft) 100,00 %
26.11.2017 01:06 4,8 C 5,0 C 91 % 1016,2 hPa 0,0 l/m 10,3 km/h (2 Bft) W-SW 252 0 min 0,000 mm 0,0 UV-I 0 W/m 3,5 C 1,6 C 16,1 km/h (3 Bft) 100,00 %
26.11.2017 01:08 4,8 C 5,0 C 91 % 1016,1 hPa 0,0 l/m 9,2 km/h (2 Bft) W-NW 284 0 min 0,000 mm 0,0 UV-I 0 W/m 3,5 C 2,4 C 16,1 km/h (3 Bft) 100,00 %
26.11.2017 01:10 4,7 C 5,0 C 91 % 1016,2 hPa 0,0 l/m 10,8 km/h (2 Bft) W 259 0 min 0,000 mm 0,0 UV-I 0 W/m 3,4 C 1,2 C 14,5 km/h (3 Bft) 98,00 %
26.11.2017 01:12 4,7 C 5,0 C 91 % 1016,2 hPa 0,0 l/m 10,2 km/h (2 Bft) SW 219 0 min 0,000 mm 0,0 UV-I 0 W/m 3,4 C 1,6 C 16,1 km/h (3 Bft) 100,00 %
26.11.2017 01:14 4,8 C 5,0 C 91 % 1016,2 hPa 0,0 l/m 12,1 km/h (2 Bft) SW 229 0 min 0,000 mm 0,0 UV-I 0 W/m 3,5 C 0,5 C 14,5 km/h (3 Bft) 96,23 %
26.11.2017 01:16 4,8 C 5,0 C 90 % 1016,2 hPa 0,0 l/m 13,6 km/h (3 Bft) W-NW 286 0 min 0,000 mm 0,0 UV-I 0 W/m 3,3 C -0,4 C 19,3 km/h (3 Bft) 97,56 %
26.11.2017 01:18 4,8 C 5,0 C 90 % 1016,2 hPa 0,0 l/m 10,8 km/h (2 Bft) W 265 0 min 0,000 mm 0,0 UV-I 0 W/m 3,3 C 1,3 C 12,9 km/h (3 Bft) 100,00 %
26.11.2017 01:20 4,8 C 5,0 C 90 % 1016,3 hPa 0,0 l/m 11,9 km/h (2 Bft) W-SW 254 0 min 0,000 mm 0,0 UV-I 0 W/m 3,3 C 0,6 C 16,1 km/h (3 Bft) 97,73 %
26.11.2017 01:23 4,8 C 5,0 C 90 % 1016,3 hPa 0,0 l/m 9,4 km/h (2 Bft) W 276 0 min 0,000 mm 0,0 UV-I 0 W/m 3,3 C 2,3 C 14,5 km/h (3 Bft) 98,57 %
26.11.2017 01:24 4,7 C 5,0 C 90 % 1016,3 hPa 0,0 l/m 12,8 km/h (3 Bft) W-SW 239 0 min 0,000 mm 0,0 UV-I 0 W/m 3,2 C -0,1 C 16,1 km/h (3 Bft) 96,30 %
26.11.2017 01:26 4,7 C 5,0 C 90 % 1016,4 hPa 0,0 l/m 12,7 km/h (3 Bft) W-SW 254 0 min 0,000 mm 0,0 UV-I 0 W/m 3,2 C -0,0 C 19,3 km/h (3 Bft) 97,73 %
26.11.2017 01:28 4,7 C 5,0 C 89 % 1016,4 hPa 0,0 l/m 12,4 km/h (3 Bft) W-SW 252 0 min 0,000 mm 0,0 UV-I 0 W/m 3,0 C 0,2 C 16,1 km/h (3 Bft) 97,56 %
26.11.2017 01:30 4,7 C 5,0 C 90 % 1016,4 hPa 0,0 l/m 13,3 km/h (3 Bft) W 276 0 min 0,000 mm 0,0 UV-I 0 W/m 3,2 C -0,4 C 20,9 km/h (4 Bft) 96,00 %
26.11.2017 01:32 4,8 C 5,0 C 90 % 1016,5 hPa 0,0 l/m 8,5 km/h (2 Bft) W-SW 242 0 min 0,000 mm 0,0 UV-I 0 W/m 3,3 C 3,0 C 12,9 km/h (3 Bft) 95,74 %
26.11.2017 01:34 4,7 C 5,0 C 90 % 1016,5 hPa 0,0 l/m 10,1 km/h (2 Bft) W-SW 250 0 min 0,000 mm 0,0 UV-I 0 W/m 3,2 C 1,7 C 16,1 km/h (3 Bft) 97,73 %
26.11.2017 01:36 4,7 C 5,0 C 90 % 1016,5 hPa 0,0 l/m 11,3 km/h (2 Bft) W-SW 238 0 min 0,000 mm 0,0 UV-I 0 W/m 3,2 C 0,9 C 16,1 km/h (3 Bft) 98,21 %
26.11.2017 01:38 4,7 C 5,0 C 90 % 1016,6 hPa 0,0 l/m 12,3 km/h (3 Bft) SW 230 0 min 0,000 mm 0,0 UV-I 0 W/m 3,2 C 0,2 C 17,7 km/h (3 Bft) 96,00 %
26.11.2017 01:40 4,7 C 5,0 C 90 % 1016,6 hPa 0,0 l/m 10,0 km/h (2 Bft) W-SW 248 0 min 0,000 mm 0,0 UV-I 0 W/m 3,2 C 1,7 C 14,5 km/h (3 Bft) 97,37 %
26.11.2017 01:42 4,7 C 5,0 C 90 % 1016,6 hPa 0,0 l/m 16,8 km/h (3 Bft) W-SW 244 0 min 0,000 mm 0,0 UV-I 0 W/m 3,2 C -2,2 C 22,5 km/h (4 Bft) 98,00 %
26.11.2017 01:44 4,7 C 5,0 C 90 % 1016,6 hPa 0,0 l/m 12,6 km/h (3 Bft) SW 230 0 min 0,000 mm 0,0 UV-I 0 W/m 3,2 C 0,0 C 17,7 km/h (3 Bft) 95,74 %
26.11.2017 01:46 4,7 C 5,0 C 90 % 1016,6 hPa 0,0 l/m 17,3 km/h (3 Bft) SW 222 0 min 0,000 mm 0,0 UV-I 0 W/m 3,2 C -2,4 C 22,5 km/h (4 Bft) 97,62 %
26.11.2017 01:48 4,7 C 5,0 C 90 % 1016,6 hPa 0,0 l/m 12,6 km/h (3 Bft) W-SW 251 0 min 0,000 mm 0,0 UV-I 0 W/m 3,2 C 0,0 C 17,7 km/h (3 Bft) 98,21 %
26.11.2017 01:50 4,7 C 5,0 C 89 % 1016,5 hPa 0,0 l/m 12,7 km/h (3 Bft) W 266 0 min 0,000 mm 0,0 UV-I 0 W/m 3,0 C -0,0 C 17,7 km/h (3 Bft) 95,45 %
26.11.2017 01:52 4,7 C 5,0 C 89 % 1016,6 hPa 0,0 l/m 14,3 km/h (3 Bft) W-SW 238 0 min 0,000 mm 0,0 UV-I 0 W/m 3,0 C -0,9 C 22,5 km/h (4 Bft) 97,56 %
26.11.2017 01:54 4,7 C 5,0 C 89 % 1016,6 hPa 0,0 l/m 13,1 km/h (3 Bft) W-SW 243 0 min 0,000 mm 0,0 UV-I 0 W/m 3,0 C -0,2 C 19,3 km/h (3 Bft) 98,00 %
26.11.2017 01:56 4,7 C 5,0 C 89 % 1016,6 hPa 0,0 l/m 16,9 km/h (3 Bft) W-SW 253 0 min 0,000 mm 0,0 UV-I 0 W/m 3,0 C -2,2 C 24,1 km/h (4 Bft) 96,08 %
26.11.2017 01:58 4,7 C 5,0 C 88 % 1016,7 hPa 0,0 l/m 14,4 km/h (3 Bft) W-NW 286 0 min 0,000 mm 0,0 UV-I 0 W/m 2,9 C -1,0 C 19,3 km/h (3 Bft) 97,37 %
26.11.2017 02:00 4,7 C 5,0 C 88 % 1016,7 hPa 0,0 l/m 13,7 km/h (3 Bft) W-SW 245 0 min 0,000 mm 0,0 UV-I 0 W/m 2,9 C -0,6 C 17,7 km/h (3 Bft) 100,00 %
26.11.2017 02:02 4,7 C 5,0 C 88 % 1016,6 hPa 0,0 l/m 11,7 km/h (2 Bft) W-SW 250 0 min 0,000 mm 0,0 UV-I 0 W/m 2,9 C 0,6 C 19,3 km/h (3 Bft) 98,00 %
26.11.2017 02:04 4,6 C 5,0 C 89 % 1016,6 hPa 0,0 l/m 9,1 km/h (2 Bft) S-SW 207 0 min 0,000 mm 0,0 UV-I 0 W/m 2,9 C 2,3 C 14,5 km/h (3 Bft) 100,00 %
26.11.2017 02:06 4,6 C 5,0 C 89 % 1016,6 hPa 0,0 l/m 9,1 km/h (2 Bft) W 269 0 min 0,000 mm 0,0 UV-I 0 W/m 2,9 C 2,3 C 14,5 km/h (3 Bft) 100,00 %
26.11.2017 02:08 4,5 C 5,0 C 89 % 1016,7 hPa 0,0 l/m 13,9 km/h (3 Bft) W-SW 239 0 min 0,000 mm 0,0 UV-I 0 W/m 2,8 C -0,9 C 20,9 km/h (4 Bft) 100,00 %
26.11.2017 02:10 4,5 C 5,0 C 89 % 1016,6 hPa 0,0 l/m 13,7 km/h (3 Bft) SW 225 0 min 0,000 mm 0,0 UV-I 0 W/m 2,8 C -0,8 C 20,9 km/h (4 Bft) 100,00 %
26.11.2017 02:12 4,5 C 5,0 C 89 % 1016,7 hPa 0,0 l/m 10,3 km/h (2 Bft) S-SW 207 0 min 0,000 mm 0,0 UV-I 0 W/m 2,8 C 1,3 C 17,7 km/h (3 Bft) 100,00 %
26.11.2017 02:14 4,4 C 5,0 C 90 % 1016,7 hPa 0,0 l/m 15,3 km/h (3 Bft) W-SW 242 0 min 0,000 mm 0,0 UV-I 0 W/m 2,9 C -1,8 C 22,5 km/h (4 Bft) 100,00 %
26.11.2017 02:16 4,4 C 5,0 C 90 % 1016,7 hPa 0,0 l/m 11,0 km/h (2 Bft) SW 223 0 min 0,000 mm 0,0 UV-I 0 W/m 2,9 C 0,7 C 19,3 km/h (3 Bft) 100,00 %
26.11.2017 02:18 4,4 C 5,0 C 90 % 1016,7 hPa 0,0 l/m 13,5 km/h (3 Bft) W-SW 239 0 min 0,000 mm 0,0 UV-I 0 W/m 2,9 C -0,8 C 17,7 km/h (3 Bft) 100,00 %
26.11.2017 02:20 4,4 C 5,0 C 90 % 1016,8 hPa 0,0 l/m 9,9 km/h (2 Bft) SW 230 0 min 0,000 mm 0,0 UV-I 0 W/m 2,9 C 1,5 C 14,5 km/h (3 Bft) 100,00 %
26.11.2017 02:22 4,4 C 5,0 C 90 % 1016,9 hPa 0,0 l/m 11,8 km/h (2 Bft) W-SW 257 0 min 0,000 mm 0,0 UV-I 0 W/m 2,9 C 0,2 C 17,7 km/h (3 Bft) 100,00 %
26.11.2017 02:24 4,4 C 5,0 C 90 % 1016,9 hPa 0,0 l/m 11,4 km/h (2 Bft) W 269 0 min 0,000 mm 0,0 UV-I 0 W/m 2,9 C 0,4 C 16,1 km/h (3 Bft) 98,08 %
26.11.2017 02:26 4,4 C 5,0 C 90 % 1016,9 hPa 0,0 l/m 13,0 km/h (3 Bft) W-SW 254 0 min 0,000 mm 0,0 UV-I 0 W/m 2,9 C -0,5 C 17,7 km/h (3 Bft) 100,00 %
26.11.2017 02:28 4,4 C 5,0 C 90 % 1016,9 hPa 0,0 l/m 9,7 km/h (2 Bft) W-SW 256 0 min 0,000 mm 0,0 UV-I 0 W/m 2,9 C 1,6 C 12,9 km/h (3 Bft) 100,00 %
26.11.2017 02:30 4,3 C 5,0 C 90 % 1017,0 hPa 0,0 l/m 9,4 km/h (2 Bft) SW 225 0 min 0,000 mm 0,0 UV-I 0 W/m 2,8 C 1,7 C 17,7 km/h (3 Bft) 100,00 %
26.11.2017 02:32 4,3 C 5,0 C 90 % 1017,0 hPa 0,0 l/m 9,9 km/h (2 Bft) W-SW 238 0 min 0,000 mm 0,0 UV-I 0 W/m 2,8 C 1,4 C 14,5 km/h (3 Bft) 100,00 %
26.11.2017 02:34 4,3 C 5,0 C 90 % 1017,0 hPa 0,0 l/m 11,4 km/h (2 Bft) W-SW 246 0 min 0,000 mm 0,0 UV-I 0 W/m 2,8 C 0,3 C 16,1 km/h (3 Bft) 100,00 %
26.11.2017 02:36 4,3 C 5,0 C 90 % 1017,1 hPa 0,0 l/m 10,5 km/h (2 Bft) SW 227 0 min 0,000 mm 0,0 UV-I 0 W/m 2,8 C 0,9 C 14,5 km/h (3 Bft) 100,00 %
26.11.2017 02:38 4,3 C 5,0 C 90 % 1017,1 hPa 0,0 l/m 10,2 km/h (2 Bft) SW 219 0 min 0,000 mm 0,0 UV-I 0 W/m 2,8 C 1,2 C 14,5 km/h (3 Bft) 100,00 %
26.11.2017 02:40 4,3 C 5,0 C 90 % 1017,1 hPa 0,0 l/m 11,5 km/h (2 Bft) SW 233 0 min 0,000 mm 0,0 UV-I 0 W/m 2,8 C 0,3 C 16,1 km/h (3 Bft) 100,00 %
26.11.2017 02:42 4,3 C 5,0 C 90 % 1017,2 hPa 0,0 l/m 10,5 km/h (2 Bft) W-SW 250 0 min 0,000 mm 0,0 UV-I 0 W/m 2,8 C 0,9 C 14,5 km/h (3 Bft) 98,11 %
26.11.2017 02:44 4,3 C 5,0 C 91 % 1017,2 hPa 0,0 l/m 11,1 km/h (2 Bft) W 269 0 min 0,000 mm 0,0 UV-I 0 W/m 3,0 C 0,5 C 17,7 km/h (3 Bft) 100,00 %
26.11.2017 02:46 4,3 C 5,0 C 91 % 1017,2 hPa 0,0 l/m 11,0 km/h (2 Bft) W-SW 254 0 min 0,000 mm 0,0 UV-I 0 W/m 3,0 C 0,6 C 14,5 km/h (3 Bft) 100,00 %
26.11.2017 02:48 4,2 C 5,0 C 91 % 1017,2 hPa 0,0 l/m 11,3 km/h (2 Bft) W 264 0 min 0,000 mm 0,0 UV-I 0 W/m 2,9 C 0,3 C 20,9 km/h (4 Bft) 100,00 %
26.11.2017 02:50 4,2 C 5,0 C 91 % 1017,2 hPa 0,0 l/m 12,5 km/h (3 Bft) W 270 0 min 0,000 mm 0,0 UV-I 0 W/m 2,9 C -0,5 C 20,9 km/h (4 Bft) 94,74 %
26.11.2017 02:52 4,2 C 5,0 C 91 % 1017,2 hPa 0,0 l/m 11,9 km/h (2 Bft) W 262 0 min 0,000 mm 0,0 UV-I 0 W/m 2,9 C -0,1 C 17,7 km/h (3 Bft) 98,00 %
26.11.2017 02:54 4,2 C 5,0 C 91 % 1017,2 hPa 0,0 l/m 10,1 km/h (2 Bft) W 268 0 min 0,000 mm 0,0 UV-I 0 W/m 2,9 C 1,1 C 14,5 km/h (3 Bft) 97,87 %
26.11.2017 02:56 4,2 C 5,0 C 91 % 1017,2 hPa 0,0 l/m 9,9 km/h (2 Bft) W 272 0 min 0,000 mm 0,0 UV-I 0 W/m 2,9 C 1,3 C 17,7 km/h (3 Bft) 96,23 %
26.11.2017 02:58 4,2 C 5,0 C 91 % 1017,2 hPa 0,0 l/m 10,4 km/h (2 Bft) W 264 0 min 0,000 mm 0,0 UV-I 0 W/m 2,9 C 0,9 C 16,1 km/h (3 Bft) 97,37 %
26.11.2017 03:00 4,2 C 5,0 C 91 % 1017,2 hPa 0,0 l/m 9,0 km/h (2 Bft) W-SW 253 0 min 0,000 mm 0,0 UV-I 0 W/m 2,9 C 1,9 C 12,9 km/h (3 Bft) 98,00 %
26.11.2017 03:02 4,2 C 5,0 C 92 % 1017,2 hPa 0,0 l/m 11,7 km/h (2 Bft) W-SW 255 0 min 0,000 mm 0,0 UV-I 0 W/m 3,0 C 0,0 C 19,3 km/h (3 Bft) 97,73 %
26.11.2017 03:04 4,1 C 5,0 C 92 % 1017,2 hPa 0,0 l/m 9,9 km/h (2 Bft) W-SW 254 0 min 0,000 mm 0,0 UV-I 0 W/m 2,9 C 1,2 C 14,5 km/h (3 Bft) 96,23 %
26.11.2017 03:06 4,1 C 5,0 C 92 % 1017,2 hPa 0,0 l/m 8,8 km/h (2 Bft) W-SW 257 0 min 0,000 mm 0,0 UV-I 0 W/m 2,9 C 2,0 C 12,9 km/h (3 Bft) 97,44 %
26.11.2017 03:08 4,1 C 5,0 C 92 % 1017,2 hPa 0,0 l/m 12,4 km/h (3 Bft) W 265 0 min 0,000 mm 0,0 UV-I 0 W/m 2,9 C -0,5 C 24,1 km/h (4 Bft) 96,23 %
26.11.2017 03:10 4,2 C 5,0 C 91 % 1017,2 hPa 0,0 l/m 13,9 km/h (3 Bft) W-SW 251 0 min 0,000 mm 0,0 UV-I 0 W/m 2,9 C -1,3 C 17,7 km/h (3 Bft) 97,37 %
26.11.2017 03:12 4,2 C 5,0 C 91 % 1017,2 hPa 0,0 l/m 13,0 km/h (3 Bft) SW 236 0 min 0,000 mm 0,0 UV-I 0 W/m 2,9 C -0,8 C 19,3 km/h (3 Bft) 98,11 %
26.11.2017 03:14 4,2 C 5,0 C 91 % 1017,3 hPa 0,0 l/m 11,7 km/h (2 Bft) W-SW 254 0 min 0,000 mm 0,0 UV-I 0 W/m 2,9 C 0,0 C 14,5 km/h (3 Bft) 97,87 %
26.11.2017 03:16 4,2 C 5,0 C 91 % 1017,4 hPa 0,0 l/m 11,9 km/h (2 Bft) W-NW 293 0 min 0,000 mm 0,0 UV-I 0 W/m 2,9 C -0,1 C 20,9 km/h (4 Bft) 100,00 %
26.11.2017 03:18 4,2 C 5,0 C 91 % 1017,4 hPa 0,0 l/m 16,1 km/h (3 Bft) W-SW 240 0 min 0,000 mm 0,0 UV-I 0 W/m 2,9 C -2,5 C 20,9 km/h (4 Bft) 92,68 %
26.11.2017 03:20 4,3 C 5,0 C 90 % 1017,4 hPa 0,0 l/m 15,7 km/h (3 Bft) W 269 0 min 0,000 mm 0,0 UV-I 0 W/m 2,8 C -2,1 C 27,4 km/h (4 Bft) 96,23 %
26.11.2017 03:22 4,3 C 5,0 C 90 % 1017,5 hPa 0,0 l/m 16,3 km/h (3 Bft) W 280 0 min 0,000 mm 0,0 UV-I 0 W/m 2,8 C -2,4 C 27,4 km/h (4 Bft) 94,74 %
26.11.2017 03:24 4,3 C 5,0 C 90 % 1017,5 hPa 0,0 l/m 18,9 km/h (3 Bft) W 262 0 min 0,000 mm 0,0 UV-I 0 W/m 2,8 C -3,6 C 29,0 km/h (5 Bft) 96,23 %
26.11.2017 03:26 4,3 C 5,0 C 89 % 1017,6 hPa 0,0 l/m 16,8 km/h (3 Bft) W-SW 257 0 min 0,000 mm 0,0 UV-I 0 W/m 2,7 C -2,7 C 27,4 km/h (4 Bft) 97,56 %
26.11.2017 03:28 4,3 C 5,0 C 89 % 1017,6 hPa 0,0 l/m 15,5 km/h (3 Bft) W 272 0 min 0,000 mm 0,0 UV-I 0 W/m 2,7 C -2,0 C 27,4 km/h (4 Bft) 93,62 %
26.11.2017 03:30 4,3 C 5,0 C 89 % 1017,6 hPa 0,0 l/m 16,1 km/h (3 Bft) W-SW 258 0 min 0,000 mm 0,0 UV-I 0 W/m 2,7 C -2,3 C 24,1 km/h (4 Bft) 98,11 %
26.11.2017 03:32 4,2 C 5,0 C 89 % 1017,6 hPa 0,0 l/m 12,1 km/h (2 Bft) W 265 0 min 0,000 mm 0,0 UV-I 0 W/m 2,6 C -0,2 C 16,1 km/h (3 Bft) 94,87 %
26.11.2017 03:34 4,2 C 5,0 C 89 % 1017,6 hPa 0,0 l/m 12,7 km/h (3 Bft) W-SW 253 0 min 0,000 mm 0,0 UV-I 0 W/m 2,6 C -0,6 C 19,3 km/h (3 Bft) 95,45 %
26.11.2017 03:36 4,2 C 5,0 C 89 % 1017,6 hPa 0,0 l/m 13,1 km/h (3 Bft) W 263 0 min 0,000 mm 0,0 UV-I 0 W/m 2,6 C -0,8 C 16,1 km/h (3 Bft) 96,61 %
26.11.2017 03:38 4,2 C 5,0 C 89 % 1017,7 hPa 0,0 l/m 14,2 km/h (3 Bft) W 267 0 min 0,000 mm 0,0 UV-I 0 W/m 2,6 C -1,5 C 20,9 km/h (4 Bft) 95,45 %
26.11.2017 03:40 4,2 C 5,0 C 89 % 1017,7 hPa 0,0 l/m 9,4 km/h (2 Bft) W-SW 258 0 min 0,000 mm 0,0 UV-I 0 W/m 2,6 C 1,6 C 14,5 km/h (3 Bft) 94,00 %
26.11.2017 03:42 4,1 C 5,0 C 89 % 1017,7 hPa 0,0 l/m 13,0 km/h (3 Bft) W 260 0 min 0,000 mm 0,0 UV-I 0 W/m 2,5 C -0,9 C 22,5 km/h (4 Bft) 95,74 %
26.11.2017 03:44 4,1 C 5,0 C 89 % 1017,7 hPa 0,0 l/m 11,0 km/h (2 Bft) W-NW 285 0 min 0,000 mm 0,0 UV-I 0 W/m 2,5 C 0,4 C 19,3 km/h (3 Bft) 92,68 %
26.11.2017 03:46 4,1 C 5,0 C 89 % 1017,7 hPa 0,0 l/m 10,1 km/h (2 Bft) W 273 0 min 0,000 mm 0,0 UV-I 0 W/m 2,5 C 1,0 C 14,5 km/h (3 Bft) 95,56 %
26.11.2017 03:48 4,0 C 5,0 C 88 % 1017,6 hPa 0,0 l/m 13,5 km/h (3 Bft) W-NW 298 0 min 0,000 mm 0,0 UV-I 0 W/m 2,2 C -1,3 C 25,7 km/h (4 Bft) 94,34 %
26.11.2017 03:50 3,9 C 5,0 C 88 % 1017,6 hPa 0,0 l/m 11,0 km/h (2 Bft) W 269 0 min 0,000 mm 0,0 UV-I 0 W/m 2,1 C 0,1 C 19,3 km/h (3 Bft) 95,12 %
26.11.2017 03:52 3,9 C 5,0 C 88 % 1017,6 hPa 0,0 l/m 11,2 km/h (2 Bft) SW 234 0 min 0,000 mm 0,0 UV-I 0 W/m 2,1 C 0,0 C 24,1 km/h (4 Bft) 95,45 %
26.11.2017 03:54 3,8 C 5,0 C 89 % 1017,7 hPa 0,0 l/m 11,3 km/h (2 Bft) N-NW 331 0 min 0,000 mm 0,0 UV-I 0 W/m 2,2 C -0,2 C 19,3 km/h (3 Bft) 98,00 %
26.11.2017 03:56 3,8 C 5,0 C 88 % 1017,7 hPa 0,0 l/m 14,7 km/h (3 Bft) W 272 0 min 0,000 mm 0,0 UV-I 0 W/m 2,0 C -2,2 C 27,4 km/h (4 Bft) 97,87 %
26.11.2017 03:58 3,8 C 5,0 C 88 % 1017,7 hPa 0,0 l/m 10,2 km/h (2 Bft) NW 309 0 min 0,000 mm 0,0 UV-I 0 W/m 2,0 C 0,6 C 16,1 km/h (3 Bft) 96,00 %
26.11.2017 04:00 3,8 C 5,0 C 88 % 1017,8 hPa 0,0 l/m 13,6 km/h (3 Bft) W 265 0 min 0,025 mm 0,0 UV-I 0 W/m 2,0 C -1,6 C 22,5 km/h (4 Bft) 97,73 %
26.11.2017 04:02 3,7 C 5,0 C 88 % 1017,8 hPa 0,0 l/m 10,1 km/h (2 Bft) W 280 0 min 0,000 mm 0,0 UV-I 0 W/m 1,9 C 0,6 C 17,7 km/h (3 Bft) 96,43 %
26.11.2017 04:04 3,7 C 5,0 C 88 % 1017,9 hPa 0,0 l/m 12,2 km/h (2 Bft) W 263 0 min 0,000 mm 0,0 UV-I 0 W/m 1,9 C -0,9 C 17,7 km/h (3 Bft) 96,43 %
26.11.2017 04:06 3,7 C 5,0 C 88 % 1017,9 hPa 0,0 l/m 11,1 km/h (2 Bft) W-SW 245 0 min 0,000 mm 0,0 UV-I 0 W/m 1,9 C -0,1 C 19,3 km/h (3 Bft) 96,15 %
26.11.2017 04:08 3,7 C 5,0 C 87 % 1018,0 hPa 0,0 l/m 18,3 km/h (3 Bft) W 260 0 min 0,000 mm 0,0 UV-I 0 W/m 1,7 C -4,1 C 25,7 km/h (4 Bft) 98,21 %
26.11.2017 04:10 3,7 C 5,0 C 86 % 1018,0 hPa 0,0 l/m 15,3 km/h (3 Bft) SW 235 0 min 0,000 mm 0,0 UV-I 0 W/m 1,6 C -2,7 C 27,4 km/h (4 Bft) 100,00 %
26.11.2017 04:12 3,7 C 5,0 C 85 % 1018,0 hPa 0,0 l/m 15,5 km/h (3 Bft) W 271 0 min 0,000 mm 0,0 UV-I 0 W/m 1,4 C -2,8 C 24,1 km/h (4 Bft) 100,00 %
26.11.2017 04:14 3,7 C 5,0 C 85 % 1018,1 hPa 0,0 l/m 12,7 km/h (3 Bft) W-SW 243 0 min 0,000 mm 0,0 UV-I 0 W/m 1,4 C -1,2 C 20,9 km/h (4 Bft) 97,87 %
26.11.2017 04:16 3,6 C 5,0 C 85 % 1018,3 hPa 0,0 l/m 13,7 km/h (3 Bft) W 277 0 min 0,000 mm 0,0 UV-I 0 W/m 1,3 C -1,9 C 24,1 km/h (4 Bft) 100,00 %
26.11.2017 04:18 3,6 C 5,0 C 85 % 1018,4 hPa 0,0 l/m 15,7 km/h (3 Bft) W 266 0 min 0,000 mm 0,0 UV-I 0 W/m 1,3 C -3,0 C 25,7 km/h (4 Bft) 100,00 %
26.11.2017 04:20 3,6 C 5,0 C 85 % 1018,4 hPa 0,0 l/m 10,1 km/h (2 Bft) W-NW 282 0 min 0,000 mm 0,0 UV-I 0 W/m 1,3 C 0,5 C 16,1 km/h (3 Bft) 100,00 %
26.11.2017 04:22 3,5 C 5,0 C 86 % 1018,4 hPa 0,0 l/m 10,6 km/h (2 Bft) W 271 0 min 0,000 mm 0,0 UV-I 0 W/m 1,4 C -0,0 C 19,3 km/h (3 Bft) 100,00 %
26.11.2017 04:24 3,4 C 5,0 C 86 % 1018,4 hPa 0,0 l/m 16,9 km/h (3 Bft) W 259 0 min 0,000 mm 0,0 UV-I 0 W/m 1,3 C -3,8 C 29,0 km/h (5 Bft) 100,00 %
26.11.2017 04:26 3,4 C 5,0 C 86 % 1018,4 hPa 0,0 l/m 16,4 km/h (3 Bft) W 278 0 min 0,000 mm 0,0 UV-I 0 W/m 1,3 C -3,6 C 24,1 km/h (4 Bft) 97,56 %
26.11.2017 04:28 3,4 C 5,0 C 86 % 1018,5 hPa 0,0 l/m 14,9 km/h (3 Bft) W 261 0 min 0,000 mm 0,0 UV-I 0 W/m 1,3 C -2,8 C 27,4 km/h (4 Bft) 100,00 %
26.11.2017 04:30 3,4 C 5,0 C 86 % 1018,5 hPa 0,0 l/m 13,6 km/h (3 Bft) W-SW 245 0 min 0,000 mm 0,0 UV-I 0 W/m 1,3 C -2,1 C 29,0 km/h (5 Bft) 100,00 %
26.11.2017 04:32 3,4 C 5,0 C 86 % 1018,6 hPa 0,0 l/m 10,7 km/h (2 Bft) W 266 0 min 0,000 mm 0,0 UV-I 0 W/m 1,3 C -0,2 C 19,3 km/h (3 Bft) 100,00 %
26.11.2017 04:34 3,3 C 5,0 C 86 % 1018,6 hPa 0,0 l/m 13,0 km/h (3 Bft) W 267 0 min 0,000 mm 0,0 UV-I 0 W/m 1,2 C -1,8 C 19,3 km/h (3 Bft) 100,00 %
26.11.2017 04:36 3,3 C 5,0 C 86 % 1018,7 hPa 0,0 l/m 11,5 km/h (2 Bft) NW 309 0 min 0,000 mm 0,0 UV-I 0 W/m 1,2 C -0,9 C 17,7 km/h (3 Bft) 97,56 %
26.11.2017 04:38 3,3 C 5,0 C 86 % 1018,7 hPa 0,0 l/m 11,7 km/h (2 Bft) NW 305 0 min 0,000 mm 0,0 UV-I 0 W/m 1,2 C -1,0 C 17,7 km/h (3 Bft) 100,00 %
26.11.2017 04:40 3,2 C 5,0 C 87 % 1018,7 hPa 0,0 l/m 11,7 km/h (2 Bft) W-NW 286 0 min 0,000 mm 0,0 UV-I 0 W/m 1,2 C -1,1 C 16,1 km/h (3 Bft) 100,00 %
26.11.2017 04:42 3,2 C 5,0 C 87 % 1018,7 hPa 0,0 l/m 7,5 km/h (2 Bft) W 272 0 min 0,000 mm 0,0 UV-I 0 W/m 1,2 C 2,2 C 14,5 km/h (3 Bft) 100,00 %
26.11.2017 04:44 3,2 C 5,0 C 87 % 1018,7 hPa 0,0 l/m 12,1 km/h (2 Bft) W 259 0 min 0,000 mm 0,0 UV-I 0 W/m 1,2 C -1,4 C 20,9 km/h (4 Bft) 100,00 %
26.11.2017 04:46 3,1 C 5,0 C 87 % 1018,7 hPa 0,0 l/m 8,8 km/h (2 Bft) W-SW 254 0 min 0,000 mm 0,0 UV-I 0 W/m 1,2 C 0,9 C 14,5 km/h (3 Bft) 98,00 %
26.11.2017 04:48 3,1 C 5,0 C 87 % 1018,7 hPa 0,0 l/m 9,3 km/h (2 Bft) W-NW 289 0 min 0,000 mm 0,0 UV-I 0 W/m 1,2 C 0,5 C 17,7 km/h (3 Bft) 100,00 %
26.11.2017 04:50 3,1 C 5,0 C 87 % 1018,6 hPa 0,0 l/m 9,5 km/h (2 Bft) NW 309 0 min 0,000 mm 0,0 UV-I 0 W/m 1,2 C 0,4 C 25,7 km/h (4 Bft) 100,00 %
26.11.2017 04:52 3,1 C 5,0 C 87 % 1018,6 hPa 0,0 l/m 10,5 km/h (2 Bft) W-SW 252 0 min 0,000 mm 0,0 UV-I 0 W/m 1,2 C -0,4 C 16,1 km/h (3 Bft) 100,00 %
26.11.2017 04:54 3,1 C 5,0 C 86 % 1018,6 hPa 0,0 l/m 7,9 km/h (2 Bft) W 262 0 min 0,000 mm 0,0 UV-I 0 W/m 1,0 C 1,7 C 17,7 km/h (3 Bft) 97,56 %
26.11.2017 04:56 3,1 C 5,0 C 86 % 1018,7 hPa 0,0 l/m 10,2 km/h (2 Bft) W-SW 248 0 min 0,000 mm 0,0 UV-I 0 W/m 1,0 C -0,2 C 16,1 km/h (3 Bft) 100,00 %
26.11.2017 04:58 3,1 C 5,0 C 86 % 1018,8 hPa 0,0 l/m 8,9 km/h (2 Bft) W-SW 257 0 min 0,000 mm 0,0 UV-I 0 W/m 1,0 C 0,8 C 16,1 km/h (3 Bft) 100,00 %
26.11.2017 05:00 3,0 C 5,0 C 86 % 1018,7 hPa 0,0 l/m 6,0 km/h (2 Bft) W 269 0 min 0,000 mm 0,0 UV-I 0 W/m 0,9 C 3,0 C 9,7 km/h (2 Bft) 98,00 %
26.11.2017 05:02 3,0 C 5,0 C 86 % 1018,7 hPa 0,0 l/m 11,1 km/h (2 Bft) W-SW 242 0 min 0,026 mm 0,0 UV-I 0 W/m 0,9 C -0,9 C 17,7 km/h (3 Bft) 100,00 %
26.11.2017 05:04 3,0 C 5,0 C 86 % 1018,9 hPa 0,0 l/m 9,8 km/h (2 Bft) W 273 0 min 0,000 mm 0,0 UV-I 0 W/m 0,9 C 0,0 C 17,7 km/h (3 Bft) 100,00 %
26.11.2017 05:06 3,0 C 5,0 C 86 % 1019,0 hPa 0,0 l/m 6,6 km/h (2 Bft) W 273 0 min 0,000 mm 0,0 UV-I 0 W/m 0,9 C 2,8 C 16,1 km/h (3 Bft) 95,74 %
26.11.2017 05:08 2,9 C 5,0 C 86 % 1019,0 hPa 0,0 l/m 8,6 km/h (2 Bft) W 264 0 min 0,000 mm 0,0 UV-I 0 W/m 0,8 C 0,9 C 14,5 km/h (3 Bft) 96,23 %
26.11.2017 05:10 2,9 C 5,0 C 86 % 1019,1 hPa 0,0 l/m 10,8 km/h (2 Bft) W 275 0 min 0,000 mm 0,0 UV-I 0 W/m 0,8 C -0,8 C 16,1 km/h (3 Bft) 100,00 %
26.11.2017 05:12 2,9 C 5,0 C 86 % 1019,2 hPa 0,0 l/m 6,8 km/h (2 Bft) W 280 0 min 0,000 mm 0,0 UV-I 0 W/m 0,8 C 2,5 C 12,9 km/h (3 Bft) 100,00 %
26.11.2017 05:14 2,9 C 5,0 C 86 % 1019,2 hPa 0,0 l/m 8,5 km/h (2 Bft) W-NW 284 0 min 0,000 mm 0,0 UV-I 0 W/m 0,8 C 1,0 C 16,1 km/h (3 Bft) 100,00 %
26.11.2017 05:16 2,9 C 5,0 C 86 % 1019,1 hPa 0,0 l/m 10,9 km/h (2 Bft) W 275 0 min 0,000 mm 0,0 UV-I 0 W/m 0,8 C -0,9 C 19,3 km/h (3 Bft) 97,06 %
26.11.2017 05:18 2,9 C 5,0 C 85 % 1019,1 hPa 0,0 l/m 12,4 km/h (3 Bft) W-SW 244 0 min 0,000 mm 0,0 UV-I 0 W/m 0,6 C -1,9 C 20,9 km/h (4 Bft) 100,00 %
26.11.2017 05:20 2,9 C 5,0 C 86 % 1019,1 hPa 0,0 l/m 5,5 km/h (1 Bft) W 271 0 min 0,000 mm 0,0 UV-I 0 W/m 0,8 C 2,9 C 9,7 km/h (2 Bft) 98,11 %
26.11.2017 05:22 2,8 C 5,0 C 86 % 1019,2 hPa 0,0 l/m 11,7 km/h (2 Bft) W-NW 283 0 min 0,000 mm 0,0 UV-I 0 W/m 0,7 C -1,6 C 17,7 km/h (3 Bft) 100,00 %
26.11.2017 05:24 2,9 C 5,0 C 85 % 1019,3 hPa 0,0 l/m 10,9 km/h (2 Bft) W 266 0 min 0,000 mm 0,0 UV-I 0 W/m 0,6 C -0,9 C 14,5 km/h (3 Bft) 100,00 %
26.11.2017 05:26 2,9 C 5,0 C 85 % 1019,2 hPa 0,0 l/m 12,3 km/h (3 Bft) W-SW 256 0 min 0,000 mm 0,0 UV-I 0 W/m 0,6 C -1,9 C 20,9 km/h (4 Bft) 100,00 %
26.11.2017 05:28 2,8 C 5,0 C 86 % 1019,2 hPa 0,0 l/m 12,0 km/h (2 Bft) W-NW 292 0 min 0,000 mm 0,0 UV-I 0 W/m 0,7 C -1,8 C 17,7 km/h (3 Bft) 100,00 %
26.11.2017 05:30 2,8 C 5,0 C 86 % 1019,3 hPa 0,0 l/m 12,7 km/h (3 Bft) W-NW 289 0 min 0,000 mm 0,0 UV-I 0 W/m 0,7 C -2,2 C 22,5 km/h (4 Bft) 100,00 %
26.11.2017 05:32 2,8 C 5,0 C 85 % 1019,3 hPa 0,0 l/m 15,3 km/h (3 Bft) W 263 0 min 0,000 mm 0,0 UV-I 0 W/m 0,5 C -3,8 C 22,5 km/h (4 Bft) 97,37 %
26.11.2017 05:34 2,8 C 5,0 C 85 % 1019,4 hPa 0,0 l/m 15,8 km/h (3 Bft) W 277 0 min 0,000 mm 0,0 UV-I 0 W/m 0,5 C -4,0 C 27,4 km/h (4 Bft) 100,00 %
26.11.2017 05:36 2,9 C 5,0 C 85 % 1019,5 hPa 0,0 l/m 12,1 km/h (2 Bft) W-SW 251 0 min 0,000 mm 0,0 UV-I 0 W/m 0,6 C -1,7 C 19,3 km/h (3 Bft) 100,00 %
26.11.2017 05:38 2,8 C 5,0 C 85 % 1019,6 hPa 0,0 l/m 10,4 km/h (2 Bft) W-SW 257 0 min 0,000 mm 0,0 UV-I 0 W/m 0,5 C -0,7 C 16,1 km/h (3 Bft) 100,00 %
26.11.2017 05:40 2,8 C 5,0 C 85 % 1019,7 hPa 0,0 l/m 10,1 km/h (2 Bft) W 270 0 min 0,000 mm 0,0 UV-I 0 W/m 0,5 C -0,4 C 14,5 km/h (3 Bft) 97,87 %
26.11.2017 05:42 2,8 C 5,0 C 86 % 1019,8 hPa 0,0 l/m 12,1 km/h (2 Bft) W 272 0 min 0,000 mm 0,0 UV-I 0 W/m 0,7 C -1,8 C 20,9 km/h (4 Bft) 97,62 %
26.11.2017 05:44 2,8 C 5,0 C 86 % 1019,8 hPa 0,0 l/m 13,9 km/h (3 Bft) W 261 0 min 0,000 mm 0,0 UV-I 0 W/m 0,7 C -3,0 C 22,5 km/h (4 Bft) 95,45 %
26.11.2017 05:46 2,8 C 5,0 C 86 % 1019,7 hPa 0,0 l/m 12,4 km/h (3 Bft) W-NW 284 0 min 0,000 mm 0,0 UV-I 0 W/m 0,7 C -2,0 C 20,9 km/h (4 Bft) 98,31 %
26.11.2017 05:48 2,7 C 5,0 C 86 % 1019,7 hPa 0,0 l/m 12,3 km/h (3 Bft) W 272 0 min 0,000 mm 0,0 UV-I 0 W/m 0,6 C -2,1 C 17,7 km/h (3 Bft) 95,45 %
26.11.2017 05:50 2,7 C 5,0 C 86 % 1019,8 hPa 0,0 l/m 12,6 km/h (3 Bft) W 261 0 min 0,000 mm 0,0 UV-I 0 W/m 0,6 C -2,3 C 17,7 km/h (3 Bft) 97,73 %
26.11.2017 05:52 2,7 C 5,0 C 86 % 1019,8 hPa 0,0 l/m 9,6 km/h (2 Bft) W-SW 256 0 min 0,000 mm 0,0 UV-I 0 W/m 0,6 C -0,2 C 14,5 km/h (3 Bft) 95,45 %
26.11.2017 05:54 2,7 C 5,0 C 86 % 1019,8 hPa 0,0 l/m 10,3 km/h (2 Bft) W-SW 253 0 min 0,000 mm 0,0 UV-I 0 W/m 0,6 C -0,7 C 16,1 km/h (3 Bft) 97,37 %
26.11.2017 05:56 2,7 C 5,0 C 86 % 1019,8 hPa 0,0 l/m 10,6 km/h (2 Bft) W 272 0 min 0,000 mm 0,0 UV-I 0 W/m 0,6 C -0,9 C 16,1 km/h (3 Bft) 98,21 %
26.11.2017 05:58 2,7 C 5,0 C 87 % 1019,8 hPa 0,0 l/m 13,1 km/h (3 Bft) W-NW 288 0 min 0,000 mm 0,0 UV-I 0 W/m 0,8 C -2,6 C 19,3 km/h (3 Bft) 96,43 %
26.11.2017 06:00 2,7 C 5,0 C 86 % 1019,8 hPa 0,0 l/m 11,6 km/h (2 Bft) W 275 0 min 0,025 mm 0,0 UV-I 0 W/m 0,6 C -1,6 C 17,7 km/h (3 Bft) 97,56 %
26.11.2017 06:02 2,7 C 5,0 C 87 % 1019,8 hPa 0,0 l/m 11,3 km/h (2 Bft) W 259 0 min 0,000 mm 0,0 UV-I 0 W/m 0,8 C -1,4 C 20,9 km/h (4 Bft) 97,56 %
26.11.2017 06:04 2,7 C 5,0 C 87 % 1019,6 hPa 0,0 l/m 16,4 km/h (3 Bft) W-SW 252 0 min 0,000 mm 0,0 UV-I 0 W/m 0,8 C -4,5 C 22,5 km/h (4 Bft) 98,00 %
26.11.2017 06:06 2,7 C 5,0 C 87 % 1019,7 hPa 0,0 l/m 15,0 km/h (3 Bft) W-SW 257 0 min 0,000 mm 0,0 UV-I 0 W/m 0,8 C -3,7 C 33,8 km/h (5 Bft) 94,00 %
26.11.2017 06:08 2,7 C 5,0 C 87 % 1019,9 hPa 0,0 l/m 13,8 km/h (3 Bft) W-SW 248 0 min 0,000 mm 0,0 UV-I 0 W/m 0,8 C -3,0 C 25,7 km/h (4 Bft) 95,45 %
26.11.2017 06:10 2,7 C 5,0 C 87 % 1020,0 hPa 0,0 l/m 12,6 km/h (3 Bft) W-SW 251 0 min 0,000 mm 0,0 UV-I 0 W/m 0,8 C -2,3 C 17,7 km/h (3 Bft) 98,11 %
26.11.2017 06:12 2,7 C 5,0 C 87 % 1020,0 hPa 0,0 l/m 13,4 km/h (3 Bft) W-SW 258 0 min 0,000 mm 0,0 UV-I 0 W/m 0,8 C -2,8 C 19,3 km/h (3 Bft) 97,37 %
26.11.2017 06:14 2,6 C 5,0 C 87 % 1020,0 hPa 0,0 l/m 15,0 km/h (3 Bft) W-SW 253 0 min 0,000 mm 0,0 UV-I 0 W/m 0,7 C -3,8 C 25,7 km/h (4 Bft) 97,73 %
26.11.2017 06:16 2,6 C 5,0 C 87 % 1020,0 hPa 0,0 l/m 16,4 km/h (3 Bft) W-SW 249 0 min 0,000 mm 0,0 UV-I 0 W/m 0,7 C -4,6 C 25,7 km/h (4 Bft) 96,23 %
26.11.2017 06:18 2,6 C 5,0 C 87 % 1020,1 hPa 0,0 l/m 17,0 km/h (3 Bft) W 276 0 min 0,000 mm 0,0 UV-I 0 W/m 0,7 C -4,9 C 24,1 km/h (4 Bft) 95,45 %
26.11.2017 06:20 2,6 C 5,0 C 87 % 1020,2 hPa 0,0 l/m 13,0 km/h (3 Bft) W 275 0 min 0,000 mm 0,0 UV-I 0 W/m 0,7 C -2,7 C 17,7 km/h (3 Bft) 98,11 %
26.11.2017 06:22 2,6 C 5,0 C 86 % 1020,0 hPa 0,0 l/m 16,9 km/h (3 Bft) W-SW 252 0 min 0,000 mm 0,0 UV-I 0 W/m 0,5 C -4,8 C 27,4 km/h (4 Bft) 97,44 %
26.11.2017 06:24 2,6 C 5,0 C 86 % 1020,1 hPa 0,0 l/m 19,5 km/h (3 Bft) W 275 0 min 0,000 mm 0,0 UV-I 0 W/m 0,5 C -6,1 C 30,6 km/h (5 Bft) 100,00 %
26.11.2017 06:26 2,6 C 5,0 C 86 % 1020,2 hPa 0,0 l/m 15,5 km/h (3 Bft) W 278 0 min 0,000 mm 0,0 UV-I 0 W/m 0,5 C -4,1 C 25,7 km/h (4 Bft) 100,00 %
26.11.2017 06:28 2,7 C 5,0 C 85 % 1020,1 hPa 0,0 l/m 16,4 km/h (3 Bft) W 262 0 min 0,000 mm 0,0 UV-I 0 W/m 0,4 C -4,5 C 25,7 km/h (4 Bft) 98,00 %
26.11.2017 06:30 2,6 C 5,0 C 86 % 1020,2 hPa 0,0 l/m 13,3 km/h (3 Bft) W 271 0 min 0,000 mm 0,0 UV-I 0 W/m 0,5 C -2,8 C 22,5 km/h (4 Bft) 100,00 %
26.11.2017 06:32 2,6 C 5,0 C 86 % 1020,2 hPa 0,0 l/m 13,2 km/h (3 Bft) W 269 0 min 0,000 mm 0,0 UV-I 0 W/m 0,5 C -2,8 C 20,9 km/h (4 Bft) 95,12 %
26.11.2017 06:34 2,6 C 5,0 C 85 % 1020,2 hPa 0,0 l/m 13,3 km/h (3 Bft) W-NW 297 0 min 0,000 mm 0,0 UV-I 0 W/m 0,3 C -2,8 C 20,9 km/h (4 Bft) 95,12 %
26.11.2017 06:36 2,6 C 5,0 C 86 % 1020,2 hPa 0,0 l/m 11,7 km/h (2 Bft) W 276 0 min 0,000 mm 0,0 UV-I 0 W/m 0,5 C -1,8 C 22,5 km/h (4 Bft) 98,00 %
26.11.2017 06:38 2,6 C 5,0 C 86 % 1020,2 hPa 0,0 l/m 14,2 km/h (3 Bft) NW 304 0 min 0,000 mm 0,0 UV-I 0 W/m 0,5 C -3,4 C 29,0 km/h (5 Bft) 96,00 %
26.11.2017 06:40 2,6 C 5,0 C 85 % 1020,2 hPa 0,0 l/m 10,4 km/h (2 Bft) W 279 0 min 0,000 mm 0,0 UV-I 0 W/m 0,3 C -0,9 C 16,1 km/h (3 Bft) 97,87 %
26.11.2017 06:42 2,5 C 5,0 C 86 % 1020,3 hPa 0,0 l/m 12,4 km/h (3 Bft) W-SW 253 0 min 0,000 mm 0,0 UV-I 0 W/m 0,4 C -2,4 C 20,9 km/h (4 Bft) 97,87 %
26.11.2017 06:44 2,5 C 5,0 C 86 % 1020,4 hPa 0,0 l/m 14,4 km/h (3 Bft) W 278 0 min 0,000 mm 0,0 UV-I 0 W/m 0,4 C -3,6 C 19,3 km/h (3 Bft) 98,00 %
26.11.2017 06:46 2,5 C 5,0 C 86 % 1020,5 hPa 0,0 l/m 10,2 km/h (2 Bft) W-NW 290 0 min 0,000 mm 0,0 UV-I 0 W/m 0,4 C -0,8 C 14,5 km/h (3 Bft) 96,15 %
26.11.2017 06:48 2,4 C 5,0 C 87 % 1020,5 hPa 0,0 l/m 8,6 km/h (2 Bft) NW 311 0 min 0,000 mm 0,0 UV-I 0 W/m 0,5 C 0,3 C 14,5 km/h (3 Bft) 98,21 %
26.11.2017 06:50 2,4 C 5,0 C 87 % 1020,5 hPa 0,0 l/m 10,6 km/h (2 Bft) W 277 0 min 0,000 mm 0,0 UV-I 0 W/m 0,5 C -1,3 C 16,1 km/h (3 Bft) 98,31 %
26.11.2017 06:52 2,4 C 5,0 C 87 % 1020,7 hPa 0,0 l/m 14,4 km/h (3 Bft) W-SW 255 0 min 0,000 mm 0,0 UV-I 0 W/m 0,5 C -3,7 C 20,9 km/h (4 Bft) 97,37 %
26.11.2017 06:54 2,4 C 5,0 C 87 % 1020,7 hPa 0,0 l/m 12,3 km/h (3 Bft) W 265 0 min 0,000 mm 0,0 UV-I 0 W/m 0,5 C -2,4 C 17,7 km/h (3 Bft) 98,11 %
26.11.2017 06:56 2,4 C 5,0 C 87 % 1020,7 hPa 0,0 l/m 12,7 km/h (3 Bft) W-NW 282 0 min 0,000 mm 0,0 UV-I 0 W/m 0,5 C -2,7 C 20,9 km/h (4 Bft) 97,87 %
26.11.2017 06:58 2,4 C 5,0 C 87 % 1020,8 hPa 0,0 l/m 11,8 km/h (2 Bft) W-SW 240 0 min 0,000 mm 0,0 UV-I 0 W/m 0,5 C -2,1 C 17,7 km/h (3 Bft) 93,62 %
26.11.2017 07:00 2,4 C 5,0 C 87 % 1020,8 hPa 0,0 l/m 13,2 km/h (3 Bft) W-SW 246 0 min 0,026 mm 0,0 UV-I 0 W/m 0,5 C -3,0 C 22,5 km/h (4 Bft) 95,24 %
26.11.2017 07:02 2,4 C 5,0 C 87 % 1020,8 hPa 0,0 l/m 16,0 km/h (3 Bft) W 259 0 min 0,000 mm 0,0 UV-I 0 W/m 0,5 C -4,6 C 27,4 km/h (4 Bft) 98,08 %
26.11.2017 07:04 2,5 C 5,0 C 87 % 1020,7 hPa 0,0 l/m 15,0 km/h (3 Bft) W 279 0 min 0,000 mm 0,0 UV-I 0 W/m 0,6 C -4,0 C 25,7 km/h (4 Bft) 97,62 %
26.11.2017 07:06 2,5 C 5,0 C 86 % 1020,7 hPa 0,0 l/m 13,2 km/h (3 Bft) W 278 0 min 0,000 mm 0,0 UV-I 0 W/m 0,4 C -2,9 C 17,7 km/h (3 Bft) 98,11 %
26.11.2017 07:08 2,4 C 5,0 C 87 % 1020,6 hPa 0,0 l/m 12,7 km/h (3 Bft) W 259 0 min 0,000 mm 0,0 UV-I 0 W/m 0,5 C -2,7 C 19,3 km/h (3 Bft) 97,87 %
26.11.2017 07:10 2,4 C 5,0 C 86 % 1020,6 hPa 0,0 l/m 16,2 km/h (3 Bft) W-NW 282 0 min 0,000 mm 0,0 UV-I 0 W/m 0,3 C -4,7 C 25,7 km/h (4 Bft) 97,87 %
26.11.2017 07:12 2,5 C 5,0 C 86 % 1020,6 hPa 0,0 l/m 14,2 km/h (3 Bft) W-SW 250 0 min 0,000 mm 0,0 UV-I 0 W/m 0,4 C -3,5 C 25,7 km/h (4 Bft) 97,37 %
26.11.2017 07:14 2,5 C 5,0 C 87 % 1020,7 hPa 0,0 l/m 16,9 km/h (3 Bft) W-NW 294 0 min 0,000 mm 0,0 UV-I 0 W/m 0,6 C -5,0 C 27,4 km/h (4 Bft) 96,43 %
26.11.2017 07:16 2,5 C 5,0 C 86 % 1020,8 hPa 0,0 l/m 16,6 km/h (3 Bft) W 259 0 min 0,000 mm 0,0 UV-I 0 W/m 0,4 C -4,8 C 29,0 km/h (5 Bft) 97,37 %
26.11.2017 07:18 2,4 C 5,0 C 86 % 1020,8 hPa 0,0 l/m 13,9 km/h (3 Bft) W-SW 258 0 min 0,000 mm 0,0 UV-I 0 W/m 0,3 C -3,4 C 19,3 km/h (3 Bft) 98,00 %
26.11.2017 07:20 2,4 C 5,0 C 86 % 1020,8 hPa 0,0 l/m 15,6 km/h (3 Bft) W 264 0 min 0,000 mm 0,0 UV-I 5 W/m 0,3 C -4,4 C 25,7 km/h (4 Bft) 96,00 %
26.11.2017 07:22 2,4 C 5,0 C 86 % 1021,0 hPa 0,0 l/m 17,9 km/h (3 Bft) W-SW 257 0 min 0,000 mm 0,0 UV-I 5 W/m 0,3 C -5,6 C 25,7 km/h (4 Bft) 98,00 %
26.11.2017 07:24 2,5 C 5,0 C 86 % 1021,1 hPa 0,0 l/m 17,7 km/h (3 Bft) W 271 0 min 0,000 mm 0,0 UV-I 5 W/m 0,4 C -5,4 C 25,7 km/h (4 Bft) 97,37 %
26.11.2017 07:26 2,5 C 5,0 C 86 % 1021,1 hPa 0,0 l/m 15,7 km/h (3 Bft) W 265 0 min 0,000 mm 0,0 UV-I 5 W/m 0,4 C -4,3 C 24,1 km/h (4 Bft) 98,11 %
26.11.2017 07:28 2,4 C 5,0 C 86 % 1021,2 hPa 0,0 l/m 13,8 km/h (3 Bft) W 276 0 min 0,000 mm 0,0 UV-I 5 W/m 0,3 C -3,4 C 22,5 km/h (4 Bft) 97,56 %
26.11.2017 07:30 2,4 C 5,0 C 86 % 1021,2 hPa 0,0 l/m 14,9 km/h (3 Bft) W-SW 253 0 min 0,000 mm 0,0 UV-I 7 W/m 0,3 C -4,0 C 25,7 km/h (4 Bft) 98,11 %
26.11.2017 07:32 2,4 C 5,0 C 86 % 1021,3 hPa 0,0 l/m 15,5 km/h (3 Bft) NW 319 0 min 0,000 mm 0,0 UV-I 7 W/m 0,3 C -4,3 C 27,4 km/h (4 Bft) 97,56 %
26.11.2017 07:34 2,4 C 5,0 C 86 % 1021,3 hPa 0,0 l/m 12,0 km/h (2 Bft) W-SW 255 0 min 0,000 mm 0,0 UV-I 8 W/m 0,3 C -2,2 C 16,1 km/h (3 Bft) 97,73 %
26.11.2017 07:36 2,4 C 5,0 C 86 % 1021,2 hPa 0,0 l/m 11,9 km/h (2 Bft) W 269 0 min 0,000 mm 0,0 UV-I 11 W/m 0,3 C -2,2 C 20,9 km/h (4 Bft) 98,00 %
26.11.2017 07:38 2,4 C 5,0 C 86 % 1021,3 hPa 0,0 l/m 16,6 km/h (3 Bft) W 260 0 min 0,000 mm 0,0 UV-I 13 W/m 0,3 C -4,9 C 25,7 km/h (4 Bft) 96,00 %
26.11.2017 07:40 2,4 C 5,0 C 86 % 1021,3 hPa 0,0 l/m 8,8 km/h (2 Bft) W 260 2 min 0,000 mm 0,0 UV-I 18 W/m 0,3 C 0,2 C 12,9 km/h (3 Bft) 94,44 %
26.11.2017 07:42 2,3 C 5,0 C 87 % 1021,4 hPa 0,0 l/m 14,0 km/h (3 Bft) W-SW 258 2 min 0,000 mm 0,0 UV-I 20 W/m 0,4 C -3,6 C 25,7 km/h (4 Bft) 96,23 %
26.11.2017 07:44 2,3 C 5,0 C 87 % 1021,5 hPa 0,0 l/m 18,6 km/h (3 Bft) W 281 2 min 0,000 mm 0,0 UV-I 22 W/m 0,4 C -6,0 C 29,0 km/h (5 Bft) 98,11 %
26.11.2017 07:46 2,3 C 5,0 C 87 % 1021,3 hPa 0,0 l/m 16,6 km/h (3 Bft) W-SW 248 2 min 0,000 mm 0,0 UV-I 23 W/m 0,4 C -5,1 C 29,0 km/h (5 Bft) 100,00 %
26.11.2017 07:48 2,3 C 5,0 C 87 % 1021,3 hPa 0,0 l/m 15,6 km/h (3 Bft) W 261 2 min 0,000 mm 0,0 UV-I 22 W/m 0,4 C -4,5 C 27,4 km/h (4 Bft) 97,44 %
26.11.2017 07:50 2,3 C 5,0 C 87 % 1021,3 hPa 0,0 l/m 17,7 km/h (3 Bft) W-SW 257 0 min 0,000 mm 0,0 UV-I 21 W/m 0,4 C -5,6 C 30,6 km/h (5 Bft) 98,11 %
26.11.2017 07:52 2,4 C 5,0 C 86 % 1021,4 hPa 0,0 l/m 13,8 km/h (3 Bft) W 270 0 min 0,000 mm 0,0 UV-I 19 W/m 0,3 C -3,4 C 20,9 km/h (4 Bft) 98,00 %
26.11.2017 07:54 2,4 C 5,0 C 86 % 1021,3 hPa 0,0 l/m 14,3 km/h (3 Bft) W-NW 284 0 min 0,000 mm 0,0 UV-I 21 W/m 0,3 C -3,7 C 19,3 km/h (3 Bft) 97,73 %
26.11.2017 07:56 2,3 C 5,0 C 87 % 1021,4 hPa 0,0 l/m 15,0 km/h (3 Bft) W 271 0 min 0,000 mm 0,0 UV-I 26 W/m 0,4 C -4,2 C 25,7 km/h (4 Bft) 95,12 %
26.11.2017 07:58 2,3 C 5,0 C 86 % 1021,4 hPa 0,0 l/m 16,3 km/h (3 Bft) W-NW 287 0 min 0,000 mm 0,0 UV-I 32 W/m 0,2 C -4,9 C 22,5 km/h (4 Bft) 97,73 %
26.11.2017 08:00 2,3 C 5,0 C 87 % 1021,4 hPa 0,0 l/m 12,4 km/h (3 Bft) SW 234 0 min 0,025 mm 0,0 UV-I 36 W/m 0,4 C -2,6 C 19,3 km/h (3 Bft) 96,43 %
26.11.2017 08:02 2,3 C 5,0 C 87 % 1021,4 hPa 0,0 l/m 20,6 km/h (4 Bft) W-SW 257 0 min 0,000 mm 0,0 UV-I 39 W/m 0,4 C -6,9 C 27,4 km/h (4 Bft) 97,73 %
26.11.2017 08:04 2,3 C 5,0 C 86 % 1021,4 hPa 0,0 l/m 19,7 km/h (3 Bft) W-SW 258 0 min 0,000 mm 0,0 UV-I 39 W/m 0,2 C -6,5 C 29,0 km/h (5 Bft) 97,37 %
26.11.2017 08:06 2,4 C 5,0 C 87 % 1021,5 hPa 0,0 l/m 15,3 km/h (3 Bft) W-SW 257 0 min 0,000 mm 0,0 UV-I 40 W/m 0,5 C -4,2 C 25,7 km/h (4 Bft) 94,34 %
26.11.2017 08:08 2,3 C 5,0 C 87 % 1021,6 hPa 0,0 l/m 11,5 km/h (2 Bft) W-SW 254 0 min 0,000 mm 0,0 UV-I 42 W/m 0,4 C -2,0 C 20,9 km/h (4 Bft) 96,00 %
26.11.2017 08:10 2,3 C 5,0 C 86 % 1021,5 hPa 0,0 l/m 15,3 km/h (3 Bft) W-SW 256 0 min 0,000 mm 0,0 UV-I 40 W/m 0,2 C -4,4 C 20,9 km/h (4 Bft) 97,73 %
26.11.2017 08:12 2,3 C 5,0 C 86 % 1021,5 hPa 0,0 l/m 15,4 km/h (3 Bft) W-NW 284 0 min 0,000 mm 0,0 UV-I 37 W/m 0,2 C -4,4 C 22,5 km/h (4 Bft) 97,56 %
26.11.2017 08:14 2,3 C 5,0 C 86 % 1021,4 hPa 0,0 l/m 14,0 km/h (3 Bft) W 261 0 min 0,000 mm 0,0 UV-I 38 W/m 0,2 C -3,6 C 20,9 km/h (4 Bft) 98,21 %
26.11.2017 08:16 2,3 C 5,0 C 87 % 1021,4 hPa 0,0 l/m 15,4 km/h (3 Bft) W-NW 284 0 min 0,000 mm 0,0 UV-I 39 W/m 0,4 C -4,4 C 27,4 km/h (4 Bft) 97,56 %
26.11.2017 08:18 2,3 C 5,0 C 86 % 1021,5 hPa 0,0 l/m 16,5 km/h (3 Bft) W-SW 257 0 min 0,000 mm 0,0 UV-I 36 W/m 0,2 C -5,0 C 27,4 km/h (4 Bft) 96,43 %
26.11.2017 08:20 2,3 C 5,0 C 86 % 1021,5 hPa 0,0 l/m 15,6 km/h (3 Bft) W-SW 252 0 min 0,000 mm 0,0 UV-I 35 W/m 0,2 C -4,5 C 25,7 km/h (4 Bft) 94,87 %
26.11.2017 08:22 2,3 C 5,0 C 86 % 1021,5 hPa 0,0 l/m 16,4 km/h (3 Bft) W 273 0 min 0,000 mm 0,0 UV-I 36 W/m 0,2 C -5,0 C 24,1 km/h (4 Bft) 97,87 %
26.11.2017 08:24 2,3 C 5,0 C 86 % 1021,5 hPa 0,0 l/m 12,1 km/h (2 Bft) W-SW 248 0 min 0,000 mm 0,0 UV-I 38 W/m 0,2 C -2,4 C 16,1 km/h (3 Bft) 98,00 %
26.11.2017 08:26 2,3 C 5,0 C 86 % 1021,5 hPa 0,0 l/m 14,3 km/h (3 Bft) W-SW 253 0 min 0,000 mm 0,0 UV-I 40 W/m 0,2 C -3,8 C 22,5 km/h (4 Bft) 100,00 %
26.11.2017 08:28 2,3 C 5,0 C 86 % 1021,5 hPa 0,0 l/m 11,9 km/h (2 Bft) W 279 0 min 0,000 mm 0,0 UV-I 42 W/m 0,2 C -2,3 C 19,3 km/h (3 Bft) 97,56 %
26.11.2017 08:30 2,3 C 5,0 C 86 % 1021,6 hPa 0,0 l/m 9,6 km/h (2 Bft) SW 219 0 min 0,000 mm 0,0 UV-I 44 W/m 0,2 C -0,6 C 17,7 km/h (3 Bft) 98,11 %
26.11.2017 08:32 2,2 C 5,0 C 86 % 1021,6 hPa 0,0 l/m 13,8 km/h (3 Bft) W 262 0 min 0,000 mm 0,0 UV-I 47 W/m 0,1 C -3,6 C 20,9 km/h (4 Bft) 100,00 %
26.11.2017 08:34 2,2 C 5,0 C 86 % 1021,6 hPa 0,0 l/m 10,2 km/h (2 Bft) W-SW 252 0 min 0,000 mm 0,0 UV-I 50 W/m 0,1 C -1,2 C 16,1 km/h (3 Bft) 100,00 %
26.11.2017 08:36 2,2 C 5,0 C 86 % 1021,7 hPa 0,0 l/m 9,9 km/h (2 Bft) W 264 0 min 0,000 mm 0,0 UV-I 55 W/m 0,1 C -0,9 C 12,9 km/h (3 Bft) 100,00 %
26.11.2017 08:38 2,2 C 5,0 C 87 % 1021,7 hPa 0,0 l/m 10,0 km/h (2 Bft) W-SW 252 0 min 0,000 mm 0,0 UV-I 60 W/m 0,3 C -1,0 C 16,1 km/h (3 Bft) 100,00 %
26.11.2017 08:40 2,2 C 5,0 C 86 % 1021,8 hPa 0,0 l/m 13,7 km/h (3 Bft) SW 236 0 min 0,000 mm 0,0 UV-I 63 W/m 0,1 C -3,6 C 17,7 km/h (3 Bft) 100,00 %
26.11.2017 08:42 2,3 C 5,0 C 86 % 1021,9 hPa 0,0 l/m 9,4 km/h (2 Bft) W 275 0 min 0,000 mm 0,0 UV-I 62 W/m 0,2 C -0,4 C 14,5 km/h (3 Bft) 100,00 %
26.11.2017 08:44 2,2 C 5,0 C 87 % 1021,9 hPa 0,0 l/m 11,1 km/h (2 Bft) W-SW 257 0 min 0,000 mm 0,0 UV-I 60 W/m 0,3 C -1,8 C 14,5 km/h (3 Bft) 98,00 %
26.11.2017 08:46 2,3 C 5,0 C 87 % 1022,0 hPa 0,0 l/m 11,0 km/h (2 Bft) W 267 0 min 0,000 mm 0,0 UV-I 58 W/m 0,4 C -1,7 C 14,5 km/h (3 Bft) 100,00 %
26.11.2017 08:49 2,3 C 5,0 C 87 % 1022,1 hPa 0,0 l/m 8,4 km/h (2 Bft) W-SW 246 0 min 0,000 mm 0,0 UV-I 58 W/m 0,4 C 0,4 C 14,5 km/h (3 Bft) 98,46 %
26.11.2017 08:50 2,3 C 5,0 C 87 % 1022,1 hPa 0,0 l/m 6,3 km/h (2 Bft) W-SW 250 0 min 0,000 mm 0,0 UV-I 56 W/m 0,4 C 2,3 C 8,0 km/h (2 Bft) 100,00 %
26.11.2017 08:52 2,3 C 5,0 C 87 % 1022,1 hPa 0,0 l/m 8,0 km/h (2 Bft) W-SW 242 0 min 0,000 mm 0,0 UV-I 56 W/m 0,4 C 0,8 C 14,5 km/h (3 Bft) 100,00 %
26.11.2017 08:54 2,3 C 5,0 C 87 % 1022,1 hPa 0,0 l/m 11,0 km/h (2 Bft) W-NW 287 0 min 0,000 mm 0,0 UV-I 53 W/m 0,4 C -1,7 C 14,5 km/h (3 Bft) 100,00 %
26.11.2017 08:56 2,3 C 5,0 C 87 % 1022,2 hPa 0,0 l/m 10,8 km/h (2 Bft) W-SW 249 0 min 0,000 mm 0,0 UV-I 48 W/m 0,4 C -1,5 C 17,7 km/h (3 Bft) 100,00 %
26.11.2017 08:58 2,3 C 5,0 C 87 % 1022,2 hPa 0,0 l/m 8,5 km/h (2 Bft) W 261 0 min 0,000 mm 0,0 UV-I 45 W/m 0,4 C 0,3 C 12,9 km/h (3 Bft) 100,00 %
26.11.2017 09:00 2,3 C 5,0 C 87 % 1022,2 hPa 0,0 l/m 8,6 km/h (2 Bft) W-SW 256 0 min 0,025 mm 0,0 UV-I 39 W/m 0,4 C 0,2 C 16,1 km/h (3 Bft) 100,00 %
26.11.2017 09:02 2,3 C 5,0 C 87 % 1022,2 hPa 0,0 l/m 12,4 km/h (3 Bft) W 273 0 min 0,000 mm 0,0 UV-I 33 W/m 0,4 C -2,6 C 16,1 km/h (3 Bft) 100,00 %
26.11.2017 09:04 2,3 C 5,0 C 87 % 1022,2 hPa 0,0 l/m 9,3 km/h (2 Bft) W 269 0 min 0,000 mm 0,0 UV-I 38 W/m 0,4 C -0,4 C 14,5 km/h (3 Bft) 97,73 %
26.11.2017 09:06 2,4 C 5,0 C 87 % 1022,3 hPa 0,0 l/m 11,3 km/h (2 Bft) SW 218 0 min 0,000 mm 0,0 UV-I 41 W/m 0,5 C -1,8 C 17,7 km/h (3 Bft) 97,87 %
26.11.2017 09:08 2,4 C 5,0 C 86 % 1022,4 hPa 0,0 l/m 12,5 km/h (3 Bft) W-SW 238 0 min 0,000 mm 0,0 UV-I 46 W/m 0,3 C -2,6 C 20,9 km/h (4 Bft) 100,00 %
26.11.2017 09:10 2,4 C 5,0 C 86 % 1022,4 hPa 0,0 l/m 9,7 km/h (2 Bft) W-SW 251 0 min 0,000 mm 0,0 UV-I 44 W/m 0,3 C -0,6 C 16,1 km/h (3 Bft) 100,00 %
26.11.2017 09:12 2,4 C 5,0 C 86 % 1022,4 hPa 0,0 l/m 13,9 km/h (3 Bft) W-NW 288 0 min 0,000 mm 0,0 UV-I 47 W/m 0,3 C -3,4 C 22,5 km/h (4 Bft) 100,00 %
26.11.2017 09:14 2,4 C 5,0 C 86 % 1022,4 hPa 0,0 l/m 13,2 km/h (3 Bft) W-SW 252 0 min 0,000 mm 0,0 UV-I 52 W/m 0,3 C -3,0 C 17,7 km/h (3 Bft) 100,00 %
26.11.2017 09:16 2,5 C 5,0 C 86 % 1022,4 hPa 0,0 l/m 12,4 km/h (3 Bft) W-SW 249 0 min 0,000 mm 0,0 UV-I 53 W/m 0,4 C -2,4 C 22,5 km/h (4 Bft) 100,00 %
26.11.2017 09:18 2,5 C 5,0 C 86 % 1022,4 hPa 0,0 l/m 11,2 km/h (2 Bft) SW 227 0 min 0,000 mm 0,0 UV-I 56 W/m 0,4 C -1,6 C 14,5 km/h (3 Bft) 100,00 %
26.11.2017 09:20 2,5 C 5,0 C 86 % 1022,5 hPa 0,0 l/m 11,7 km/h (2 Bft) W-SW 245 0 min 0,000 mm 0,0 UV-I 53 W/m 0,4 C -1,9 C 20,9 km/h (4 Bft) 100,00 %
26.11.2017 09:22 2,5 C 5,0 C 86 % 1022,5 hPa 0,0 l/m 10,7 km/h (2 Bft) W 277 0 min 0,000 mm 0,0 UV-I 50 W/m 0,4 C -1,2 C 16,1 km/h (3 Bft) 100,00 %
26.11.2017 09:24 2,6 C 5,0 C 86 % 1022,5 hPa 0,0 l/m 14,6 km/h (3 Bft) W 266 0 min 0,000 mm 0,0 UV-I 47 W/m 0,5 C -3,6 C 20,9 km/h (4 Bft) 100,00 %
26.11.2017 09:26 2,6 C 5,0 C 86 % 1022,6 hPa 0,0 l/m 13,3 km/h (3 Bft) W 262 0 min 0,000 mm 0,0 UV-I 44 W/m 0,5 C -2,8 C 17,7 km/h (3 Bft) 100,00 %
26.11.2017 09:28 2,6 C 5,0 C 86 % 1022,7 hPa 0,0 l/m 11,8 km/h (2 Bft) W-NW 286 0 min 0,000 mm 0,0 UV-I 40 W/m 0,5 C -1,9 C 19,3 km/h (3 Bft) 100,00 %
26.11.2017 09:30 2,6 C 5,0 C 86 % 1022,7 hPa 0,0 l/m 14,5 km/h (3 Bft) SW 234 0 min 0,000 mm 0,0 UV-I 36 W/m 0,5 C -3,5 C 24,1 km/h (4 Bft) 100,00 %
26.11.2017 09:32 2,6 C 5,0 C 85 % 1022,8 hPa 0,0 l/m 14,2 km/h (3 Bft) W 267 0 min 0,000 mm 0,0 UV-I 37 W/m 0,3 C -3,4 C 20,9 km/h (4 Bft) 98,00 %
26.11.2017 09:34 2,6 C 5,0 C 85 % 1022,8 hPa 0,0 l/m 12,7 km/h (3 Bft) W 262 0 min 0,000 mm 0,0 UV-I 40 W/m 0,3 C -2,5 C 19,3 km/h (3 Bft) 97,56 %
26.11.2017 09:36 2,6 C 5,0 C 86 % 1022,8 hPa 0,0 l/m 12,6 km/h (3 Bft) W-SW 257 0 min 0,000 mm 0,0 UV-I 41 W/m 0,5 C -2,4 C 16,1 km/h (3 Bft) 97,87 %
26.11.2017 09:40 2,6 C 5,0 C 86 % 1022,8 hPa 0,0 l/m 12,9 km/h (3 Bft) W-SW 247 0 min 0,000 mm 0,0 UV-I 44 W/m 0,5 C -2,6 C 27,4 km/h (4 Bft) 100,00 %
26.11.2017 09:42 2,6 C 5,0 C 85 % 1022,8 hPa 0,0 l/m 13,7 km/h (3 Bft) W-SW 250 0 min 0,000 mm 0,0 UV-I 39 W/m 0,3 C -3,1 C 17,7 km/h (3 Bft) 100,00 %
26.11.2017 09:44 2,6 C 5,0 C 86 % 1022,9 hPa 0,0 l/m 9,7 km/h (2 Bft) NW 313 0 min 0,000 mm 0,0 UV-I 38 W/m 0,5 C -0,3 C 14,5 km/h (3 Bft) 100,00 %
26.11.2017 09:46 2,6 C 5,0 C 85 % 1022,8 hPa 0,0 l/m 12,0 km/h (2 Bft) W 263 0 min 0,000 mm 0,0 UV-I 45 W/m 0,3 C -2,0 C 19,3 km/h (3 Bft) 100,00 %
26.11.2017 09:48 2,6 C 5,0 C 86 % 1022,9 hPa 0,0 l/m 14,4 km/h (3 Bft) W 263 0 min 0,000 mm 0,0 UV-I 42 W/m 0,5 C -3,5 C 19,3 km/h (3 Bft) 98,00 %
26.11.2017 09:50 2,6 C 5,0 C 85 % 1022,9 hPa 0,0 l/m 9,7 km/h (2 Bft) W-SW 244 0 min 0,000 mm 0,0 UV-I 45 W/m 0,3 C -0,3 C 19,3 km/h (3 Bft) 100,00 %
26.11.2017 09:52 2,6 C 5,0 C 85 % 1023,0 hPa 0,0 l/m 12,7 km/h (3 Bft) W-SW 247 0 min 0,000 mm 0,0 UV-I 47 W/m 0,3 C -2,5 C 19,3 km/h (3 Bft) 100,00 %
26.11.2017 09:54 2,6 C 5,0 C 86 % 1023,0 hPa 0,0 l/m 10,9 km/h (2 Bft) W-SW 247 0 min 0,000 mm 0,0 UV-I 52 W/m 0,5 C -1,2 C 16,1 km/h (3 Bft) 95,74 %
26.11.2017 09:56 2,6 C 5,0 C 86 % 1023,0 hPa 0,0 l/m 11,1 km/h (2 Bft) W-SW 252 0 min 0,000 mm 0,0 UV-I 50 W/m 0,5 C -1,4 C 16,1 km/h (3 Bft) 97,87 %
26.11.2017 09:58 2,6 C 5,0 C 86 % 1023,0 hPa 0,0 l/m 11,6 km/h (2 Bft) W-SW 249 0 min 0,000 mm 0,0 UV-I 59 W/m 0,5 C -1,7 C 16,1 km/h (3 Bft) 98,00 %
26.11.2017 10:00 2,6 C 5,0 C 86 % 1023,0 hPa 0,0 l/m 9,9 km/h (2 Bft) SW 225 0 min 0,026 mm 0,0 UV-I 69 W/m 0,5 C -0,5 C 16,1 km/h (3 Bft) 96,00 %
26.11.2017 10:02 2,6 C 5,0 C 85 % 1023,0 hPa 0,0 l/m 14,1 km/h (3 Bft) W 263 0 min 0,000 mm 0,0 UV-I 75 W/m 0,3 C -3,3 C 19,3 km/h (3 Bft) 97,56 %
26.11.2017 10:04 2,6 C 5,0 C 86 % 1023,0 hPa 0,0 l/m 9,5 km/h (2 Bft) W 275 0 min 0,000 mm 0,0 UV-I 79 W/m 0,5 C -0,2 C 17,7 km/h (3 Bft) 98,00 %
26.11.2017 10:06 2,6 C 5,0 C 85 % 1023,1 hPa 0,0 l/m 11,0 km/h (2 Bft) W 262 0 min 0,000 mm 0,0 UV-I 84 W/m 0,3 C -1,3 C 17,7 km/h (3 Bft) 97,56 %
26.11.2017 10:08 2,5 C 5,0 C 85 % 1023,0 hPa 0,0 l/m 14,0 km/h (3 Bft) W 272 0 min 0,000 mm 0,0 UV-I 86 W/m 0,2 C -3,4 C 20,9 km/h (4 Bft) 97,92 %
26.11.2017 10:10 2,5 C 5,0 C 85 % 1023,0 hPa 0,0 l/m 12,0 km/h (2 Bft) W 281 0 min 0,000 mm 0,0 UV-I 87 W/m 0,2 C -2,1 C 16,1 km/h (3 Bft) 98,00 %
26.11.2017 10:12 2,4 C 5,0 C 85 % 1023,0 hPa 0,0 l/m 11,7 km/h (2 Bft) W-SW 257 0 min 0,000 mm 0,0 UV-I 88 W/m 0,1 C -2,0 C 16,1 km/h (3 Bft) 97,87 %
26.11.2017 10:14 2,4 C 5,0 C 85 % 1023,0 hPa 0,0 l/m 14,3 km/h (3 Bft) W 269 0 min 0,000 mm 0,0 UV-I 88 W/m 0,1 C -3,7 C 19,3 km/h (3 Bft) 97,56 %
26.11.2017 10:16 2,4 C 5,0 C 85 % 1023,1 hPa 0,0 l/m 14,7 km/h (3 Bft) W-SW 248 0 min 0,000 mm 0,0 UV-I 90 W/m 0,1 C -3,9 C 24,1 km/h (4 Bft) 98,11 %
26.11.2017 10:18 2,4 C 5,0 C 85 % 1023,1 hPa 0,0 l/m 11,6 km/h (2 Bft) W-SW 257 0 min 0,000 mm 0,0 UV-I 90 W/m 0,1 C -2,0 C 20,9 km/h (4 Bft) 94,00 %
26.11.2017 10:20 2,4 C 5,0 C 85 % 1023,1 hPa 0,0 l/m 12,1 km/h (2 Bft) W-SW 253 0 min 0,000 mm 0,0 UV-I 91 W/m 0,1 C -2,3 C 16,1 km/h (3 Bft) 95,12 %
26.11.2017 10:22 2,4 C 5,0 C 86 % 1023,2 hPa 0,0 l/m 11,4 km/h (2 Bft) W-SW 257 0 min 0,000 mm 0,0 UV-I 93 W/m 0,3 C -1,8 C 16,1 km/h (3 Bft) 98,11 %
26.11.2017 10:24 2,4 C 5,0 C 85 % 1023,2 hPa 0,0 l/m 13,7 km/h (3 Bft) W-SW 256 0 min 0,000 mm 0,0 UV-I 97 W/m 0,1 C -3,3 C 20,9 km/h (4 Bft) 95,74 %
26.11.2017 10:26 2,4 C 5,0 C 85 % 1023,1 hPa 0,0 l/m 8,1 km/h (2 Bft) W-SW 258 0 min 0,000 mm 0,0 UV-I 101 W/m 0,1 C 0,8 C 14,5 km/h (3 Bft) 97,56 %
26.11.2017 10:28 2,4 C 5,0 C 86 % 1023,2 hPa 0,0 l/m 8,4 km/h (2 Bft) W-SW 257 0 min 0,000 mm 0,0 UV-I 102 W/m 0,3 C 0,5 C 12,9 km/h (3 Bft) 100,00 %
26.11.2017 10:30 2,4 C 5,0 C 86 % 1023,2 hPa 0,0 l/m 12,3 km/h (3 Bft) W 269 0 min 0,000 mm 0,0 UV-I 99 W/m 0,3 C -2,4 C 24,1 km/h (4 Bft) 100,00 %
26.11.2017 10:32 2,4 C 5,0 C 85 % 1023,2 hPa 0,0 l/m 16,9 km/h (3 Bft) W 261 0 min 0,000 mm 0,0 UV-I 91 W/m 0,1 C -5,1 C 27,4 km/h (4 Bft) 100,00 %
26.11.2017 10:34 2,4 C 5,0 C 85 % 1023,2 hPa 0,0 l/m 11,4 km/h (2 Bft) W 275 0 min 0,000 mm 0,0 UV-I 76 W/m 0,1 C -1,8 C 19,3 km/h (3 Bft) 97,56 %
26.11.2017 10:36 2,4 C 5,0 C 85 % 1023,1 hPa 0,0 l/m 10,6 km/h (2 Bft) W-SW 252 0 min 0,000 mm 0,0 UV-I 67 W/m 0,1 C -1,3 C 16,1 km/h (3 Bft) 100,00 %
26.11.2017 10:38 2,4 C 5,0 C 85 % 1023,2 hPa 0,0 l/m 13,3 km/h (3 Bft) SW 235 0 min 0,000 mm 0,0 UV-I 70 W/m 0,1 C -3,1 C 25,7 km/h (4 Bft) 97,56 %
26.11.2017 10:40 2,4 C 5,0 C 86 % 1023,2 hPa 0,0 l/m 11,0 km/h (2 Bft) W 278 0 min 0,000 mm 0,0 UV-I 85 W/m 0,3 C -1,5 C 16,1 km/h (3 Bft) 98,00 %
26.11.2017 10:42 2,4 C 5,0 C 86 % 1023,1 hPa 0,0 l/m 9,1 km/h (2 Bft) W-SW 248 0 min 0,000 mm 0,0 UV-I 106 W/m 0,3 C -0,1 C 16,1 km/h (3 Bft) 97,73 %
26.11.2017 10:44 2,5 C 5,0 C 86 % 1023,1 hPa 0,0 l/m 9,3 km/h (2 Bft) W 265 0 min 0,000 mm 0,0 UV-I 117 W/m 0,4 C -0,1 C 16,1 km/h (3 Bft) 98,00 %
26.11.2017 10:46 2,5 C 5,0 C 85 % 1023,1 hPa 0,0 l/m 9,9 km/h (2 Bft) W 260 0 min 0,000 mm 0,0 UV-I 110 W/m 0,2 C -0,6 C 17,7 km/h (3 Bft) 97,56 %
26.11.2017 10:48 2,5 C 5,0 C 85 % 1023,1 hPa 0,0 l/m 15,2 km/h (3 Bft) W-NW 284 0 min 0,000 mm 0,0 UV-I 97 W/m 0,2 C -4,1 C 22,5 km/h (4 Bft) 98,04 %
26.11.2017 10:50 2,5 C 5,0 C 85 % 1023,1 hPa 0,0 l/m 10,9 km/h (2 Bft) W 269 0 min 0,000 mm 0,0 UV-I 90 W/m 0,2 C -1,4 C 17,7 km/h (3 Bft) 98,08 %
26.11.2017 10:52 2,6 C 5,0 C 85 % 1023,1 hPa 0,0 l/m 10,9 km/h (2 Bft) W-NW 294 0 min 0,000 mm 0,0 UV-I 96 W/m 0,3 C -1,2 C 16,1 km/h (3 Bft) 97,44 %
26.11.2017 10:54 2,6 C 5,0 C 85 % 1023,1 hPa 0,0 l/m 10,0 km/h (2 Bft) SW 228 0 min 0,000 mm 0,0 UV-I 101 W/m 0,3 C -0,6 C 16,1 km/h (3 Bft) 94,34 %
26.11.2017 10:56 2,6 C 5,0 C 86 % 1023,1 hPa 0,0 l/m 10,4 km/h (2 Bft) W-SW 254 0 min 0,000 mm 0,0 UV-I 100 W/m 0,5 C -0,9 C 16,1 km/h (3 Bft) 97,56 %
26.11.2017 10:58 2,6 C 5,0 C 85 % 1023,1 hPa 0,0 l/m 15,3 km/h (3 Bft) W-SW 256 0 min 0,000 mm 0,0 UV-I 99 W/m 0,3 C -4,0 C 25,7 km/h (4 Bft) 97,73 %
26.11.2017 11:00 2,6 C 5,0 C 85 % 1023,2 hPa 0,0 l/m 14,7 km/h (3 Bft) SW 217 0 min 0,051 mm 0,0 UV-I 96 W/m 0,3 C -3,7 C 27,4 km/h (4 Bft) 98,00 %
26.11.2017 11:02 2,6 C 5,0 C 84 % 1023,2 hPa 0,0 l/m 17,1 km/h (3 Bft) W-SW 257 0 min 0,000 mm 0,0 UV-I 90 W/m 0,2 C -4,9 C 27,4 km/h (4 Bft) 96,23 %
26.11.2017 11:04 2,6 C 5,0 C 85 % 1023,2 hPa 0,0 l/m 10,2 km/h (2 Bft) W 268 0 min 0,000 mm 0,0 UV-I 86 W/m 0,3 C -0,7 C 14,5 km/h (3 Bft) 95,65 %
26.11.2017 11:06 2,7 C 5,0 C 85 % 1023,1 hPa 0,0 l/m 12,1 km/h (2 Bft) W-SW 257 0 min 0,000 mm 0,0 UV-I 85 W/m 0,4 C -2,0 C 19,3 km/h (3 Bft) 98,46 %
26.11.2017 11:08 2,7 C 5,0 C 84 % 1023,1 hPa 0,0 l/m 14,7 km/h (3 Bft) W 269 0 min 0,000 mm 0,0 UV-I 91 W/m 0,3 C -3,5 C 20,9 km/h (4 Bft) 98,00 %
26.11.2017 11:10 2,7 C 5,0 C 84 % 1023,1 hPa 0,0 l/m 12,0 km/h (2 Bft) W 261 0 min 0,000 mm 0,0 UV-I 104 W/m 0,3 C -1,9 C 19,3 km/h (3 Bft) 97,73 %
26.11.2017 11:12 2,7 C 5,0 C 84 % 1023,1 hPa 0,0 l/m 15,5 km/h (3 Bft) W 265 0 min 0,000 mm 0,0 UV-I 106 W/m 0,3 C -4,0 C 22,5 km/h (4 Bft) 92,45 %
26.11.2017 11:14 2,7 C 5,0 C 84 % 1023,1 hPa 0,0 l/m 6,6 km/h (2 Bft) W 277 0 min 0,000 mm 0,0 UV-I 112 W/m 0,3 C 2,5 C 12,9 km/h (3 Bft) 97,37 %
26.11.2017 11:16 2,8 C 5,0 C 84 % 1023,1 hPa 0,0 l/m 8,3 km/h (2 Bft) W-NW 293 0 min 0,000 mm 0,0 UV-I 123 W/m 0,4 C 1,0 C 17,7 km/h (3 Bft) 97,87 %
26.11.2017 11:18 2,8 C 5,0 C 84 % 1023,1 hPa 0,0 l/m 11,5 km/h (2 Bft) W-SW 239 0 min 0,000 mm 0,0 UV-I 124 W/m 0,4 C -1,4 C 17,7 km/h (3 Bft) 92,45 %
26.11.2017 11:20 2,8 C 5,0 C 83 % 1023,1 hPa 0,0 l/m 15,9 km/h (3 Bft) NW 304 0 min 0,000 mm 0,0 UV-I 125 W/m 0,2 C -4,1 C 22,5 km/h (4 Bft) 97,56 %
26.11.2017 11:22 2,8 C 5,0 C 83 % 1023,2 hPa 0,0 l/m 14,1 km/h (3 Bft) SW 230 0 min 0,000 mm 0,0 UV-I 133 W/m 0,2 C -3,1 C 27,4 km/h (4 Bft) 98,00 %
26.11.2017 11:24 2,8 C 5,0 C 82 % 1023,1 hPa 0,0 l/m 13,2 km/h (3 Bft) W 263 0 min 0,000 mm 0,0 UV-I 134 W/m 0,0 C -2,5 C 17,7 km/h (3 Bft) 97,22 %
26.11.2017 11:26 2,8 C 5,0 C 82 % 1023,2 hPa 0,0 l/m 12,2 km/h (2 Bft) W 259 0 min 0,000 mm 0,0 UV-I 142 W/m 0,0 C -1,9 C 19,3 km/h (3 Bft) 98,18 %
26.11.2017 11:28 2,9 C 5,0 C 81 % 1023,2 hPa 0,0 l/m 15,7 km/h (3 Bft) W 269 0 min 0,000 mm 0,0 UV-I 145 W/m -0,0 C -3,8 C 25,7 km/h (4 Bft) 98,11 %
26.11.2017 11:30 2,8 C 5,0 C 80 % 1023,1 hPa 0,0 l/m 15,1 km/h (3 Bft) W 273 0 min 0,000 mm 0,0 UV-I 153 W/m -0,3 C -3,6 C 24,1 km/h (4 Bft) 97,44 %
26.11.2017 11:32 2,9 C 5,0 C 80 % 1023,2 hPa 0,0 l/m 13,9 km/h (3 Bft) W 263 0 min 0,000 mm 0,0 UV-I 154 W/m -0,2 C -2,8 C 25,7 km/h (4 Bft) 98,11 %
26.11.2017 11:34 2,9 C 5,0 C 81 % 1023,2 hPa 0,0 l/m 13,6 km/h (3 Bft) W 272 0 min 0,000 mm 0,5 UV-I 160 W/m -0,0 C -2,7 C 25,7 km/h (4 Bft) 94,74 %
26.11.2017 11:36 2,9 C 5,0 C 80 % 1023,2 hPa 0,0 l/m 12,3 km/h (3 Bft) W-SW 243 0 min 0,000 mm 0,5 UV-I 164 W/m -0,2 C -1,9 C 22,5 km/h (4 Bft) 98,00 %
26.11.2017 11:38 2,9 C 5,0 C 80 % 1023,2 hPa 0,0 l/m 10,0 km/h (2 Bft) SW 236 0 min 0,000 mm 0,5 UV-I 159 W/m -0,2 C -0,2 C 19,3 km/h (3 Bft) 97,87 %
26.11.2017 11:40 2,9 C 5,0 C 80 % 1023,1 hPa 0,0 l/m 18,6 km/h (3 Bft) W 259 0 min 0,000 mm 0,5 UV-I 150 W/m -0,2 C -5,3 C 27,4 km/h (4 Bft) 96,00 %
26.11.2017 11:42 2,9 C 5,0 C 80 % 1023,1 hPa 0,0 l/m 9,9 km/h (2 Bft) W-SW 250 0 min 0,000 mm 0,3 UV-I 144 W/m -0,2 C -0,2 C 17,7 km/h (3 Bft) 95,74 %
26.11.2017 11:44 2,9 C 5,0 C 80 % 1023,2 hPa 0,0 l/m 10,4 km/h (2 Bft) W-SW 252 0 min 0,000 mm 0,0 UV-I 123 W/m -0,2 C -0,5 C 16,1 km/h (3 Bft) 97,73 %
26.11.2017 11:46 2,9 C 5,0 C 80 % 1023,2 hPa 0,0 l/m 9,3 km/h (2 Bft) SW 235 0 min 0,000 mm 0,0 UV-I 124 W/m -0,2 C 0,3 C 14,5 km/h (3 Bft) 98,00 %
26.11.2017 11:48 2,9 C 5,0 C 80 % 1023,2 hPa 0,0 l/m 11,5 km/h (2 Bft) W 273 0 min 0,000 mm 0,0 UV-I 121 W/m -0,2 C -1,3 C 19,3 km/h (3 Bft) 100,00 %
26.11.2017 11:50 2,9 C 5,0 C 79 % 1023,3 hPa 0,0 l/m 12,0 km/h (2 Bft) W 259 0 min 0,000 mm 0,0 UV-I 107 W/m -0,4 C -1,7 C 20,9 km/h (4 Bft) 100,00 %
26.11.2017 11:52 2,9 C 5,0 C 79 % 1023,2 hPa 0,0 l/m 16,6 km/h (3 Bft) W-SW 246 0 min 0,000 mm 0,0 UV-I 103 W/m -0,4 C -4,3 C 24,1 km/h (4 Bft) 94,74 %
26.11.2017 11:54 2,9 C 5,0 C 78 % 1023,3 hPa 0,0 l/m 14,8 km/h (3 Bft) W-SW 246 0 min 0,000 mm 0,0 UV-I 106 W/m -0,5 C -3,4 C 22,5 km/h (4 Bft) 97,87 %
26.11.2017 11:56 2,9 C 5,0 C 78 % 1023,3 hPa 0,0 l/m 16,1 km/h (3 Bft) W-SW 255 0 min 0,000 mm 0,0 UV-I 113 W/m -0,5 C -4,1 C 22,5 km/h (4 Bft) 96,23 %
26.11.2017 11:58 2,9 C 5,0 C 78 % 1023,3 hPa 0,0 l/m 13,7 km/h (3 Bft) W-SW 254 0 min 0,000 mm 0,0 UV-I 121 W/m -0,5 C -2,7 C 19,3 km/h (3 Bft) 97,37 %
26.11.2017 12:00 2,9 C 5,0 C 79 % 1023,3 hPa 0,0 l/m 11,7 km/h (2 Bft) W 281 0 min 0,076 mm 0,0 UV-I 121 W/m -0,4 C -1,5 C 17,7 km/h (3 Bft) 98,31 %
26.11.2017 12:02 3,0 C 5,0 C 79 % 1023,3 hPa 0,0 l/m 12,8 km/h (3 Bft) W 263 0 min 0,000 mm 0,0 UV-I 123 W/m -0,3 C -2,1 C 20,9 km/h (4 Bft) 95,45 %
26.11.2017 12:04 2,9 C 5,0 C 77 % 1023,3 hPa 0,0 l/m 16,3 km/h (3 Bft) W-NW 288 0 min 0,000 mm 0,0 UV-I 125 W/m -0,7 C -4,2 C 22,5 km/h (4 Bft) 96,00 %
26.11.2017 12:06 3,0 C 5,0 C 78 % 1023,2 hPa 0,0 l/m 11,5 km/h (2 Bft) W 281 0 min 0,000 mm 0,0 UV-I 120 W/m -0,5 C -1,2 C 16,1 km/h (3 Bft) 100,00 %
26.11.2017 12:08 3,0 C 5,0 C 79 % 1023,3 hPa 0,0 l/m 13,2 km/h (3 Bft) W-NW 282 0 min 0,000 mm 0,0 UV-I 119 W/m -0,3 C -2,3 C 24,1 km/h (4 Bft) 98,00 %
26.11.2017 12:10 3,1 C 5,0 C 78 % 1023,3 hPa 0,0 l/m 16,0 km/h (3 Bft) W 266 0 min 0,000 mm 0,0 UV-I 141 W/m -0,4 C -3,8 C 24,1 km/h (4 Bft) 96,00 %
26.11.2017 12:12 3,1 C 5,0 C 77 % 1023,3 hPa 0,0 l/m 10,8 km/h (2 Bft) W 265 0 min 0,000 mm 0,0 UV-I 164 W/m -0,5 C -0,6 C 16,1 km/h (3 Bft) 97,62 %
26.11.2017 12:14 3,2 C 5,0 C 78 % 1023,3 hPa 0,0 l/m 9,9 km/h (2 Bft) W-SW 239 0 min 0,000 mm 0,0 UV-I 148 W/m -0,3 C 0,2 C 19,3 km/h (3 Bft) 98,00 %
26.11.2017 12:16 3,2 C 5,0 C 77 % 1023,3 hPa 0,0 l/m 7,4 km/h (2 Bft) W-SW 247 0 min 0,000 mm 0,0 UV-I 160 W/m -0,4 C 2,3 C 12,9 km/h (3 Bft) 94,74 %
26.11.2017 12:18 3,2 C 5,0 C 77 % 1023,2 hPa 0,0 l/m 9,7 km/h (2 Bft) W-SW 256 0 min 0,000 mm 0,0 UV-I 138 W/m -0,4 C 0,3 C 16,1 km/h (3 Bft) 96,23 %
26.11.2017 12:20 3,2 C 5,0 C 77 % 1023,2 hPa 0,0 l/m 8,3 km/h (2 Bft) W-SW 239 0 min 0,000 mm 0,0 UV-I 140 W/m -0,4 C 1,5 C 12,9 km/h (3 Bft) 94,00 %
26.11.2017 12:22 3,2 C 5,0 C 76 % 1023,2 hPa 0,0 l/m 17,1 km/h (3 Bft) W-SW 248 0 min 0,000 mm 0,0 UV-I 154 W/m -0,6 C -4,2 C 25,7 km/h (4 Bft) 97,37 %
26.11.2017 12:24 3,2 C 5,0 C 76 % 1023,3 hPa 0,0 l/m 17,5 km/h (3 Bft) SW 234 2 min 0,000 mm 0,0 UV-I 198 W/m -0,6 C -4,4 C 29,0 km/h (5 Bft) 98,00 %
26.11.2017 12:26 3,2 C 5,0 C 76 % 1023,2 hPa 0,0 l/m 14,7 km/h (3 Bft) W 269 2 min 0,000 mm 0,0 UV-I 213 W/m -0,6 C -2,9 C 20,9 km/h (4 Bft) 96,23 %
26.11.2017 12:28 3,3 C 5,0 C 77 % 1023,2 hPa 0,0 l/m 9,7 km/h (2 Bft) W 280 2 min 0,000 mm 0,0 UV-I 206 W/m -0,3 C 0,4 C 19,3 km/h (3 Bft) 100,00 %
26.11.2017 12:30 3,3 C 5,0 C 76 % 1023,2 hPa 0,0 l/m 19,1 km/h (3 Bft) W-SW 250 0 min 0,000 mm 0,0 UV-I 191 W/m -0,5 C -5,0 C 33,8 km/h (5 Bft) 96,23 %
26.11.2017 12:32 3,3 C 5,0 C 75 % 1023,2 hPa 0,0 l/m 21,0 km/h (4 Bft) W-SW 250 0 min 0,000 mm 0,0 UV-I 175 W/m -0,7 C -5,8 C 32,2 km/h (5 Bft) 100,00 %
26.11.2017 12:34 3,3 C 5,0 C 75 % 1023,1 hPa 0,0 l/m 16,3 km/h (3 Bft) W-SW 254 0 min 0,000 mm 0,0 UV-I 164 W/m -0,7 C -3,7 C 25,7 km/h (4 Bft) 100,00 %
26.11.2017 12:36 3,3 C 5,0 C 75 % 1023,2 hPa 0,0 l/m 15,7 km/h (3 Bft) W-SW 250 0 min 0,000 mm 0,0 UV-I 141 W/m -0,7 C -3,4 C 24,1 km/h (4 Bft) 100,00 %
26.11.2017 12:38 3,3 C 5,0 C 76 % 1023,2 hPa 0,0 l/m 14,3 km/h (3 Bft) W-SW 240 0 min 0,000 mm 0,0 UV-I 145 W/m -0,5 C -2,6 C 17,7 km/h (3 Bft) 97,87 %
26.11.2017 12:40 3,2 C 5,0 C 75 % 1023,2 hPa 0,0 l/m 13,8 km/h (3 Bft) W-SW 242 0 min 0,000 mm 0,0 UV-I 150 W/m -0,8 C -2,4 C 20,9 km/h (4 Bft) 100,00 %
26.11.2017 12:42 3,3 C 5,0 C 75 % 1023,1 hPa 0,0 l/m 19,6 km/h (3 Bft) W-SW 248 0 min 0,000 mm 0,0 UV-I 140 W/m -0,7 C -5,2 C 25,7 km/h (4 Bft) 97,37 %
26.11.2017 12:44 3,2 C 5,0 C 76 % 1023,2 hPa 0,0 l/m 17,4 km/h (3 Bft) W 269 0 min 0,000 mm 0,0 UV-I 147 W/m -0,6 C -4,3 C 25,7 km/h (4 Bft) 98,11 %
26.11.2017 12:46 3,3 C 5,0 C 76 % 1023,2 hPa 0,0 l/m 16,1 km/h (3 Bft) W-SW 243 0 min 0,000 mm 0,0 UV-I 154 W/m -0,5 C -3,6 C 20,9 km/h (4 Bft) 100,00 %
26.11.2017 12:48 3,3 C 5,0 C 76 % 1023,2 hPa 0,0 l/m 17,0 km/h (3 Bft) W-SW 250 0 min 0,000 mm 0,2 UV-I 175 W/m -0,5 C -4,0 C 25,7 km/h (4 Bft) 100,00 %
26.11.2017 12:50 3,3 C 5,0 C 75 % 1023,2 hPa 0,0 l/m 18,6 km/h (3 Bft) SW 234 0 min 0,000 mm 0,0 UV-I 156 W/m -0,7 C -4,8 C 27,4 km/h (4 Bft) 100,00 %
26.11.2017 12:52 3,2 C 5,0 C 76 % 1023,2 hPa 0,0 l/m 12,2 km/h (2 Bft) SW 225 0 min 0,000 mm 0,0 UV-I 127 W/m -0,6 C -1,4 C 20,9 km/h (4 Bft) 100,00 %
26.11.2017 12:54 3,2 C 5,0 C 76 % 1023,2 hPa 0,0 l/m 13,8 km/h (3 Bft) W 267 0 min 0,000 mm 0,0 UV-I 108 W/m -0,6 C -2,4 C 19,3 km/h (3 Bft) 97,67 %
26.11.2017 12:56 3,2 C 5,0 C 77 % 1023,2 hPa 0,0 l/m 13,2 km/h (3 Bft) W-SW 244 0 min 0,000 mm 0,0 UV-I 93 W/m -0,4 C -2,1 C 22,5 km/h (4 Bft) 100,00 %
26.11.2017 12:58 3,2 C 5,0 C 76 % 1023,3 hPa 0,0 l/m 16,1 km/h (3 Bft) W 268 0 min 0,000 mm 0,0 UV-I 77 W/m -0,6 C -3,7 C 22,5 km/h (4 Bft) 100,00 %
26.11.2017 13:00 3,2 C 5,0 C 76 % 1023,2 hPa 0,0 l/m 15,1 km/h (3 Bft) W 274 0 min 0,076 mm 0,0 UV-I 93 W/m -0,6 C -3,2 C 24,1 km/h (4 Bft) 100,00 %
26.11.2017 13:02 3,2 C 5,0 C 77 % 1023,2 hPa 0,0 l/m 15,1 km/h (3 Bft) W 261 0 min 0,000 mm 0,0 UV-I 127 W/m -0,4 C -3,2 C 20,9 km/h (4 Bft) 96,43 %
26.11.2017 13:04 3,2 C 5,0 C 77 % 1023,2 hPa 0,0 l/m 13,4 km/h (3 Bft) W 281 0 min 0,000 mm 0,0 UV-I 138 W/m -0,4 C -2,2 C 22,5 km/h (4 Bft) 97,87 %
26.11.2017 13:06 3,2 C 5,0 C 77 % 1023,2 hPa 0,0 l/m 19,1 km/h (3 Bft) W-SW 252 0 min 0,000 mm 0,0 UV-I 151 W/m -0,4 C -5,1 C 25,7 km/h (4 Bft) 100,00 %
26.11.2017 13:08 3,2 C 5,0 C 75 % 1023,2 hPa 0,0 l/m 17,1 km/h (3 Bft) W 262 0 min 0,000 mm 0,0 UV-I 163 W/m -0,8 C -4,2 C 24,1 km/h (4 Bft) 98,21 %
26.11.2017 13:10 3,2 C 5,0 C 76 % 1023,3 hPa 0,0 l/m 9,9 km/h (2 Bft) W-SW 254 0 min 0,000 mm 0,0 UV-I 179 W/m -0,6 C 0,2 C 19,3 km/h (3 Bft) 100,00 %
26.11.2017 13:12 3,2 C 5,0 C 76 % 1023,4 hPa 0,0 l/m 12,9 km/h (3 Bft) W-NW 287 0 min 0,000 mm 0,0 UV-I 153 W/m -0,6 C -1,9 C 17,7 km/h (3 Bft) 98,00 %
26.11.2017 13:14 3,3 C 5,0 C 76 % 1023,3 hPa 0,0 l/m 11,3 km/h (2 Bft) W-SW 250 0 min 0,000 mm 0,0 UV-I 144 W/m -0,5 C -0,7 C 17,7 km/h (3 Bft) 100,00 %
26.11.2017 13:16 3,3 C 5,0 C 76 % 1023,3 hPa 0,0 l/m 9,5 km/h (2 Bft) SW 223 0 min 0,000 mm 0,0 UV-I 147 W/m -0,5 C 0,6 C 16,1 km/h (3 Bft) 100,00 %
26.11.2017 13:18 3,3 C 5,0 C 76 % 1023,3 hPa 0,0 l/m 12,8 km/h (3 Bft) SW 232 0 min 0,000 mm 0,0 UV-I 144 W/m -0,5 C -1,7 C 27,4 km/h (4 Bft) 100,00 %
26.11.2017 13:20 3,3 C 5,0 C 74 % 1023,3 hPa 0,0 l/m 15,5 km/h (3 Bft) W 275 0 min 0,000 mm 0,0 UV-I 122 W/m -0,9 C -3,3 C 20,9 km/h (4 Bft) 100,00 %
26.11.2017 13:22 3,2 C 5,0 C 75 % 1023,3 hPa 0,0 l/m 17,7 km/h (3 Bft) W-SW 244 0 min 0,000 mm 0,0 UV-I 100 W/m -0,8 C -4,5 C 29,0 km/h (5 Bft) 97,56 %
26.11.2017 13:24 3,2 C 5,0 C 74 % 1023,3 hPa 0,0 l/m 16,0 km/h (3 Bft) W-SW 250 0 min 0,000 mm 0,0 UV-I 90 W/m -1,0 C -3,6 C 22,5 km/h (4 Bft) 100,00 %
26.11.2017 13:26 3,2 C 5,0 C 74 % 1023,3 hPa 0,0 l/m 15,8 km/h (3 Bft) SW 236 0 min 0,000 mm 0,0 UV-I 100 W/m -1,0 C -3,5 C 25,7 km/h (4 Bft) 97,73 %
26.11.2017 13:28 3,1 C 5,0 C 74 % 1023,2 hPa 0,0 l/m 17,3 km/h (3 Bft) W 274 0 min 0,000 mm 0,0 UV-I 123 W/m -1,1 C -4,4 C 27,4 km/h (4 Bft) 100,00 %
26.11.2017 13:30 3,1 C 5,0 C 74 % 1023,2 hPa 0,0 l/m 17,7 km/h (3 Bft) W 260 0 min 0,000 mm 0,0 UV-I 131 W/m -1,1 C -4,6 C 25,7 km/h (4 Bft) 97,44 %
26.11.2017 13:32 3,1 C 5,0 C 74 % 1023,3 hPa 0,0 l/m 15,2 km/h (3 Bft) SW 229 0 min 0,000 mm 0,0 UV-I 130 W/m -1,1 C -3,3 C 20,9 km/h (4 Bft) 98,18 %
26.11.2017 13:34 3,1 C 5,0 C 74 % 1023,3 hPa 0,0 l/m 14,6 km/h (3 Bft) W-SW 252 0 min 0,000 mm 0,0 UV-I 132 W/m -1,1 C -3,0 C 20,9 km/h (4 Bft) 100,00 %
26.11.2017 13:36 3,1 C 5,0 C 75 % 1023,3 hPa 0,0 l/m 14,4 km/h (3 Bft) W 271 0 min 0,000 mm 0,0 UV-I 137 W/m -0,9 C -2,9 C 22,5 km/h (4 Bft) 100,00 %
26.11.2017 13:38 3,1 C 5,0 C 75 % 1023,3 hPa 0,0 l/m 12,4 km/h (3 Bft) W-SW 244 0 min 0,000 mm 0,0 UV-I 124 W/m -0,9 C -1,7 C 20,9 km/h (4 Bft) 95,12 %
26.11.2017 13:40 3,1 C 5,0 C 74 % 1023,3 hPa 0,0 l/m 18,1 km/h (3 Bft) W-SW 243 0 min 0,000 mm 0,0 UV-I 95 W/m -1,1 C -4,8 C 27,4 km/h (4 Bft) 100,00 %
26.11.2017 13:42 3,1 C 5,0 C 74 % 1023,3 hPa 0,0 l/m 13,6 km/h (3 Bft) W 274 0 min 0,000 mm 0,0 UV-I 71 W/m -1,1 C -2,4 C 20,9 km/h (4 Bft) 97,37 %
26.11.2017 13:44 3,1 C 5,0 C 75 % 1023,3 hPa 0,0 l/m 8,5 km/h (2 Bft) SW 230 0 min 0,000 mm 0,0 UV-I 51 W/m -0,9 C 1,2 C 12,9 km/h (3 Bft) 98,11 %
26.11.2017 13:46 3,1 C 5,0 C 75 % 1023,3 hPa 0,0 l/m 10,5 km/h (2 Bft) W-SW 244 0 min 0,000 mm 0,0 UV-I 37 W/m -0,9 C -0,4 C 16,1 km/h (3 Bft) 100,00 %
26.11.2017 13:48 3,1 C 5,0 C 75 % 1023,3 hPa 0,0 l/m 15,8 km/h (3 Bft) W 275 0 min 0,000 mm 0,0 UV-I 32 W/m -0,9 C -3,7 C 27,4 km/h (4 Bft) 98,00 %
26.11.2017 13:50 3,0 C 5,0 C 74 % 1023,4 hPa 0,0 l/m 20,1 km/h (4 Bft) W-SW 248 0 min 0,000 mm 0,0 UV-I 28 W/m -1,2 C -5,8 C 30,6 km/h (5 Bft) 98,11 %
26.11.2017 13:52 2,8 C 5,0 C 77 % 1023,4 hPa 0,0 l/m 20,1 km/h (4 Bft) W-SW 248 0 min 0,000 mm 0,0 UV-I 23 W/m -0,8 C -6,1 C 30,6 km/h (5 Bft) 94,74 %
26.11.2017 13:54 2,4 C 5,0 C 80 % 1023,5 hPa 0,0 l/m 13,9 km/h (3 Bft) W-SW 252 0 min 0,000 mm 0,0 UV-I 22 W/m -0,7 C -3,4 C 20,9 km/h (4 Bft) 95,92 %
26.11.2017 13:56 1,9 C 5,0 C 85 % 1023,5 hPa 0,0 l/m 12,4 km/h (3 Bft) W-SW 250 0 min 0,000 mm 0,0 UV-I 25 W/m -0,3 C -3,1 C 17,7 km/h (3 Bft) 96,00 %
26.11.2017 13:58 1,6 C 5,0 C 86 % 1023,6 hPa 0,0 l/m 10,8 km/h (2 Bft) W 275 0 min 0,000 mm 0,0 UV-I 38 W/m -0,5 C -2,3 C 16,1 km/h (3 Bft) 97,56 %
26.11.2017 14:00 1,3 C 5,0 C 88 % 1023,5 hPa 0,0 l/m 11,3 km/h (2 Bft) S-SW 211 0 min 0,076 mm 0,0 UV-I 47 W/m -0,5 C -3,0 C 20,9 km/h (4 Bft) 98,21 %
26.11.2017 14:02 1,2 C 5,0 C 89 % 1023,5 hPa 0,0 l/m 10,4 km/h (2 Bft) W 261 0 min 0,000 mm 0,0 UV-I 60 W/m -0,4 C -2,4 C 14,5 km/h (3 Bft) 97,56 %
26.11.2017 14:04 1,3 C 5,0 C 89 % 1023,4 hPa 0,0 l/m 9,2 km/h (2 Bft) W 266 0 min 0,000 mm 0,0 UV-I 69 W/m -0,3 C -1,4 C 12,9 km/h (3 Bft) 95,74 %
26.11.2017 14:06 1,4 C 5,0 C 89 % 1023,5 hPa 0,0 l/m 10,8 km/h (2 Bft) W-SW 257 0 min 0,000 mm 0,0 UV-I 90 W/m -0,2 C -2,5 C 16,1 km/h (3 Bft) 95,74 %
26.11.2017 14:08 1,6 C 5,0 C 88 % 1023,5 hPa 0,0 l/m 10,7 km/h (2 Bft) W-SW 254 0 min 0,000 mm 0,0 UV-I 111 W/m -0,2 C -2,2 C 14,5 km/h (3 Bft) 98,00 %
26.11.2017 14:10 1,7 C 5,0 C 87 % 1023,4 hPa 0,0 l/m 10,6 km/h (2 Bft) W-SW 252 0 min 0,000 mm 0,0 UV-I 115 W/m -0,2 C -2,0 C 17,7 km/h (3 Bft) 97,62 %
26.11.2017 14:12 1,8 C 5,0 C 87 % 1023,5 hPa 0,0 l/m 10,6 km/h (2 Bft) W 267 0 min 0,000 mm 0,0 UV-I 105 W/m -0,1 C -1,9 C 16,1 km/h (3 Bft) 95,45 %
26.11.2017 14:14 2,0 C 5,0 C 86 % 1023,5 hPa 0,0 l/m 10,9 km/h (2 Bft) W-SW 250 0 min 0,000 mm 0,0 UV-I 79 W/m -0,1 C -1,9 C 14,5 km/h (3 Bft) 96,23 %
26.11.2017 14:16 2,1 C 5,0 C 85 % 1023,5 hPa 0,0 l/m 9,8 km/h (2 Bft) W-SW 239 0 min 0,000 mm 0,0 UV-I 54 W/m -0,2 C -1,0 C 14,5 km/h (3 Bft) 95,45 %
26.11.2017 14:18 2,1 C 5,0 C 85 % 1023,5 hPa 0,0 l/m 7,2 km/h (2 Bft) W 268 0 min 0,000 mm 0,0 UV-I 51 W/m -0,2 C 1,3 C 9,7 km/h (2 Bft) 98,00 %
26.11.2017 14:20 2,1 C 5,0 C 85 % 1023,4 hPa 0,0 l/m 10,8 km/h (2 Bft) W-SW 251 0 min 0,000 mm 0,0 UV-I 56 W/m -0,2 C -1,7 C 14,5 km/h (3 Bft) 97,87 %
26.11.2017 14:22 2,2 C 5,0 C 86 % 1023,4 hPa 0,0 l/m 9,3 km/h (2 Bft) W-SW 254 0 min 0,000 mm 0,0 UV-I 69 W/m 0,1 C -0,5 C 12,9 km/h (3 Bft) 96,00 %
26.11.2017 14:24 2,2 C 5,0 C 85 % 1023,4 hPa 0,0 l/m 10,6 km/h (2 Bft) SW 234 0 min 0,000 mm 0,0 UV-I 69 W/m -0,1 C -1,5 C 16,1 km/h (3 Bft) 100,00 %
26.11.2017 14:26 2,3 C 5,0 C 84 % 1023,4 hPa 0,0 l/m 8,1 km/h (2 Bft) W-SW 253 0 min 0,000 mm 0,0 UV-I 65 W/m -0,1 C 0,7 C 11,3 km/h (2 Bft) 97,56 %
26.11.2017 14:28 2,4 C 5,0 C 84 % 1023,4 hPa 0,0 l/m 9,7 km/h (2 Bft) W-SW 240 0 min 0,000 mm 0,0 UV-I 60 W/m -0,0 C -0,6 C 17,7 km/h (3 Bft) 100,00 %
26.11.2017 14:30 2,4 C 5,0 C 84 % 1023,4 hPa 0,0 l/m 9,7 km/h (2 Bft) W-SW 246 0 min 0,000 mm 0,0 UV-I 51 W/m -0,0 C -0,6 C 14,5 km/h (3 Bft) 100,00 %
26.11.2017 14:32 2,6 C 5,0 C 83 % 1023,4 hPa 0,0 l/m 11,4 km/h (2 Bft) W-SW 246 0 min 0,000 mm 0,0 UV-I 55 W/m 0,0 C -1,6 C 16,1 km/h (3 Bft) 100,00 %
26.11.2017 14:34 2,6 C 5,0 C 83 % 1023,3 hPa 0,0 l/m 12,1 km/h (2 Bft) W-SW 256 0 min 0,000 mm 0,0 UV-I 58 W/m 0,0 C -2,1 C 17,7 km/h (3 Bft) 100,00 %
26.11.2017 14:36 2,7 C 5,0 C 82 % 1023,3 hPa 0,0 l/m 11,2 km/h (2 Bft) W-SW 248 0 min 0,000 mm 0,0 UV-I 64 W/m -0,1 C -1,3 C 16,1 km/h (3 Bft) 100,00 %
26.11.2017 14:38 2,7 C 5,0 C 82 % 1023,3 hPa 0,0 l/m 10,9 km/h (2 Bft) W-SW 252 0 min 0,000 mm 0,0 UV-I 73 W/m -0,1 C -1,1 C 19,3 km/h (3 Bft) 100,00 %
26.11.2017 14:40 2,7 C 5,0 C 82 % 1023,3 hPa 0,2 l/m 12,5 km/h (3 Bft) W 259 0 min 0,000 mm 0,0 UV-I 72 W/m -0,1 C -2,2 C 20,9 km/h (4 Bft) 94,74 %
26.11.2017 14:42 2,7 C 5,0 C 82 % 1023,4 hPa 0,0 l/m 10,9 km/h (2 Bft) W-SW 247 0 min 0,000 mm 0,0 UV-I 62 W/m -0,1 C -1,1 C 16,1 km/h (3 Bft) 98,00 %
26.11.2017 14:44 2,7 C 5,0 C 82 % 1023,3 hPa 0,0 l/m 10,9 km/h (2 Bft) W 268 0 min 0,000 mm 0,0 UV-I 53 W/m -0,1 C -1,1 C 17,7 km/h (3 Bft) 96,23 %
26.11.2017 14:46 2,7 C 5,0 C 83 % 1023,3 hPa 0,0 l/m 10,0 km/h (2 Bft) W-SW 255 0 min 0,000 mm 0,0 UV-I 49 W/m 0,1 C -0,5 C 16,1 km/h (3 Bft) 97,73 %
26.11.2017 14:48 2,7 C 5,0 C 81 % 1023,4 hPa 0,0 l/m 15,0 km/h (3 Bft) W-SW 239 0 min 0,000 mm 0,0 UV-I 44 W/m -0,2 C -3,7 C 22,5 km/h (4 Bft) 96,00 %
26.11.2017 14:50 2,7 C 5,0 C 82 % 1023,4 hPa 0,0 l/m 12,4 km/h (3 Bft) SW 235 0 min 0,000 mm 0,0 UV-I 40 W/m -0,1 C -2,2 C 17,7 km/h (3 Bft) 100,00 %
26.11.2017 14:52 2,7 C 5,0 C 82 % 1023,4 hPa 0,0 l/m 9,8 km/h (2 Bft) SW 232 0 min 0,000 mm 0,0 UV-I 34 W/m -0,1 C -0,3 C 16,1 km/h (3 Bft) 93,62 %
26.11.2017 14:54 2,7 C 5,0 C 81 % 1023,4 hPa 0,0 l/m 14,0 km/h (3 Bft) SW 225 0 min 0,000 mm 0,0 UV-I 33 W/m -0,2 C -3,1 C 20,9 km/h (4 Bft) 95,74 %
26.11.2017 14:56 2,7 C 5,0 C 82 % 1023,4 hPa 0,0 l/m 11,5 km/h (2 Bft) W-SW 239 0 min 0,000 mm 0,0 UV-I 34 W/m -0,1 C -1,6 C 17,7 km/h (3 Bft) 96,23 %
26.11.2017 14:58 2,7 C 5,0 C 81 % 1023,3 hPa 0,0 l/m 12,5 km/h (3 Bft) W-SW 242 0 min 0,000 mm 0,0 UV-I 35 W/m -0,2 C -2,2 C 16,1 km/h (3 Bft) 97,56 %
26.11.2017 15:00 2,7 C 5,0 C 81 % 1023,4 hPa 0,0 l/m 11,9 km/h (2 Bft) SW 234 0 min 0,026 mm 0,0 UV-I 33 W/m -0,2 C -1,8 C 19,3 km/h (3 Bft) 98,11 %
26.11.2017 15:02 2,7 C 5,0 C 81 % 1023,4 hPa 0,0 l/m 12,3 km/h (3 Bft) W-SW 256 0 min 0,000 mm 0,0 UV-I 49 W/m -0,2 C -2,1 C 20,9 km/h (4 Bft) 98,00 %
26.11.2017 15:04 2,7 C 5,0 C 81 % 1023,4 hPa 0,0 l/m 11,2 km/h (2 Bft) S-SW 203 0 min 0,000 mm 0,0 UV-I 64 W/m -0,2 C -1,3 C 19,3 km/h (3 Bft) 97,87 %
26.11.2017 15:06 2,8 C 5,0 C 81 % 1023,4 hPa 0,0 l/m 11,2 km/h (2 Bft) SW 223 0 min 0,000 mm 0,0 UV-I 41 W/m -0,1 C -1,2 C 16,1 km/h (3 Bft) 97,56 %
26.11.2017 15:08 2,8 C 5,0 C 81 % 1023,4 hPa 0,0 l/m 11,7 km/h (2 Bft) SW 218 0 min 0,000 mm 0,0 UV-I 38 W/m -0,1 C -1,6 C 19,3 km/h (3 Bft) 97,37 %
26.11.2017 15:10 2,8 C 5,0 C 81 % 1023,4 hPa 0,0 l/m 12,4 km/h (3 Bft) W-SW 256 0 min 0,000 mm 0,0 UV-I 35 W/m -0,1 C -2,0 C 17,7 km/h (3 Bft) 98,21 %
26.11.2017 15:12 2,8 C 5,0 C 81 % 1023,4 hPa 0,0 l/m 10,9 km/h (2 Bft) SW 227 0 min 0,000 mm 0,0 UV-I 30 W/m -0,1 C -1,0 C 17,7 km/h (3 Bft) 97,56 %
26.11.2017 15:14 2,8 C 5,0 C 81 % 1023,4 hPa 0,0 l/m 14,8 km/h (3 Bft) SW 225 0 min 0,000 mm 0,0 UV-I 28 W/m -0,1 C -3,5 C 25,7 km/h (4 Bft) 94,34 %
26.11.2017 15:16 2,8 C 5,0 C 81 % 1023,4 hPa 0,0 l/m 17,4 km/h (3 Bft) SW 225 0 min 0,000 mm 0,0 UV-I 25 W/m -0,1 C -4,8 C 25,7 km/h (4 Bft) 98,00 %
26.11.2017 15:18 2,8 C 5,0 C 81 % 1023,4 hPa 0,0 l/m 12,8 km/h (3 Bft) W 260 0 min 0,000 mm 0,0 UV-I 21 W/m -0,1 C -2,3 C 24,1 km/h (4 Bft) 97,14 %
26.11.2017 15:20 2,8 C 5,0 C 81 % 1023,4 hPa 0,0 l/m 16,4 km/h (3 Bft) S-SW 209 0 min 0,000 mm 0,0 UV-I 21 W/m -0,1 C -4,3 C 25,7 km/h (4 Bft) 98,11 %
26.11.2017 15:22 2,8 C 5,0 C 81 % 1023,4 hPa 0,0 l/m 14,1 km/h (3 Bft) SW 221 0 min 0,000 mm 0,0 UV-I 26 W/m -0,1 C -3,1 C 20,9 km/h (4 Bft) 98,11 %
26.11.2017 15:24 2,8 C 5,0 C 81 % 1023,4 hPa 0,0 l/m 14,8 km/h (3 Bft) SW 217 0 min 0,000 mm 0,0 UV-I 31 W/m -0,1 C -3,5 C 25,7 km/h (4 Bft) 97,56 %
26.11.2017 15:26 2,7 C 5,0 C 81 % 1023,3 hPa 0,0 l/m 16,1 km/h (3 Bft) SW 233 0 min 0,000 mm 0,0 UV-I 32 W/m -0,2 C -4,3 C 25,7 km/h (4 Bft) 97,87 %
26.11.2017 15:28 2,8 C 5,0 C 81 % 1023,4 hPa 0,0 l/m 13,7 km/h (3 Bft) SW 234 0 min 0,000 mm 0,0 UV-I 29 W/m -0,1 C -2,8 C 19,3 km/h (3 Bft) 98,11 %
26.11.2017 15:30 2,8 C 5,0 C 81 % 1023,4 hPa 0,0 l/m 16,0 km/h (3 Bft) W-SW 243 0 min 0,000 mm 0,0 UV-I 26 W/m -0,1 C -4,1 C 25,7 km/h (4 Bft) 96,30 %
26.11.2017 15:32 2,7 C 5,0 C 81 % 1023,4 hPa 0,0 l/m 17,3 km/h (3 Bft) SW 233 0 min 0,000 mm 0,0 UV-I 25 W/m -0,2 C -4,9 C 25,7 km/h (4 Bft) 96,92 %
26.11.2017 15:34 2,7 C 5,0 C 81 % 1023,4 hPa 0,0 l/m 12,8 km/h (3 Bft) W-SW 243 0 min 0,000 mm 0,0 UV-I 23 W/m -0,2 C -2,4 C 20,9 km/h (4 Bft) 96,88 %
26.11.2017 15:36 2,7 C 5,0 C 81 % 1023,4 hPa 0,0 l/m 13,4 km/h (3 Bft) W-SW 237 0 min 0,000 mm 0,0 UV-I 16 W/m -0,2 C -2,8 C 22,5 km/h (4 Bft) 95,08 %
26.11.2017 15:38 2,7 C 5,0 C 81 % 1023,5 hPa 0,0 l/m 12,8 km/h (3 Bft) SW 236 0 min 0,000 mm 0,0 UV-I 15 W/m -0,2 C -2,4 C 17,7 km/h (3 Bft) 97,73 %
26.11.2017 15:40 2,7 C 5,0 C 82 % 1023,5 hPa 0,0 l/m 13,5 km/h (3 Bft) SW 215 0 min 0,000 mm 0,0 UV-I 16 W/m -0,1 C -2,8 C 20,9 km/h (4 Bft) 98,11 %
26.11.2017 15:42 2,7 C 5,0 C 81 % 1023,5 hPa 0,0 l/m 13,8 km/h (3 Bft) W-SW 237 0 min 0,000 mm 0,0 UV-I 18 W/m -0,2 C -3,0 C 20,9 km/h (4 Bft) 97,73 %
26.11.2017 15:44 2,7 C 5,0 C 81 % 1023,4 hPa 0,0 l/m 18,7 km/h (3 Bft) SW 229 0 min 0,000 mm 0,0 UV-I 19 W/m -0,2 C -5,6 C 27,4 km/h (4 Bft) 97,56 %
26.11.2017 15:46 2,7 C 5,0 C 81 % 1023,5 hPa 0,0 l/m 17,3 km/h (3 Bft) W-SW 251 0 min 0,000 mm 0,0 UV-I 18 W/m -0,2 C -4,9 C 24,1 km/h (4 Bft) 97,87 %
26.11.2017 15:48 2,7 C 5,0 C 81 % 1023,4 hPa 0,0 l/m 12,9 km/h (3 Bft) SW 229 0 min 0,000 mm 0,0 UV-I 16 W/m -0,2 C -2,5 C 17,7 km/h (3 Bft) 100,00 %
26.11.2017 15:50 2,7 C 5,0 C 82 % 1023,5 hPa 0,0 l/m 13,4 km/h (3 Bft) W-SW 252 0 min 0,000 mm 0,0 UV-I 16 W/m -0,1 C -2,8 C 19,3 km/h (3 Bft) 100,00 %
26.11.2017 15:53 2,7 C 5,0 C 81 % 1023,5 hPa 0,0 l/m 18,7 km/h (3 Bft) W-SW 251 0 min 0,000 mm 0,0 UV-I 14 W/m -0,2 C -5,6 C 25,7 km/h (4 Bft) 100,00 %
26.11.2017 15:54 2,7 C 5,0 C 81 % 1023,5 hPa 0,0 l/m 19,8 km/h (3 Bft) W-SW 239 0 min 0,000 mm 0,0 UV-I 12 W/m -0,2 C -6,1 C 24,1 km/h (4 Bft) 100,00 %
26.11.2017 15:56 2,7 C 5,0 C 81 % 1023,5 hPa 0,0 l/m 15,1 km/h (3 Bft) W-SW 245 0 min 0,000 mm 0,0 UV-I 11 W/m -0,2 C -3,8 C 19,3 km/h (3 Bft) 97,37 %
26.11.2017 15:58 2,7 C 5,0 C 81 % 1023,5 hPa 0,0 l/m 13,1 km/h (3 Bft) W-SW 247 0 min 0,000 mm 0,0 UV-I 11 W/m -0,2 C -2,6 C 19,3 km/h (3 Bft) 98,04 %
26.11.2017 16:00 2,7 C 5,0 C 81 % 1023,6 hPa 0,0 l/m 13,4 km/h (3 Bft) SW 234 0 min 0,025 mm 0,0 UV-I 10 W/m -0,2 C -2,8 C 20,9 km/h (4 Bft) 98,11 %
26.11.2017 16:02 2,7 C 5,0 C 82 % 1023,5 hPa 0,0 l/m 13,1 km/h (3 Bft) W-SW 244 0 min 0,000 mm 0,0 UV-I 9 W/m -0,1 C -2,6 C 19,3 km/h (3 Bft) 95,83 %
26.11.2017 16:04 2,7 C 5,0 C 82 % 1023,6 hPa 0,0 l/m 12,7 km/h (3 Bft) SW 236 0 min 0,000 mm 0,0 UV-I 9 W/m -0,1 C -2,3 C 19,3 km/h (3 Bft) 94,87 %
26.11.2017 16:06 2,7 C 5,0 C 82 % 1023,5 hPa 0,0 l/m 9,5 km/h (2 Bft) W-SW 238 0 min 0,000 mm 0,0 UV-I 9 W/m -0,1 C -0,1 C 14,5 km/h (3 Bft) 96,36 %
26.11.2017 16:08 2,6 C 5,0 C 82 % 1023,5 hPa 0,0 l/m 13,7 km/h (3 Bft) W-SW 248 0 min 0,000 mm 0,0 UV-I 7 W/m -0,2 C -3,1 C 17,7 km/h (3 Bft) 97,62 %
26.11.2017 16:10 2,6 C 5,0 C 82 % 1023,5 hPa 0,0 l/m 9,3 km/h (2 Bft) SW 228 0 min 0,000 mm 0,0 UV-I 7 W/m -0,2 C -0,0 C 12,9 km/h (3 Bft) 98,08 %
26.11.2017 16:12 2,6 C 5,0 C 82 % 1023,5 hPa 0,0 l/m 12,6 km/h (3 Bft) SW 232 0 min 0,000 mm 0,0 UV-I 6 W/m -0,2 C -2,4 C 19,3 km/h (3 Bft) 97,78 %
26.11.2017 16:14 2,6 C 5,0 C 82 % 1023,5 hPa 0,0 l/m 12,4 km/h (3 Bft) SW 225 0 min 0,000 mm 0,0 UV-I 5 W/m -0,2 C -2,3 C 17,7 km/h (3 Bft) 97,37 %
26.11.2017 16:16 2,7 C 5,0 C 82 % 1023,6 hPa 0,0 l/m 13,2 km/h (3 Bft) W-SW 254 0 min 0,000 mm 0,0 UV-I 5 W/m -0,1 C -2,7 C 17,7 km/h (3 Bft) 98,21 %
26.11.2017 16:18 2,7 C 5,0 C 82 % 1023,6 hPa 0,0 l/m 11,1 km/h (2 Bft) W-SW 244 0 min 0,000 mm 0,0 UV-I 5 W/m -0,1 C -1,3 C 16,1 km/h (3 Bft) 95,12 %
26.11.2017 16:20 2,7 C 5,0 C 82 % 1023,6 hPa 0,0 l/m 16,6 km/h (3 Bft) W-SW 253 0 min 0,000 mm 0,0 UV-I 5 W/m -0,1 C -4,6 C 22,5 km/h (4 Bft) 98,11 %
26.11.2017 16:22 2,7 C 5,0 C 81 % 1023,6 hPa 0,0 l/m 15,1 km/h (3 Bft) W-SW 248 0 min 0,000 mm 0,0 UV-I 5 W/m -0,2 C -3,8 C 20,9 km/h (4 Bft) 97,37 %
26.11.2017 16:24 2,7 C 5,0 C 81 % 1023,6 hPa 0,0 l/m 13,6 km/h (3 Bft) W-SW 250 0 min 0,000 mm 0,0 UV-I 5 W/m -0,2 C -2,9 C 20,9 km/h (4 Bft) 96,23 %
26.11.2017 16:26 2,7 C 5,0 C 81 % 1023,6 hPa 0,0 l/m 13,3 km/h (3 Bft) W-SW 237 0 min 0,000 mm 0,0 UV-I 5 W/m -0,2 C -2,7 C 20,9 km/h (4 Bft) 97,56 %
26.11.2017 16:28 2,7 C 5,0 C 81 % 1023,6 hPa 0,0 l/m 12,3 km/h (3 Bft) S-SW 213 0 min 0,000 mm 0,0 UV-I 5 W/m -0,2 C -2,1 C 19,3 km/h (3 Bft) 98,11 %
26.11.2017 16:30 2,7 C 5,0 C 81 % 1023,6 hPa 0,0 l/m 12,2 km/h (2 Bft) SW 225 0 min 0,000 mm 0,0 UV-I 0 W/m -0,2 C -2,0 C 17,7 km/h (3 Bft) 97,56 %
26.11.2017 16:32 2,7 C 5,0 C 81 % 1023,6 hPa 0,0 l/m 15,3 km/h (3 Bft) W-SW 257 0 min 0,000 mm 0,0 UV-I 0 W/m -0,2 C -3,9 C 22,5 km/h (4 Bft) 97,87 %
26.11.2017 16:34 2,7 C 5,0 C 81 % 1023,6 hPa 0,0 l/m 15,3 km/h (3 Bft) SW 228 0 min 0,000 mm 0,0 UV-I 0 W/m -0,2 C -3,9 C 20,9 km/h (4 Bft) 100,00 %
26.11.2017 16:36 2,7 C 5,0 C 80 % 1023,7 hPa 0,0 l/m 12,3 km/h (3 Bft) S-SW 200 0 min 0,000 mm 0,0 UV-I 0 W/m -0,4 C -2,1 C 20,9 km/h (4 Bft) 100,00 %
26.11.2017 16:38 2,7 C 5,0 C 81 % 1023,7 hPa 0,0 l/m 13,7 km/h (3 Bft) W-SW 242 0 min 0,000 mm 0,0 UV-I 0 W/m -0,2 C -3,0 C 17,7 km/h (3 Bft) 96,30 %
26.11.2017 16:40 2,7 C 5,0 C 81 % 1023,7 hPa 0,0 l/m 11,1 km/h (2 Bft) W-SW 238 0 min 0,000 mm 0,0 UV-I 0 W/m -0,2 C -1,3 C 16,1 km/h (3 Bft) 100,00 %
26.11.2017 16:42 2,7 C 5,0 C 81 % 1023,7 hPa 0,0 l/m 10,9 km/h (2 Bft) W-SW 257 0 min 0,000 mm 0,0 UV-I 0 W/m -0,2 C -1,1 C 17,7 km/h (3 Bft) 98,51 %
26.11.2017 16:44 2,6 C 5,0 C 80 % 1023,7 hPa 0,0 l/m 16,8 km/h (3 Bft) W-SW 257 0 min 0,000 mm 0,0 UV-I 0 W/m -0,5 C -4,8 C 22,5 km/h (4 Bft) 98,00 %
26.11.2017 16:46 2,7 C 5,0 C 80 % 1023,7 hPa 0,0 l/m 15,9 km/h (3 Bft) W-SW 253 0 min 0,000 mm 0,0 UV-I 0 W/m -0,4 C -4,2 C 24,1 km/h (4 Bft) 97,87 %
26.11.2017 16:48 2,7 C 5,0 C 80 % 1023,7 hPa 0,0 l/m 13,1 km/h (3 Bft) SW 220 0 min 0,000 mm 0,0 UV-I 0 W/m -0,4 C -2,6 C 22,5 km/h (4 Bft) 100,00 %
26.11.2017 16:50 2,6 C 5,0 C 81 % 1023,8 hPa 0,0 l/m 11,5 km/h (2 Bft) W-SW 237 0 min 0,000 mm 0,0 UV-I 0 W/m -0,3 C -1,7 C 16,1 km/h (3 Bft) 100,00 %
26.11.2017 16:52 2,6 C 5,0 C 81 % 1023,8 hPa 0,0 l/m 9,0 km/h (2 Bft) W-SW 250 0 min 0,000 mm 0,0 UV-I 0 W/m -0,3 C 0,2 C 24,1 km/h (4 Bft) 98,11 %
26.11.2017 16:54 2,6 C 5,0 C 81 % 1023,8 hPa 0,0 l/m 13,8 km/h (3 Bft) SW 221 0 min 0,000 mm 0,0 UV-I 0 W/m -0,3 C -3,1 C 25,7 km/h (4 Bft) 94,00 %
26.11.2017 16:56 2,5 C 5,0 C 81 % 1023,8 hPa 0,0 l/m 14,1 km/h (3 Bft) S-SW 198 0 min 0,000 mm 0,0 UV-I 0 W/m -0,4 C -3,4 C 20,9 km/h (4 Bft) 97,37 %
26.11.2017 16:58 2,5 C 5,0 C 81 % 1023,8 hPa 0,0 l/m 12,5 km/h (3 Bft) W-SW 240 0 min 0,000 mm 0,0 UV-I 0 W/m -0,4 C -2,5 C 19,3 km/h (3 Bft) 100,00 %
26.11.2017 17:00 2,4 C 5,0 C 81 % 1023,8 hPa 0,0 l/m 14,5 km/h (3 Bft) SW 215 0 min 0,025 mm 0,0 UV-I 0 W/m -0,5 C -3,8 C 20,9 km/h (4 Bft) 100,00 %
26.11.2017 17:02 2,4 C 5,0 C 80 % 1023,8 hPa 0,0 l/m 15,0 km/h (3 Bft) W-SW 251 0 min 0,000 mm 0,0 UV-I 0 W/m -0,7 C -4,1 C 20,9 km/h (4 Bft) 95,74 %
26.11.2017 17:04 2,4 C 5,0 C 80 % 1023,9 hPa 0,0 l/m 15,1 km/h (3 Bft) SW 221 0 min 0,000 mm 0,0 UV-I 0 W/m -0,7 C -4,1 C 22,5 km/h (4 Bft) 97,87 %
26.11.2017 17:06 2,4 C 5,0 C 80 % 1023,9 hPa 0,0 l/m 15,4 km/h (3 Bft) W 265 0 min 0,000 mm 0,0 UV-I 0 W/m -0,7 C -4,3 C 20,9 km/h (4 Bft) 97,73 %
26.11.2017 17:08 2,4 C 5,0 C 80 % 1023,9 hPa 0,0 l/m 11,9 km/h (2 Bft) W-SW 256 0 min 0,000 mm 0,0 UV-I 0 W/m -0,7 C -2,2 C 17,7 km/h (3 Bft) 96,23 %
26.11.2017 17:10 2,4 C 5,0 C 80 % 1024,0 hPa 0,0 l/m 12,7 km/h (3 Bft) SW 234 0 min 0,000 mm 0,0 UV-I 0 W/m -0,7 C -2,7 C 19,3 km/h (3 Bft) 95,45 %
26.11.2017 17:12 2,4 C 5,0 C 80 % 1024,0 hPa 0,0 l/m 12,8 km/h (3 Bft) W-SW 245 0 min 0,000 mm 0,0 UV-I 0 W/m -0,7 C -2,8 C 16,1 km/h (3 Bft) 97,37 %
26.11.2017 17:14 2,4 C 5,0 C 80 % 1024,0 hPa 0,0 l/m 10,8 km/h (2 Bft) W-SW 244 0 min 0,000 mm 0,0 UV-I 0 W/m -0,7 C -1,4 C 17,7 km/h (3 Bft) 98,11 %
26.11.2017 17:16 2,4 C 5,0 C 81 % 1024,1 hPa 0,0 l/m 11,5 km/h (2 Bft) W-SW 257 0 min 0,000 mm 0,0 UV-I 0 W/m -0,5 C -1,9 C 19,3 km/h (3 Bft) 100,00 %
26.11.2017 17:18 2,4 C 5,0 C 81 % 1024,1 hPa 0,0 l/m 10,9 km/h (2 Bft) W 274 0 min 0,000 mm 0,0 UV-I 0 W/m -0,5 C -1,5 C 17,7 km/h (3 Bft) 100,00 %
26.11.2017 17:20 2,3 C 5,0 C 81 % 1024,1 hPa 0,0 l/m 8,6 km/h (2 Bft) W 260 0 min 0,000 mm 0,0 UV-I 0 W/m -0,6 C 0,2 C 14,5 km/h (3 Bft) 100,00 %
26.11.2017 17:22 2,3 C 5,0 C 81 % 1024,1 hPa 0,0 l/m 9,8 km/h (2 Bft) W-SW 254 0 min 0,000 mm 0,0 UV-I 0 W/m -0,6 C -0,8 C 14,5 km/h (3 Bft) 97,56 %
26.11.2017 17:24 2,3 C 5,0 C 81 % 1024,1 hPa 0,0 l/m 9,2 km/h (2 Bft) W-SW 253 0 min 0,000 mm 0,0 UV-I 0 W/m -0,6 C -0,3 C 12,9 km/h (3 Bft) 100,00 %
26.11.2017 17:26 2,3 C 5,0 C 82 % 1024,1 hPa 0,0 l/m 9,5 km/h (2 Bft) SW 234 0 min 0,000 mm 0,0 UV-I 0 W/m -0,4 C -0,5 C 14,5 km/h (3 Bft) 97,62 %
26.11.2017 17:28 2,2 C 5,0 C 82 % 1024,0 hPa 0,0 l/m 9,0 km/h (2 Bft) W-SW 246 0 min 0,000 mm 0,0 UV-I 0 W/m -0,5 C -0,2 C 14,5 km/h (3 Bft) 98,00 %
26.11.2017 17:30 2,2 C 5,0 C 82 % 1024,0 hPa 0,0 l/m 9,4 km/h (2 Bft) W-SW 245 0 min 0,000 mm 0,0 UV-I 0 W/m -0,5 C -0,5 C 14,5 km/h (3 Bft) 100,00 %
26.11.2017 17:32 2,2 C 5,0 C 82 % 1024,0 hPa 0,0 l/m 10,6 km/h (2 Bft) W-SW 247 0 min 0,000 mm 0,0 UV-I 0 W/m -0,5 C -1,5 C 16,1 km/h (3 Bft) 97,92 %
26.11.2017 17:34 2,2 C 5,0 C 82 % 1024,0 hPa 0,0 l/m 13,4 km/h (3 Bft) SW 215 0 min 0,000 mm 0,0 UV-I 0 W/m -0,5 C -3,4 C 20,9 km/h (4 Bft) 100,00 %
26.11.2017 17:36 2,3 C 5,0 C 81 % 1024,1 hPa 0,0 l/m 14,2 km/h (3 Bft) W-SW 244 0 min 0,000 mm 0,0 UV-I 0 W/m -0,6 C -3,7 C 22,5 km/h (4 Bft) 100,00 %
26.11.2017 17:38 2,3 C 5,0 C 81 % 1024,1 hPa 0,0 l/m 18,0 km/h (3 Bft) W-SW 244 0 min 0,000 mm 0,0 UV-I 0 W/m -0,6 C -5,7 C 25,7 km/h (4 Bft) 97,14 %
26.11.2017 17:40 2,3 C 5,0 C 81 % 1024,2 hPa 0,0 l/m 17,2 km/h (3 Bft) W-SW 240 0 min 0,000 mm 0,0 UV-I 0 W/m -0,6 C -5,4 C 24,1 km/h (4 Bft) 98,11 %
26.11.2017 17:42 2,3 C 5,0 C 82 % 1024,2 hPa 0,0 l/m 18,1 km/h (3 Bft) W-SW 252 0 min 0,000 mm 0,0 UV-I 0 W/m -0,4 C -5,8 C 27,4 km/h (4 Bft) 100,00 %
26.11.2017 17:44 2,1 C 5,0 C 83 % 1024,1 hPa 0,0 l/m 15,5 km/h (3 Bft) SW 228 0 min 0,000 mm 0,0 UV-I 0 W/m -0,5 C -4,7 C 24,1 km/h (4 Bft) 100,00 %
26.11.2017 17:46 1,9 C 5,0 C 85 % 1024,1 hPa 0,0 l/m 21,0 km/h (4 Bft) W-SW 250 0 min 0,000 mm 0,0 UV-I 0 W/m -0,3 C -7,6 C 29,0 km/h (5 Bft) 100,00 %
26.11.2017 17:48 1,6 C 5,0 C 86 % 1024,1 hPa 0,0 l/m 14,9 km/h (3 Bft) W-SW 255 0 min 0,000 mm 0,0 UV-I 0 W/m -0,5 C -5,0 C 20,9 km/h (4 Bft) 100,00 %
26.11.2017 17:50 1,3 C 5,0 C 88 % 1024,1 hPa 0,0 l/m 13,0 km/h (3 Bft) W-SW 243 0 min 0,000 mm 0,0 UV-I 0 W/m -0,5 C -4,2 C 20,9 km/h (4 Bft) 100,00 %
26.11.2017 17:52 1,2 C 5,0 C 89 % 1024,2 hPa 0,0 l/m 12,3 km/h (3 Bft) W-SW 241 0 min 0,000 mm 0,0 UV-I 0 W/m -0,4 C -3,8 C 19,3 km/h (3 Bft) 100,00 %
26.11.2017 17:54 1,1 C 5,0 C 89 % 1024,3 hPa 0,0 l/m 13,8 km/h (3 Bft) W-SW 258 0 min 0,000 mm 0,0 UV-I 0 W/m -0,5 C -4,9 C 20,9 km/h (4 Bft) 95,12 %
26.11.2017 17:56 1,0 C 5,0 C 89 % 1024,3 hPa 0,0 l/m 13,2 km/h (3 Bft) W 259 0 min 0,000 mm 0,0 UV-I 0 W/m -0,6 C -4,7 C 17,7 km/h (3 Bft) 100,00 %
26.11.2017 17:58 0,9 C 5,0 C 89 % 1024,4 hPa 0,0 l/m 9,9 km/h (2 Bft) W-SW 241 0 min 0,000 mm 0,0 UV-I 0 W/m -0,7 C -2,4 C 16,1 km/h (3 Bft) 97,87 %
26.11.2017 18:00 0,9 C 5,0 C 90 % 1024,4 hPa 0,0 l/m 10,3 km/h (2 Bft) W-SW 238 0 min 0,000 mm 0,0 UV-I 0 W/m -0,6 C -2,7 C 16,1 km/h (3 Bft) 100,00 %
26.11.2017 18:02 0,9 C 5,0 C 90 % 1024,4 hPa 0,0 l/m 9,6 km/h (2 Bft) SW 232 0 min 0,026 mm 0,0 UV-I 0 W/m -0,6 C -2,1 C 16,1 km/h (3 Bft) 98,11 %
26.11.2017 18:04 0,8 C 5,0 C 90 % 1024,4 hPa 0,0 l/m 12,1 km/h (2 Bft) SW 231 0 min 0,000 mm 0,0 UV-I 0 W/m -0,6 C -4,2 C 19,3 km/h (3 Bft) 95,24 %
26.11.2017 18:06 0,8 C 5,0 C 90 % 1024,4 hPa 0,0 l/m 10,6 km/h (2 Bft) SW 232 0 min 0,000 mm 0,0 UV-I 0 W/m -0,6 C -3,0 C 16,1 km/h (3 Bft) 96,36 %
26.11.2017 18:08 0,8 C 5,0 C 90 % 1024,4 hPa 0,0 l/m 11,5 km/h (2 Bft) SW 230 0 min 0,000 mm 0,0 UV-I 0 W/m -0,6 C -3,7 C 17,7 km/h (3 Bft) 100,00 %
26.11.2017 18:10 0,7 C 5,0 C 91 % 1024,6 hPa 0,0 l/m 14,7 km/h (3 Bft) W-SW 238 0 min 0,000 mm 0,0 UV-I 0 W/m -0,6 C -6,0 C 22,5 km/h (4 Bft) 96,23 %
26.11.2017 18:12 0,7 C 5,0 C 91 % 1024,5 hPa 0,0 l/m 15,1 km/h (3 Bft) W-SW 243 0 min 0,000 mm 0,0 UV-I 0 W/m -0,6 C -6,2 C 20,9 km/h (4 Bft) 93,62 %
26.11.2017 18:14 0,7 C 5,0 C 91 % 1024,6 hPa 0,0 l/m 10,2 km/h (2 Bft) SW 232 0 min 0,000 mm 0,0 UV-I 0 W/m -0,6 C -2,8 C 16,1 km/h (3 Bft) 97,73 %
26.11.2017 18:16 0,6 C 5,0 C 91 % 1024,6 hPa 0,0 l/m 12,7 km/h (3 Bft) SW 234 0 min 0,000 mm 0,0 UV-I 0 W/m -0,7 C -4,8 C 22,5 km/h (4 Bft) 94,74 %
26.11.2017 18:18 0,6 C 5,0 C 91 % 1024,6 hPa 0,0 l/m 11,5 km/h (2 Bft) SW 224 0 min 0,000 mm 0,0 UV-I 0 W/m -0,7 C -3,9 C 19,3 km/h (3 Bft) 98,31 %
26.11.2017 18:20 0,5 C 5,0 C 91 % 1024,6 hPa 0,0 l/m 9,7 km/h (2 Bft) SW 230 0 min 0,000 mm 0,0 UV-I 0 W/m -0,8 C -2,6 C 16,1 km/h (3 Bft) 96,00 %
26.11.2017 18:23 0,4 C 5,0 C 91 % 1024,6 hPa 0,0 l/m 7,8 km/h (2 Bft) W-SW 248 0 min 0,000 mm 0,0 UV-I 0 W/m -0,9 C -1,0 C 14,5 km/h (3 Bft) 94,03 %
26.11.2017 18:24 0,4 C 5,0 C 91 % 1024,6 hPa 0,0 l/m 6,7 km/h (2 Bft) SW 233 0 min 0,000 mm 0,0 UV-I 0 W/m -0,9 C 0,1 C 12,9 km/h (3 Bft) 95,83 %
26.11.2017 18:26 0,4 C 5,0 C 92 % 1024,7 hPa 0,0 l/m 10,3 km/h (2 Bft) S-SW 202 0 min 0,000 mm 0,0 UV-I 0 W/m -0,7 C -3,3 C 16,1 km/h (3 Bft) 95,45 %
26.11.2017 18:28 0,4 C 5,0 C 92 % 1024,7 hPa 0,0 l/m 11,8 km/h (2 Bft) W-SW 255 0 min 0,000 mm 0,0 UV-I 0 W/m -0,7 C -4,4 C 16,1 km/h (3 Bft) 96,00 %
26.11.2017 18:30 0,4 C 5,0 C 92 % 1024,8 hPa 0,0 l/m 8,5 km/h (2 Bft) SW 225 0 min 0,000 mm 0,0 UV-I 0 W/m -0,7 C -1,7 C 12,9 km/h (3 Bft) 92,68 %
26.11.2017 18:32 0,4 C 5,0 C 92 % 1024,7 hPa 0,0 l/m 10,0 km/h (2 Bft) SW 217 0 min 0,000 mm 0,0 UV-I 0 W/m -0,7 C -3,0 C 19,3 km/h (3 Bft) 95,12 %
26.11.2017 18:34 0,4 C 5,0 C 92 % 1024,8 hPa 0,0 l/m 11,5 km/h (2 Bft) W-SW 242 0 min 0,000 mm 0,0 UV-I 0 W/m -0,7 C -4,2 C 16,1 km/h (3 Bft) 96,36 %
26.11.2017 18:36 0,4 C 5,0 C 92 % 1024,8 hPa 0,0 l/m 9,0 km/h (2 Bft) SW 221 0 min 0,000 mm 0,0 UV-I 0 W/m -0,7 C -2,2 C 14,5 km/h (3 Bft) 92,68 %
26.11.2017 18:38 0,4 C 5,0 C 92 % 1024,8 hPa 0,0 l/m 7,8 km/h (2 Bft) SW 229 0 min 0,000 mm 0,0 UV-I 0 W/m -0,7 C -1,0 C 11,3 km/h (2 Bft) 94,64 %
26.11.2017 18:40 0,4 C 5,0 C 92 % 1024,8 hPa 0,0 l/m 7,3 km/h (2 Bft) W-SW 241 0 min 0,000 mm 0,0 UV-I 0 W/m -0,7 C -0,5 C 12,9 km/h (3 Bft) 92,11 %
26.11.2017 18:42 0,4 C 5,0 C 92 % 1024,9 hPa 0,0 l/m 10,5 km/h (2 Bft) W-SW 240 0 min 0,000 mm 0,0 UV-I 0 W/m -0,7 C -3,4 C 16,1 km/h (3 Bft) 96,00 %
26.11.2017 18:44 0,4 C 5,0 C 92 % 1024,9 hPa 0,0 l/m 8,9 km/h (2 Bft) SW 234 0 min 0,000 mm 0,0 UV-I 0 W/m -0,7 C -2,1 C 14,5 km/h (3 Bft) 98,00 %
26.11.2017 18:46 0,4 C 5,0 C 92 % 1024,8 hPa 0,0 l/m 11,2 km/h (2 Bft) SW 225 0 min 0,000 mm 0,0 UV-I 0 W/m -0,7 C -4,0 C 16,1 km/h (3 Bft) 94,44 %
26.11.2017 18:48 0,4 C 5,0 C 92 % 1024,8 hPa 0,0 l/m 10,8 km/h (2 Bft) SW 236 0 min 0,000 mm 0,0 UV-I 0 W/m -0,7 C -3,6 C 12,9 km/h (3 Bft) 96,43 %
26.11.2017 18:50 0,4 C 5,0 C 93 % 1024,9 hPa 0,0 l/m 12,9 km/h (3 Bft) SW 228 0 min 0,000 mm 0,0 UV-I 0 W/m -0,6 C -5,2 C 16,1 km/h (3 Bft) 98,00 %
26.11.2017 18:52 0,5 C 5,0 C 92 % 1024,9 hPa 0,0 l/m 12,5 km/h (3 Bft) SW 225 0 min 0,000 mm 0,0 UV-I 0 W/m -0,6 C -4,8 C 17,7 km/h (3 Bft) 97,73 %
26.11.2017 18:54 0,6 C 5,0 C 92 % 1024,9 hPa 0,0 l/m 10,2 km/h (2 Bft) SW 229 0 min 0,000 mm 0,0 UV-I 0 W/m -0,5 C -2,9 C 16,1 km/h (3 Bft) 98,11 %
26.11.2017 18:56 0,6 C 5,0 C 92 % 1024,9 hPa 0,0 l/m 10,6 km/h (2 Bft) SW 232 0 min 0,000 mm 0,0 UV-I 0 W/m -0,5 C -3,3 C 17,7 km/h (3 Bft) 97,37 %
26.11.2017 18:58 0,6 C 5,0 C 92 % 1024,9 hPa 0,0 l/m 12,5 km/h (3 Bft) W-SW 253 0 min 0,000 mm 0,0 UV-I 0 W/m -0,5 C -4,7 C 17,7 km/h (3 Bft) 98,00 %
26.11.2017 19:00 0,7 C 5,0 C 92 % 1024,9 hPa 0,0 l/m 11,3 km/h (2 Bft) W-SW 257 0 min 0,000 mm 0,0 UV-I 0 W/m -0,4 C -3,7 C 19,3 km/h (3 Bft) 97,56 %
26.11.2017 19:02 0,7 C 5,0 C 92 % 1024,9 hPa 0,0 l/m 10,1 km/h (2 Bft) SW 218 0 min 0,000 mm 0,0 UV-I 0 W/m -0,4 C -2,8 C 17,7 km/h (3 Bft) 98,18 %
26.11.2017 19:04 0,7 C 5,0 C 92 % 1024,9 hPa 0,0 l/m 14,0 km/h (3 Bft) S-SW 203 0 min 0,000 mm 0,0 UV-I 0 W/m -0,4 C -5,5 C 19,3 km/h (3 Bft) 97,56 %
26.11.2017 19:06 0,8 C 5,0 C 91 % 1024,9 hPa 0,0 l/m 9,5 km/h (2 Bft) SW 230 0 min 0,000 mm 0,0 UV-I 0 W/m -0,5 C -2,2 C 16,1 km/h (3 Bft) 97,73 %
26.11.2017 19:08 0,8 C 5,0 C 91 % 1024,8 hPa 0,0 l/m 11,6 km/h (2 Bft) S-SW 205 0 min 0,000 mm 0,0 UV-I 0 W/m -0,5 C -3,8 C 16,1 km/h (3 Bft) 93,22 %
26.11.2017 19:10 0,8 C 5,0 C 91 % 1024,8 hPa 0,0 l/m 14,1 km/h (3 Bft) W 269 0 min 0,000 mm 0,0 UV-I 0 W/m -0,5 C -5,5 C 25,7 km/h (4 Bft) 100,00 %
26.11.2017 19:12 0,9 C 5,0 C 91 % 1024,9 hPa 0,0 l/m 10,8 km/h (2 Bft) W-SW 238 0 min 0,000 mm 0,0 UV-I 0 W/m -0,4 C -3,1 C 16,1 km/h (3 Bft) 95,45 %
26.11.2017 19:14 0,9 C 5,0 C 91 % 1024,9 hPa 0,0 l/m 12,9 km/h (3 Bft) W-SW 244 0 min 0,000 mm 0,0 UV-I 0 W/m -0,4 C -4,6 C 17,7 km/h (3 Bft) 98,21 %
26.11.2017 19:16 0,9 C 5,0 C 90 % 1025,0 hPa 0,0 l/m 13,9 km/h (3 Bft) W-SW 246 0 min 0,000 mm 0,0 UV-I 0 W/m -0,6 C -5,2 C 22,5 km/h (4 Bft) 97,56 %
26.11.2017 19:18 0,9 C 5,0 C 90 % 1024,9 hPa 0,0 l/m 12,2 km/h (2 Bft) W-SW 253 0 min 0,000 mm 0,0 UV-I 0 W/m -0,6 C -4,1 C 20,9 km/h (4 Bft) 98,00 %
26.11.2017 19:20 0,9 C 5,0 C 90 % 1024,9 hPa 0,0 l/m 12,8 km/h (3 Bft) S-SW 209 0 min 0,000 mm 0,0 UV-I 0 W/m -0,6 C -4,5 C 20,9 km/h (4 Bft) 98,00 %
26.11.2017 19:22 0,9 C 5,0 C 90 % 1024,9 hPa 0,0 l/m 14,6 km/h (3 Bft) W-SW 238 0 min 0,000 mm 0,0 UV-I 0 W/m -0,6 C -5,7 C 20,9 km/h (4 Bft) 97,62 %
26.11.2017 19:24 0,9 C 5,0 C 90 % 1024,9 hPa 0,0 l/m 12,6 km/h (3 Bft) SW 221 0 min 0,000 mm 0,0 UV-I 0 W/m -0,6 C -4,4 C 19,3 km/h (3 Bft) 97,62 %
26.11.2017 19:26 0,9 C 5,0 C 90 % 1024,9 hPa 0,0 l/m 12,7 km/h (3 Bft) W-SW 246 0 min 0,000 mm 0,0 UV-I 0 W/m -0,6 C -4,4 C 19,3 km/h (3 Bft) 100,00 %
26.11.2017 19:28 0,8 C 5,0 C 90 % 1024,9 hPa 0,0 l/m 10,9 km/h (2 Bft) SW 227 0 min 0,000 mm 0,0 UV-I 0 W/m -0,6 C -3,3 C 17,7 km/h (3 Bft) 100,00 %
26.11.2017 19:30 0,8 C 5,0 C 90 % 1024,9 hPa 0,0 l/m 11,4 km/h (2 Bft) W-SW 238 0 min 0,000 mm 0,0 UV-I 0 W/m -0,6 C -3,6 C 17,7 km/h (3 Bft) 100,00 %
26.11.2017 19:32 0,8 C 5,0 C 90 % 1025,0 hPa 0,0 l/m 12,0 km/h (2 Bft) SW 225 0 min 0,000 mm 0,0 UV-I 0 W/m -0,6 C -4,1 C 16,1 km/h (3 Bft) 100,00 %
26.11.2017 19:34 0,9 C 5,0 C 90 % 1025,0 hPa 0,0 l/m 11,4 km/h (2 Bft) W 263 0 min 0,000 mm 0,0 UV-I 0 W/m -0,6 C -3,5 C 17,7 km/h (3 Bft) 100,00 %
26.11.2017 19:36 0,9 C 5,0 C 90 % 1025,0 hPa 0,0 l/m 11,4 km/h (2 Bft) W-SW 244 0 min 0,000 mm 0,0 UV-I 0 W/m -0,6 C -3,5 C 19,3 km/h (3 Bft) 100,00 %
26.11.2017 19:38 0,9 C 5,0 C 90 % 1025,0 hPa 0,0 l/m 10,5 km/h (2 Bft) S-SW 207 0 min 0,000 mm 0,0 UV-I 0 W/m -0,6 C -2,9 C 14,5 km/h (3 Bft) 97,56 %
26.11.2017 19:40 0,9 C 5,0 C 89 % 1025,0 hPa 0,0 l/m 11,0 km/h (2 Bft) SW 232 0 min 0,000 mm 0,0 UV-I 0 W/m -0,7 C -3,2 C 16,1 km/h (3 Bft) 97,87 %
26.11.2017 19:42 0,9 C 5,0 C 89 % 1025,0 hPa 0,0 l/m 12,6 km/h (3 Bft) SW 225 0 min 0,000 mm 0,0 UV-I 0 W/m -0,7 C -4,4 C 19,3 km/h (3 Bft) 98,00 %
26.11.2017 19:44 0,8 C 5,0 C 89 % 1024,9 hPa 0,0 l/m 10,4 km/h (2 Bft) W-SW 247 0 min 0,000 mm 0,0 UV-I 0 W/m -0,8 C -2,9 C 16,1 km/h (3 Bft) 100,00 %
26.11.2017 19:46 0,8 C 5,0 C 89 % 1024,9 hPa 0,0 l/m 10,5 km/h (2 Bft) SW 222 0 min 0,000 mm 0,0 UV-I 0 W/m -0,8 C -3,0 C 16,1 km/h (3 Bft) 100,00 %
26.11.2017 19:48 0,9 C 5,0 C 89 % 1024,9 hPa 0,0 l/m 13,0 km/h (3 Bft) SW 219 0 min 0,000 mm 0,0 UV-I 0 W/m -0,7 C -4,6 C 22,5 km/h (4 Bft) 98,00 %
26.11.2017 19:50 0,9 C 5,0 C 89 % 1024,9 hPa 0,0 l/m 12,4 km/h (3 Bft) SW 233 0 min 0,000 mm 0,0 UV-I 0 W/m -0,7 C -4,2 C 17,7 km/h (3 Bft) 100,00 %
26.11.2017 19:52 0,9 C 5,0 C 89 % 1024,9 hPa 0,0 l/m 10,7 km/h (2 Bft) SW 232 0 min 0,000 mm 0,0 UV-I 0 W/m -0,7 C -3,0 C 16,1 km/h (3 Bft) 98,00 %
26.11.2017 19:54 0,9 C 5,0 C 89 % 1024,9 hPa 0,0 l/m 12,0 km/h (2 Bft) SW 219 0 min 0,000 mm 0,0 UV-I 0 W/m -0,7 C -4,0 C 17,7 km/h (3 Bft) 97,56 %
26.11.2017 19:56 0,9 C 5,0 C 89 % 1024,9 hPa 0,0 l/m 14,0 km/h (3 Bft) SW 230 0 min 0,000 mm 0,0 UV-I 0 W/m -0,7 C -5,3 C 19,3 km/h (3 Bft) 100,00 %
26.11.2017 19:58 1,0 C 5,0 C 89 % 1024,9 hPa 0,0 l/m 13,8 km/h (3 Bft) W-SW 252 0 min 0,000 mm 0,0 UV-I 0 W/m -0,6 C -5,0 C 19,3 km/h (3 Bft) 97,87 %
26.11.2017 20:00 1,0 C 5,0 C 88 % 1024,9 hPa 0,0 l/m 13,5 km/h (3 Bft) W-SW 248 0 min 0,000 mm 0,0 UV-I 0 W/m -0,8 C -4,9 C 20,9 km/h (4 Bft) 97,87 %
26.11.2017 20:02 1,0 C 5,0 C 89 % 1024,9 hPa 0,0 l/m 15,0 km/h (3 Bft) W-SW 242 0 min 0,000 mm 0,0 UV-I 0 W/m -0,6 C -5,8 C 20,9 km/h (4 Bft) 96,00 %
26.11.2017 20:04 1,1 C 5,0 C 88 % 1024,9 hPa 0,0 l/m 12,4 km/h (3 Bft) W-SW 258 0 min 0,000 mm 0,0 UV-I 0 W/m -0,7 C -4,0 C 19,3 km/h (3 Bft) 100,00 %
26.11.2017 20:06 1,1 C 5,0 C 88 % 1024,9 hPa 0,0 l/m 13,0 km/h (3 Bft) SW 232 0 min 0,000 mm 0,0 UV-I 0 W/m -0,7 C -4,4 C 19,3 km/h (3 Bft) 100,00 %
26.11.2017 20:08 1,1 C 5,0 C 88 % 1024,9 hPa 0,0 l/m 12,8 km/h (3 Bft) W 267 0 min 0,000 mm 0,0 UV-I 0 W/m -0,7 C -4,3 C 24,1 km/h (4 Bft) 98,11 %
26.11.2017 20:10 1,1 C 5,0 C 88 % 1024,9 hPa 0,0 l/m 15,3 km/h (3 Bft) SW 234 0 min 0,000 mm 0,0 UV-I 0 W/m -0,7 C -5,8 C 20,9 km/h (4 Bft) 100,00 %
26.11.2017 20:12 1,1 C 5,0 C 88 % 1024,9 hPa 0,0 l/m 13,9 km/h (3 Bft) W 267 0 min 0,000 mm 0,0 UV-I 0 W/m -0,7 C -5,0 C 27,4 km/h (4 Bft) 100,00 %
26.11.2017 20:14 1,2 C 5,0 C 88 % 1024,9 hPa 0,0 l/m 14,9 km/h (3 Bft) W-SW 256 0 min 0,000 mm 0,0 UV-I 0 W/m -0,6 C -5,5 C 19,3 km/h (3 Bft) 100,00 %
26.11.2017 20:16 1,2 C 5,0 C 87 % 1025,0 hPa 0,0 l/m 15,0 km/h (3 Bft) W-SW 255 0 min 0,000 mm 0,0 UV-I 0 W/m -0,7 C -5,5 C 19,3 km/h (3 Bft) 97,73 %
26.11.2017 20:18 1,2 C 5,0 C 87 % 1025,0 hPa 0,0 l/m 15,1 km/h (3 Bft) SW 232 0 min 0,000 mm 0,0 UV-I 0 W/m -0,7 C -5,6 C 24,1 km/h (4 Bft) 96,55 %
26.11.2017 20:20 1,3 C 5,0 C 87 % 1025,0 hPa 0,0 l/m 13,9 km/h (3 Bft) W 264 0 min 0,000 mm 0,0 UV-I 0 W/m -0,6 C -4,7 C 19,3 km/h (3 Bft) 98,46 %
26.11.2017 20:22 1,3 C 5,0 C 87 % 1025,0 hPa 0,0 l/m 17,6 km/h (3 Bft) W 262 0 min 0,000 mm 0,0 UV-I 0 W/m -0,6 C -6,8 C 25,7 km/h (4 Bft) 95,45 %
26.11.2017 20:24 1,3 C 5,0 C 87 % 1025,1 hPa 0,0 l/m 13,7 km/h (3 Bft) W-SW 255 0 min 0,000 mm 0,0 UV-I 0 W/m -0,6 C -4,6 C 22,5 km/h (4 Bft) 96,00 %
26.11.2017 20:26 1,3 C 5,0 C 87 % 1025,1 hPa 0,0 l/m 17,4 km/h (3 Bft) SW 229 0 min 0,000 mm 0,0 UV-I 0 W/m -0,6 C -6,7 C 25,7 km/h (4 Bft) 95,74 %
26.11.2017 20:28 1,3 C 5,0 C 86 % 1025,1 hPa 0,0 l/m 10,6 km/h (2 Bft) W 263 0 min 0,000 mm 0,0 UV-I 0 W/m -0,8 C -2,5 C 17,7 km/h (3 Bft) 97,73 %
26.11.2017 20:30 1,3 C 5,0 C 87 % 1025,1 hPa 0,0 l/m 10,0 km/h (2 Bft) S-SW 213 0 min 0,000 mm 0,0 UV-I 0 W/m -0,6 C -2,0 C 17,7 km/h (3 Bft) 98,00 %
26.11.2017 20:32 1,3 C 5,0 C 87 % 1025,1 hPa 0,0 l/m 11,0 km/h (2 Bft) SW 234 0 min 0,000 mm 0,0 UV-I 0 W/m -0,6 C -2,8 C 17,7 km/h (3 Bft) 98,04 %
26.11.2017 20:34 1,3 C 5,0 C 87 % 1025,1 hPa 0,0 l/m 11,2 km/h (2 Bft) W-SW 251 0 min 0,000 mm 0,0 UV-I 0 W/m -0,6 C -2,9 C 17,7 km/h (3 Bft) 97,37 %
26.11.2017 20:36 1,3 C 5,0 C 86 % 1025,0 hPa 0,0 l/m 9,7 km/h (2 Bft) W-SW 242 0 min 0,000 mm 0,0 UV-I 0 W/m -0,8 C -1,8 C 14,5 km/h (3 Bft) 97,56 %
26.11.2017 20:38 1,4 C 5,0 C 86 % 1025,0 hPa 0,0 l/m 13,3 km/h (3 Bft) W-SW 238 0 min 0,000 mm 0,0 UV-I 0 W/m -0,7 C -4,3 C 20,9 km/h (4 Bft) 94,64 %
26.11.2017 20:40 1,4 C 5,0 C 86 % 1025,0 hPa 0,0 l/m 12,0 km/h (2 Bft) W-SW 240 0 min 0,000 mm 0,0 UV-I 0 W/m -0,7 C -3,4 C 17,7 km/h (3 Bft) 97,87 %
26.11.2017 20:42 1,4 C 5,0 C 86 % 1025,0 hPa 0,0 l/m 14,7 km/h (3 Bft) W 261 0 min 0,000 mm 0,0 UV-I 0 W/m -0,7 C -5,1 C 20,9 km/h (4 Bft) 97,87 %
26.11.2017 20:44 1,4 C 5,0 C 86 % 1025,0 hPa 0,0 l/m 9,9 km/h (2 Bft) W 262 0 min 0,000 mm 0,0 UV-I 0 W/m -0,7 C -1,8 C 16,1 km/h (3 Bft) 96,23 %
26.11.2017 20:46 1,4 C 5,0 C 86 % 1025,0 hPa 0,0 l/m 12,8 km/h (3 Bft) SW 230 0 min 0,000 mm 0,0 UV-I 0 W/m -0,7 C -3,9 C 17,7 km/h (3 Bft) 95,24 %
26.11.2017 20:48 1,4 C 5,0 C 86 % 1025,1 hPa 0,0 l/m 12,8 km/h (3 Bft) SW 218 0 min 0,000 mm 0,0 UV-I 0 W/m -0,7 C -3,9 C 20,9 km/h (4 Bft) 95,45 %
26.11.2017 20:50 1,4 C 5,0 C 86 % 1025,1 hPa 0,0 l/m 9,9 km/h (2 Bft) W-SW 258 0 min 0,000 mm 0,0 UV-I 0 W/m -0,7 C -1,8 C 14,5 km/h (3 Bft) 98,11 %
26.11.2017 20:53 1,4 C 5,0 C 86 % 1025,2 hPa 0,0 l/m 11,7 km/h (2 Bft) W-SW 242 0 min 0,000 mm 0,0 UV-I 0 W/m -0,7 C -3,2 C 19,3 km/h (3 Bft) 97,26 %
26.11.2017 20:54 1,4 C 5,0 C 86 % 1025,2 hPa 0,0 l/m 8,4 km/h (2 Bft) W 261 0 min 0,000 mm 0,0 UV-I 0 W/m -0,7 C -0,5 C 11,3 km/h (2 Bft) 100,00 %
26.11.2017 20:56 1,4 C 5,0 C 86 % 1025,2 hPa 0,0 l/m 10,0 km/h (2 Bft) W-SW 240 0 min 0,000 mm 0,0 UV-I 0 W/m -0,7 C -1,9 C 17,7 km/h (3 Bft) 95,74 %
26.11.2017 20:58 1,4 C 5,0 C 86 % 1025,2 hPa 0,0 l/m 11,5 km/h (2 Bft) W-SW 250 0 min 0,000 mm 0,0 UV-I 0 W/m -0,7 C -3,0 C 16,1 km/h (3 Bft) 98,11 %
26.11.2017 21:00 1,4 C 5,0 C 86 % 1025,3 hPa 0,0 l/m 8,7 km/h (2 Bft) SW 233 0 min 0,025 mm 0,0 UV-I 0 W/m -0,7 C -0,8 C 12,9 km/h (3 Bft) 98,00 %
26.11.2017 21:03 1,4 C 5,0 C 86 % 1025,3 hPa 0,0 l/m 9,5 km/h (2 Bft) W-SW 249 0 min 0,000 mm 0,0 UV-I 0 W/m -0,7 C -1,5 C 16,1 km/h (3 Bft) 100,00 %
26.11.2017 21:06 1,4 C 5,0 C 86 % 1025,4 hPa 0,0 l/m 10,4 km/h (2 Bft) W 263 0 min 0,000 mm 0,0 UV-I 0 W/m -0,7 C -2,2 C 17,7 km/h (3 Bft) 98,59 %
26.11.2017 21:08 1,5 C 5,0 C 86 % 1025,4 hPa 0,0 l/m 12,6 km/h (3 Bft) W 269 0 min 0,000 mm 0,0 UV-I 0 W/m -0,6 C -3,7 C 20,9 km/h (4 Bft) 97,73 %
26.11.2017 21:10 1,5 C 5,0 C 86 % 1025,5 hPa 0,0 l/m 11,3 km/h (2 Bft) W 261 0 min 0,000 mm 0,0 UV-I 0 W/m -0,6 C -2,8 C 14,5 km/h (3 Bft) 100,00 %
26.11.2017 21:12 1,6 C 5,0 C 86 % 1025,5 hPa 0,0 l/m 8,4 km/h (2 Bft) W 273 0 min 0,000 mm 0,0 UV-I 0 W/m -0,5 C -0,3 C 14,5 km/h (3 Bft) 100,00 %
26.11.2017 21:14 1,6 C 5,0 C 85 % 1025,5 hPa 0,0 l/m 11,2 km/h (2 Bft) W-SW 251 0 min 0,000 mm 0,0 UV-I 0 W/m -0,6 C -2,6 C 14,5 km/h (3 Bft) 97,73 %
26.11.2017 21:16 1,6 C 5,0 C 85 % 1025,6 hPa 0,0 l/m 8,4 km/h (2 Bft) W 263 0 min 0,000 mm 0,0 UV-I 0 W/m -0,6 C -0,3 C 14,5 km/h (3 Bft) 100,00 %
26.11.2017 21:18 1,6 C 5,0 C 85 % 1025,6 hPa 0,0 l/m 11,3 km/h (2 Bft) W-SW 244 0 min 0,000 mm 0,0 UV-I 0 W/m -0,6 C -2,7 C 16,1 km/h (3 Bft) 100,00 %
26.11.2017 21:20 1,6 C 5,0 C 85 % 1025,7 hPa 0,0 l/m 9,9 km/h (2 Bft) W-SW 256 0 min 0,000 mm 0,0 UV-I 0 W/m -0,6 C -1,6 C 12,9 km/h (3 Bft) 98,11 %
26.11.2017 21:22 1,6 C 5,0 C 85 % 1025,7 hPa 0,0 l/m 8,3 km/h (2 Bft) W-SW 254 0 min 0,000 mm 0,0 UV-I 0 W/m -0,6 C -0,2 C 16,1 km/h (3 Bft) 100,00 %
26.11.2017 21:24 1,6 C 5,0 C 85 % 1025,7 hPa 0,0 l/m 10,3 km/h (2 Bft) W-SW 250 0 min 0,000 mm 0,0 UV-I 0 W/m -0,6 C -1,9 C 17,7 km/h (3 Bft) 100,00 %
26.11.2017 21:26 1,6 C 5,0 C 85 % 1025,7 hPa 0,0 l/m 9,4 km/h (2 Bft) W-SW 238 0 min 0,000 mm 0,0 UV-I 0 W/m -0,6 C -1,2 C 14,5 km/h (3 Bft) 98,44 %
26.11.2017 21:28 1,6 C 5,0 C 85 % 1025,7 hPa 0,0 l/m 10,4 km/h (2 Bft) W-SW 253 0 min 0,000 mm 0,0 UV-I 0 W/m -0,6 C -2,0 C 19,3 km/h (3 Bft) 100,00 %
26.11.2017 21:30 1,6 C 5,0 C 85 % 1025,7 hPa 0,0 l/m 12,3 km/h (3 Bft) W-SW 242 0 min 0,000 mm 0,0 UV-I 0 W/m -0,6 C -3,4 C 16,1 km/h (3 Bft) 100,00 %
26.11.2017 21:32 1,6 C 5,0 C 85 % 1025,7 hPa 0,0 l/m 16,5 km/h (3 Bft) W-SW 257 0 min 0,000 mm 0,0 UV-I 0 W/m -0,6 C -5,9 C 22,5 km/h (4 Bft) 100,00 %
26.11.2017 21:34 1,6 C 5,0 C 85 % 1025,8 hPa 0,0 l/m 10,7 km/h (2 Bft) SW 236 0 min 0,000 mm 0,0 UV-I 0 W/m -0,6 C -2,2 C 17,7 km/h (3 Bft) 100,00 %
26.11.2017 21:36 1,6 C 5,0 C 85 % 1025,8 hPa 0,0 l/m 11,0 km/h (2 Bft) S-SW 211 0 min 0,000 mm 0,0 UV-I 0 W/m -0,6 C -2,4 C 16,1 km/h (3 Bft) 97,56 %
26.11.2017 21:38 1,6 C 5,0 C 85 % 1025,8 hPa 0,0 l/m 10,6 km/h (2 Bft) W-NW 282 0 min 0,000 mm 0,0 UV-I 0 W/m -0,6 C -2,1 C 17,7 km/h (3 Bft) 98,00 %
26.11.2017 21:40 1,6 C 5,0 C 85 % 1025,8 hPa 0,0 l/m 12,3 km/h (3 Bft) W 265 0 min 0,000 mm 0,0 UV-I 0 W/m -0,6 C -3,4 C 16,1 km/h (3 Bft) 100,00 %
26.11.2017 21:42 1,6 C 5,0 C 85 % 1025,8 hPa 0,0 l/m 10,9 km/h (2 Bft) W-SW 240 0 min 0,000 mm 0,0 UV-I 0 W/m -0,6 C -2,4 C 14,5 km/h (3 Bft) 98,21 %
26.11.2017 21:44 1,6 C 5,0 C 86 % 1025,8 hPa 0,0 l/m 11,0 km/h (2 Bft) W-NW 282 0 min 0,000 mm 0,0 UV-I 0 W/m -0,5 C -2,4 C 14,5 km/h (3 Bft) 100,00 %
26.11.2017 21:46 1,6 C 5,0 C 85 % 1025,9 hPa 0,0 l/m 7,4 km/h (2 Bft) W-NW 292 0 min 0,000 mm 0,0 UV-I 0 W/m -0,6 C 0,6 C 12,9 km/h (3 Bft) 100,00 %
26.11.2017 21:48 1,6 C 5,0 C 86 % 1025,9 hPa 0,0 l/m 9,8 km/h (2 Bft) W 265 0 min 0,000 mm 0,0 UV-I 0 W/m -0,5 C -1,5 C 16,1 km/h (3 Bft) 97,37 %
26.11.2017 21:50 1,6 C 5,0 C 85 % 1025,9 hPa 0,0 l/m 5,9 km/h (2 Bft) W-SW 242 0 min 0,000 mm 0,0 UV-I 0 W/m -0,6 C 1,6 C 12,9 km/h (3 Bft) 98,21 %
26.11.2017 21:52 1,6 C 5,0 C 85 % 1025,9 hPa 0,0 l/m 10,7 km/h (2 Bft) W-SW 252 0 min 0,000 mm 0,0 UV-I 0 W/m -0,6 C -2,2 C 17,7 km/h (3 Bft) 100,00 %
26.11.2017 21:54 1,5 C 5,0 C 86 % 1026,0 hPa 0,0 l/m 9,8 km/h (2 Bft) W-SW 254 0 min 0,000 mm 0,0 UV-I 0 W/m -0,6 C -1,6 C 17,7 km/h (3 Bft) 100,00 %
26.11.2017 21:56 1,6 C 5,0 C 85 % 1025,9 hPa 0,0 l/m 11,2 km/h (2 Bft) W 259 0 min 0,000 mm 0,0 UV-I 0 W/m -0,6 C -2,6 C 19,3 km/h (3 Bft) 100,00 %
26.11.2017 21:58 1,6 C 4,4 C 85 % 1026,0 hPa 0,0 l/m 10,9 km/h (2 Bft) W 263 0 min 0,000 mm 0,0 UV-I 0 W/m -0,6 C -2,4 C 16,1 km/h (3 Bft) 96,30 %
26.11.2017 22:00 1,6 C 4,4 C 85 % 1025,9 hPa 0,0 l/m 6,8 km/h (2 Bft) W-NW 290 0 min 0,000 mm 0,0 UV-I 0 W/m -0,6 C 1,2 C 14,5 km/h (3 Bft) 100,00 %
26.11.2017 22:02 1,5 C 4,4 C 85 % 1025,9 hPa 0,0 l/m 9,3 km/h (2 Bft) W-SW 257 0 min 0,026 mm 0,0 UV-I 0 W/m -0,7 C -1,2 C 12,9 km/h (3 Bft) 100,00 %
26.11.2017 22:04 1,4 C 4,4 C 86 % 1025,8 hPa 0,0 l/m 7,6 km/h (2 Bft) W-SW 255 0 min 0,000 mm 0,0 UV-I 0 W/m -0,7 C 0,2 C 12,9 km/h (3 Bft) 98,18 %
26.11.2017 22:06 1,4 C 4,4 C 86 % 1025,9 hPa 0,0 l/m 8,6 km/h (2 Bft) W-SW 257 0 min 0,000 mm 0,0 UV-I 0 W/m -0,7 C -0,7 C 12,9 km/h (3 Bft) 97,44 %
26.11.2017 22:08 1,4 C 4,4 C 85 % 1025,9 hPa 0,0 l/m 7,5 km/h (2 Bft) W-SW 246 0 min 0,000 mm 0,0 UV-I 0 W/m -0,8 C 0,3 C 11,3 km/h (2 Bft) 97,87 %
26.11.2017 22:10 1,4 C 4,4 C 86 % 1025,9 hPa 0,0 l/m 9,5 km/h (2 Bft) W 259 0 min 0,000 mm 0,0 UV-I 0 W/m -0,7 C -1,5 C 16,1 km/h (3 Bft) 100,00 %
26.11.2017 22:12 1,4 C 4,4 C 86 % 1025,9 hPa 0,0 l/m 10,2 km/h (2 Bft) W-SW 252 0 min 0,000 mm 0,0 UV-I 0 W/m -0,7 C -2,1 C 14,5 km/h (3 Bft) 97,56 %
26.11.2017 22:14 1,4 C 4,4 C 86 % 1025,9 hPa 0,0 l/m 7,5 km/h (2 Bft) W-SW 247 0 min 0,000 mm 0,0 UV-I 0 W/m -0,7 C 0,3 C 11,3 km/h (2 Bft) 98,21 %
26.11.2017 22:16 1,4 C 4,4 C 86 % 1025,9 hPa 0,0 l/m 11,7 km/h (2 Bft) W-SW 258 0 min 0,000 mm 0,0 UV-I 0 W/m -0,7 C -3,2 C 17,7 km/h (3 Bft) 97,37 %
26.11.2017 22:18 1,4 C 5,0 C 85 % 1026,0 hPa 0,0 l/m 7,6 km/h (2 Bft) W 267 0 min 0,000 mm 0,0 UV-I 0 W/m -0,8 C 0,2 C 11,3 km/h (2 Bft) 97,73 %
26.11.2017 22:20 1,4 C 5,0 C 86 % 1026,0 hPa 0,0 l/m 9,2 km/h (2 Bft) W-NW 288 0 min 0,000 mm 0,0 UV-I 0 W/m -0,7 C -1,2 C 12,9 km/h (3 Bft) 96,00 %
26.11.2017 22:22 1,4 C 5,0 C 86 % 1026,0 hPa 0,0 l/m 9,1 km/h (2 Bft) SW 225 0 min 0,000 mm 0,0 UV-I 0 W/m -0,7 C -1,2 C 16,1 km/h (3 Bft) 96,23 %
26.11.2017 22:24 1,4 C 5,0 C 86 % 1025,9 hPa 0,0 l/m 7,4 km/h (2 Bft) W 267 0 min 0,000 mm 0,0 UV-I 0 W/m -0,7 C 0,4 C 11,3 km/h (2 Bft) 97,73 %
26.11.2017 22:26 1,4 C 4,4 C 86 % 1025,9 hPa 0,0 l/m 6,9 km/h (2 Bft) W-SW 253 0 min 0,000 mm 0,0 UV-I 0 W/m -0,7 C 0,9 C 11,3 km/h (2 Bft) 94,00 %
26.11.2017 22:28 1,4 C 4,4 C 86 % 1025,9 hPa 0,0 l/m 7,0 km/h (2 Bft) W 268 0 min 0,000 mm 0,0 UV-I 0 W/m -0,7 C 0,8 C 9,7 km/h (2 Bft) 94,00 %
26.11.2017 22:30 1,4 C 4,4 C 86 % 1025,9 hPa 0,0 l/m 8,8 km/h (2 Bft) W-SW 239 0 min 0,000 mm 0,0 UV-I 0 W/m -0,7 C -0,9 C 12,9 km/h (3 Bft) 95,45 %
26.11.2017 22:32 1,5 C 4,4 C 86 % 1025,9 hPa 0,0 l/m 8,5 km/h (2 Bft) SW 223 0 min 0,000 mm 0,0 UV-I 0 W/m -0,6 C -0,5 C 12,9 km/h (3 Bft) 95,12 %
26.11.2017 22:34 1,5 C 4,4 C 85 % 1025,9 hPa 0,0 l/m 6,7 km/h (2 Bft) W-SW 254 0 min 0,000 mm 0,0 UV-I 0 W/m -0,7 C 1,2 C 11,3 km/h (2 Bft) 96,00 %
26.11.2017 22:36 1,5 C 5,0 C 86 % 1025,9 hPa 0,0 l/m 6,0 km/h (2 Bft) SW 229 0 min 0,000 mm 0,0 UV-I 0 W/m -0,6 C 1,5 C 8,0 km/h (2 Bft) 95,45 %
26.11.2017 22:38 1,5 C 4,4 C 85 % 1025,8 hPa 0,0 l/m 5,9 km/h (2 Bft) SW 227 0 min 0,000 mm 0,0 UV-I 0 W/m -0,7 C 1,5 C 9,7 km/h (2 Bft) 96,00 %
26.11.2017 22:40 1,5 C 4,4 C 86 % 1025,9 hPa 0,0 l/m 5,3 km/h (1 Bft) S-SW 213 0 min 0,000 mm 0,0 UV-I 0 W/m -0,6 C 1,5 C 8,0 km/h (2 Bft) 92,00 %
26.11.2017 22:42 1,4 C 4,4 C 86 % 1025,9 hPa 0,0 l/m 5,3 km/h (1 Bft) SW 227 0 min 0,000 mm 0,0 UV-I 0 W/m -0,7 C 1,4 C 6,4 km/h (2 Bft) 91,49 %
26.11.2017 22:44 1,4 C 4,4 C 87 % 1025,9 hPa 0,0 l/m 4,5 km/h (1 Bft) SW 217 0 min 0,000 mm 0,0 UV-I 0 W/m -0,5 C 1,4 C 8,0 km/h (2 Bft) 97,44 %
26.11.2017 22:46 1,4 C 4,4 C 87 % 1025,9 hPa 0,0 l/m 6,7 km/h (2 Bft) S-SW 204 0 min 0,000 mm 0,0 UV-I 0 W/m -0,5 C 1,1 C 9,7 km/h (2 Bft) 90,91 %
26.11.2017 22:48 1,3 C 4,4 C 87 % 1025,9 hPa 0,0 l/m 6,9 km/h (2 Bft) SW 217 0 min 0,000 mm 0,0 UV-I 0 W/m -0,6 C 0,8 C 9,7 km/h (2 Bft) 100,00 %
26.11.2017 22:50 1,3 C 4,4 C 87 % 1025,8 hPa 0,0 l/m 5,1 km/h (1 Bft) S-SW 202 0 min 0,000 mm 0,0 UV-I 0 W/m -0,6 C 1,3 C 8,0 km/h (2 Bft) 95,38 %
26.11.2017 22:52 1,3 C 4,4 C 87 % 1025,8 hPa 0,0 l/m 4,8 km/h (1 Bft) S 188 0 min 0,000 mm 0,0 UV-I 0 W/m -0,6 C 1,3 C 6,4 km/h (2 Bft) 96,00 %
26.11.2017 22:54 1,3 C 4,4 C 87 % 1025,8 hPa 0,0 l/m 6,6 km/h (2 Bft) S-SW 209 0 min 0,000 mm 0,0 UV-I 0 W/m -0,6 C 1,1 C 9,7 km/h (2 Bft) 94,74 %
26.11.2017 22:56 1,3 C 4,4 C 88 % 1025,8 hPa 0,0 l/m 5,8 km/h (2 Bft) S-SW 206 0 min 0,000 mm 0,0 UV-I 0 W/m -0,5 C 1,3 C 11,3 km/h (2 Bft) 96,00 %
26.11.2017 22:58 1,3 C 4,4 C 87 % 1025,8 hPa 0,0 l/m 7,0 km/h (2 Bft) SW 219 0 min 0,000 mm 0,0 UV-I 0 W/m -0,6 C 0,7 C 11,3 km/h (2 Bft) 96,23 %
26.11.2017 23:00 1,3 C 4,4 C 87 % 1025,8 hPa 0,0 l/m 6,2 km/h (2 Bft) S-SW 212 0 min 0,000 mm 0,0 UV-I 0 W/m -0,6 C 1,3 C 8,0 km/h (2 Bft) 97,56 %
26.11.2017 23:02 1,3 C 4,4 C 88 % 1025,8 hPa 0,0 l/m 6,2 km/h (2 Bft) SW 229 0 min 0,000 mm 0,0 UV-I 0 W/m -0,5 C 1,3 C 9,7 km/h (2 Bft) 97,56 %
26.11.2017 23:04 1,3 C 5,0 C 88 % 1025,8 hPa 0,0 l/m 3,9 km/h (1 Bft) SW 232 0 min 0,000 mm 0,0 UV-I 0 W/m -0,5 C 1,3 C 6,4 km/h (2 Bft) 96,43 %
26.11.2017 23:06 1,3 C 4,4 C 88 % 1025,8 hPa 0,0 l/m 5,8 km/h (2 Bft) S-SW 208 0 min 0,000 mm 0,0 UV-I 0 W/m -0,5 C 1,3 C 9,7 km/h (2 Bft) 92,68 %
26.11.2017 23:08 1,3 C 4,4 C 87 % 1025,8 hPa 0,0 l/m 4,8 km/h (1 Bft) W-SW 239 0 min 0,000 mm 0,0 UV-I 0 W/m -0,6 C 1,3 C 9,7 km/h (2 Bft) 97,87 %
26.11.2017 23:10 1,3 C 4,4 C 88 % 1025,8 hPa 0,0 l/m 4,6 km/h (1 Bft) SW 233 0 min 0,000 mm 0,0 UV-I 0 W/m -0,5 C 1,3 C 8,0 km/h (2 Bft) 98,00 %
26.11.2017 23:12 1,4 C 4,4 C 88 % 1025,8 hPa 0,0 l/m 8,8 km/h (2 Bft) W-SW 248 0 min 0,000 mm 0,0 UV-I 0 W/m -0,4 C -0,9 C 12,9 km/h (3 Bft) 94,74 %
26.11.2017 23:14 1,4 C 4,4 C 88 % 1025,8 hPa 0,0 l/m 8,6 km/h (2 Bft) SW 235 0 min 0,000 mm 0,0 UV-I 0 W/m -0,4 C -0,7 C 11,3 km/h (2 Bft) 97,62 %
26.11.2017 23:16 1,4 C 5,0 C 88 % 1025,9 hPa 0,0 l/m 7,2 km/h (2 Bft) W-SW 239 0 min 0,000 mm 0,0 UV-I 0 W/m -0,4 C 0,6 C 11,3 km/h (2 Bft) 96,15 %
26.11.2017 23:18 1,4 C 4,4 C 88 % 1025,8 hPa 0,0 l/m 7,0 km/h (2 Bft) W-SW 242 0 min 0,000 mm 0,0 UV-I 0 W/m -0,4 C 0,8 C 11,3 km/h (2 Bft) 97,22 %
26.11.2017 23:20 1,3 C 4,4 C 89 % 1025,9 hPa 0,0 l/m 7,7 km/h (2 Bft) SW 235 0 min 0,000 mm 0,0 UV-I 0 W/m -0,3 C 0,0 C 12,9 km/h (3 Bft) 100,00 %
26.11.2017 23:22 1,3 C 4,4 C 89 % 1025,9 hPa 0,0 l/m 6,8 km/h (2 Bft) SW 223 0 min 0,000 mm 0,0 UV-I 0 W/m -0,3 C 0,9 C 9,7 km/h (2 Bft) 100,00 %
26.11.2017 23:24 1,3 C 4,4 C 89 % 1025,9 hPa 0,0 l/m 6,3 km/h (2 Bft) W-SW 242 0 min 0,000 mm 0,0 UV-I 0 W/m -0,3 C 1,3 C 11,3 km/h (2 Bft) 95,74 %
26.11.2017 23:26 1,3 C 4,4 C 89 % 1025,9 hPa 0,0 l/m 10,3 km/h (2 Bft) SW 222 0 min 0,000 mm 0,0 UV-I 0 W/m -0,3 C -2,3 C 16,1 km/h (3 Bft) 100,00 %
26.11.2017 23:28 1,2 C 4,4 C 90 % 1026,0 hPa 0,0 l/m 10,2 km/h (2 Bft) S-SW 212 0 min 0,000 mm 0,0 UV-I 0 W/m -0,3 C -2,3 C 16,1 km/h (3 Bft) 100,00 %
26.11.2017 23:30 1,2 C 4,4 C 90 % 1025,9 hPa 0,0 l/m 5,8 km/h (2 Bft) S-SW 209 0 min 0,000 mm 0,0 UV-I 0 W/m -0,3 C 1,2 C 9,7 km/h (2 Bft) 96,00 %
26.11.2017 23:33 1,0 C 4,4 C 91 % 1025,9 hPa 0,0 l/m 7,9 km/h (2 Bft) SW 217 0 min 0,000 mm 0,0 UV-I 0 W/m -0,3 C -0,5 C 12,9 km/h (3 Bft) 100,00 %
26.11.2017 23:34 1,0 C 4,4 C 91 % 1025,9 hPa 0,0 l/m 8,1 km/h (2 Bft) S-SW 213 0 min 0,000 mm 0,0 UV-I 0 W/m -0,3 C -0,7 C 11,3 km/h (2 Bft) 100,00 %
26.11.2017 23:36 0,9 C 4,4 C 92 % 1025,9 hPa 0,0 l/m 7,7 km/h (2 Bft) S-SW 201 0 min 0,000 mm 0,0 UV-I 0 W/m -0,2 C -0,4 C 12,9 km/h (3 Bft) 100,00 %
26.11.2017 23:38 0,9 C 4,4 C 92 % 1025,8 hPa 0,0 l/m 5,8 km/h (2 Bft) SW 236 0 min 0,000 mm 0,0 UV-I 0 W/m -0,2 C 0,9 C 9,7 km/h (2 Bft) 100,00 %
26.11.2017 23:40 0,9 C 4,4 C 92 % 1025,8 hPa 0,0 l/m 6,2 km/h (2 Bft) S-SW 209 0 min 0,000 mm 0,0 UV-I 0 W/m -0,2 C 0,9 C 8,0 km/h (2 Bft) 100,00 %
26.11.2017 23:42 0,9 C 4,4 C 92 % 1025,8 hPa 0,0 l/m 4,9 km/h (1 Bft) SW 217 0 min 0,000 mm 0,0 UV-I 0 W/m -0,2 C 0,9 C 8,0 km/h (2 Bft) 100,00 %
26.11.2017 23:44 0,9 C 4,4 C 92 % 1025,8 hPa 0,0 l/m 6,3 km/h (2 Bft) SW 225 0 min 0,000 mm 0,0 UV-I 0 W/m -0,2 C 0,9 C 9,7 km/h (2 Bft) 98,00 %
26.11.2017 23:46 0,9 C 4,4 C 92 % 1025,8 hPa 0,0 l/m 5,1 km/h (1 Bft) W-SW 250 0 min 0,000 mm 0,0 UV-I 0 W/m -0,2 C 0,9 C 6,4 km/h (2 Bft) 100,00 %
26.11.2017 23:48 0,9 C 4,4 C 93 % 1025,8 hPa 0,0 l/m 3,8 km/h (1 Bft) W 277 0 min 0,000 mm 0,0 UV-I 0 W/m -0,1 C 0,9 C 6,4 km/h (2 Bft) 100,00 %
26.11.2017 23:50 0,9 C 4,4 C 93 % 1025,8 hPa 0,0 l/m 3,5 km/h (1 Bft) W 275 0 min 0,000 mm 0,0 UV-I 0 W/m -0,1 C 0,9 C 4,8 km/h (1 Bft) 98,21 %
26.11.2017 23:52 0,8 C 5,0 C 93 % 1025,8 hPa 0,0 l/m 2,4 km/h (1 Bft) W 275 0 min 0,000 mm 0,0 UV-I 0 W/m -0,2 C 0,8 C 4,8 km/h (1 Bft) 100,00 %
26.11.2017 23:54 0,8 C 4,4 C 93 % 1025,7 hPa 0,0 l/m 1,9 km/h (1 Bft) W 275 0 min 0,000 mm 0,0 UV-I 0 W/m -0,2 C 0,8 C 3,2 km/h (1 Bft) 100,00 %
26.11.2017 23:56 0,7 C 4,4 C 93 % 1025,8 hPa 0,0 l/m 3,4 km/h (1 Bft) W 275 0 min 0,000 mm 0,0 UV-I 0 W/m -0,3 C 0,7 C 4,8 km/h (1 Bft) 100,00 %
26.11.2017 23:58 0,7 C 4,4 C 94 % 1025,8 hPa 0,0 l/m 3,8 km/h (1 Bft) W 261 0 min 0,000 mm 0,0 UV-I 0 W/m -0,2 C 0,7 C 6,4 km/h (2 Bft) 100,00 %
_ Min-Zeit 18:28 21:58 13:20 00:00 - 23:54 - - - - - - 13:50 17:46 23:54 22:46
Minimum _ 0,3 C 4,4 C 74 % 1015,7 hPa - 1,9 km/h (1 Bft) - - - - - - -1,2 C -7,6 C 3,2 km/h (1 Bft) 90,91 %
_ Max-Zeit 00:00 00:00 23:58 21:54 14:40 12:32 - - 07:40 12:00 11:34 12:26 00:18 00:24 06:06 00:00
Maximum _ 4,8 C 5,0 C 94 % 1026,0 hPa 0,2 l/m 21,0 km/h
W-SW (4 Bft)
- - 2 min 0,076 mm 0,5 UV-I 213 W/m 3,5 C 4,7 C 33,8 km/h
W (5 Bft)
100,00 %
Durchschnitt _ 2,6 C 5,0 C 86 % 1022,1 hPa #0,2 l/m 11,9 km/h (2 Bft) W-SW - #16 min. #0,610 mm 0,4 UV-I 71 W/m 0,4 C -1,8 C 18,5 km/h (3 Bft) 97,97 %